[[{"header":{"parameterUnit":"m.s-1","parameterCategory":1,"la1":30.6,"la2":29.2853,"lo1":-89.7004,"lo2":-87.6739,"dy":0.0162,"dx":0.0183,"nx":112,"ny":82,"refTime":"2026-05-12T12:00:00:Z","depth":0,"parameterNumber":2,"parameterNumberName":"U-component_of_WINDS"},"data":[0.0,0.0,0.0,0.0,0.0,0.0,0.0,0.0,0.0,0.0,0.0,0.0,0.0,0.0,0.0,0.0,0.0,0.0,0.0,0.0,0.0,0.0,0.0,0.0,0.0,0.0,0.0,0.0,0.0,0.0,0.0,0.0,0.0,0.0,0.0,0.0,0.0,0.0,0.0,0.0,0.0,0.0,0.0,0.0,0.0,0.0,0.0,0.0,0.0,0.0,0.0,0.0,0.0,0.0,0.0,0.0,0.0,0.0,0.0,0.0,0.0,0.0,0.0,0.0,0.0,0.0,0.0,0.0,0.0,0.0,0.0,0.0,0.0,0.0,0.0,0.0,0.0,0.0,0.0,0.0,0.0,0.0,0.0,0.0,0.0,0.0,0.0,0.0,0.0,0.0,-0.7041,-0.8005,-0.9297,-0.987,-0.9324,-0.9284,-0.8884,-0.7965,0.0,0.0,0.0,0.0,0.0,0.0,0.0,0.0,0.0,0.0,0.0,0.0,0.0,0.0,0.0,0.0,0.0,0.0,0.0,0.0,0.0,0.0,0.0,0.0,0.0,0.0,0.0,0.0,0.0,0.0,0.0,0.0,0.0,0.0,0.0,0.0,0.0,0.0,0.0,0.0,0.0,0.0,0.0,0.0,0.0,0.0,0.0,0.0,0.0,0.0,0.0,0.0,0.0,0.0,0.0,0.0,0.0,0.0,0.0,0.0,0.0,0.0,0.0,0.0,0.0,0.0,0.0,0.0,0.0,0.0,0.0,0.0,0.0,0.0,0.0,0.0,0.0,0.0,0.0,0.0,0.0,0.0,0.0,0.0,0.0,0.0,0.0,0.0,0.0,0.0,0.0,0.0,0.0,0.0,0.0,0.0,0.0,0.0,0.0,0.0,0.0,0.0,0.0,0.0,-0.7473,-0.8858,-0.9657,-0.998,-0.9646,-0.9619,-0.9138,-0.7979,0.0,0.0,0.0,0.0,0.0,0.0,0.0,0.0,0.0,0.0,0.0,0.0,0.0,0.0,0.0,0.0,0.0,0.0,0.0,0.0,0.0,0.0,0.0,0.0,0.0,0.0,0.0,0.0,0.0,0.0,0.0,0.0,0.0,0.0,0.0,0.0,0.0,0.0,0.0,0.0,0.0,0.0,0.0,0.0,0.0,0.0,0.0,0.0,0.0,0.0,0.0,0.0,0.0,0.0,0.0,0.0,0.0,0.0,0.0,0.0,0.0,0.0,0.0,0.0,0.0,0.0,0.0,0.0,0.0,0.0,0.0,0.0,0.0,0.0,0.0,0.0,0.0,0.0,0.0,0.0,0.0,0.0,0.0,0.0,0.0,0.0,0.0,0.0,0.0,0.0,0.0,0.0,0.0,0.0,0.0,0.0,0.0,0.0,0.0,0.0,0.0,0.0,0.0,-0.7847,-0.8755,-0.9505,-1.0067,-1.018,-0.9726,-0.9715,-0.9178,-0.7979,-0.7206,0.0,0.0,0.0,0.0,0.0,0.0,0.0,0.0,0.0,0.0,0.0,0.0,0.0,0.0,0.0,0.0,0.0,0.0,0.0,0.0,0.0,0.0,0.0,0.0,0.0,0.0,0.0,0.0,0.0,0.0,0.0,0.0,0.0,0.0,0.0,0.0,0.0,0.0,0.0,0.0,0.0,0.0,0.0,0.0,0.0,0.0,0.0,0.0,0.0,0.0,0.0,0.0,0.0,0.0,0.0,0.0,0.0,0.0,0.0,0.0,0.0,0.0,0.0,0.0,0.0,0.0,0.0,0.0,0.0,0.0,0.0,0.0,0.0,0.0,0.0,0.0,0.0,0.0,0.0,0.0,0.0,0.0,0.0,0.0,0.0,0.0,0.0,0.0,0.0,0.0,0.0,0.0,0.0,0.0,0.0,0.0,0.0,0.0,0.0,0.0,0.0,0.0,-0.9271,-0.9953,-0.9992,-1.036,-1.0358,-0.9769,-0.9619,-0.9072,-0.7872,-0.7233,0.0,0.0,0.0,0.0,0.0,0.0,0.0,0.0,0.0,0.0,0.0,0.0,0.0,0.0,0.0,0.0,0.0,0.0,0.0,0.0,0.0,0.0,0.0,0.0,0.0,0.0,0.0,0.0,0.0,0.0,0.0,0.0,0.0,0.0,0.0,0.0,0.0,0.0,0.0,0.0,0.0,0.0,0.0,0.0,0.0,0.0,0.0,0.0,0.0,0.0,0.0,0.0,0.0,0.0,0.0,0.0,0.0,0.0,0.0,0.0,0.0,0.0,0.0,0.0,0.0,0.0,0.0,0.0,0.0,0.0,0.0,0.0,0.0,0.0,0.0,0.0,0.0,0.0,0.0,0.0,0.0,0.0,0.0,0.0,0.0,0.0,0.0,0.0,0.0,0.0,0.0,0.0,0.0,0.0,0.0,0.0,0.0,0.0,0.0,0.0,0.0,0.0,-1.0045,-1.055,-1.0293,-1.0482,-1.0358,-0.9769,-0.9404,-0.8738,-0.7598,-0.6968,0.0,0.0,0.0,0.0,0.0,0.0,0.0,0.0,0.0,0.0,0.0,0.0,0.0,0.0,0.0,0.0,0.0,0.0,0.0,0.0,0.0,0.0,0.0,0.0,0.0,0.0,0.0,0.0,0.0,0.0,0.0,0.0,0.0,0.0,0.0,0.0,0.0,0.0,0.0,0.0,0.0,0.0,0.0,0.0,0.0,0.0,0.0,0.0,0.0,0.0,0.0,0.0,0.0,0.0,0.0,0.0,0.0,0.0,0.0,0.0,0.0,0.0,0.0,0.0,0.0,0.0,0.0,0.0,0.0,0.0,0.0,0.0,0.0,0.0,0.0,0.0,0.0,0.0,0.0,0.0,0.0,0.0,0.0,0.0,0.0,0.0,0.0,0.0,0.0,0.0,0.0,0.0,0.0,0.0,0.0,0.0,0.0,0.0,0.0,0.0,0.0,0.0,-1.0819,-1.1226,0.0,-1.0991,-1.0623,-0.9872,-0.9434,-0.8711,-0.7571,0.0,0.0,0.0,0.0,0.0,0.0,0.0,0.0,0.0,0.0,0.0,0.0,0.0,0.0,0.0,0.0,0.0,0.0,0.0,0.0,0.0,0.0,0.0,0.0,0.0,0.0,0.0,0.0,0.0,0.0,0.0,0.0,0.0,0.0,0.0,0.0,0.0,0.0,0.0,0.0,0.0,0.0,0.0,0.0,0.0,0.0,0.0,0.0,0.0,0.0,0.0,0.0,0.0,0.0,0.0,0.0,0.0,0.0,0.0,0.0,0.0,0.0,0.0,0.0,0.0,0.0,0.0,0.0,0.0,0.0,0.0,0.0,0.0,0.0,0.0,0.0,0.0,0.0,0.0,0.0,0.0,0.0,0.0,0.0,0.0,0.0,0.0,0.0,0.0,0.0,0.0,0.0,0.0,0.0,0.0,0.0,0.0,0.0,0.0,0.0,0.0,0.0,-1.0912,-1.1609,-1.2011,0.0,-1.157,-1.0991,-1.0133,-0.9518,-0.8711,-0.7571,0.0,0.0,0.0,0.0,0.0,0.0,0.0,0.0,0.0,0.0,0.0,0.0,0.0,0.0,0.0,0.0,0.0,0.0,0.0,0.0,0.0,0.0,0.0,0.0,0.0,0.0,0.0,0.0,0.0,0.0,0.0,0.0,0.0,0.0,0.0,0.0,0.0,0.0,0.0,0.0,0.0,0.0,0.0,0.0,0.0,0.0,0.0,0.0,0.0,0.0,0.0,0.0,0.0,0.0,0.0,0.0,0.0,0.0,0.0,0.0,0.0,0.0,0.0,0.0,0.0,0.0,0.0,0.0,0.0,0.0,0.0,0.0,0.0,0.0,0.0,0.0,0.0,0.0,0.0,0.0,0.0,0.0,0.0,0.0,0.0,0.0,0.0,0.0,0.0,0.0,0.0,0.0,0.0,0.0,0.0,0.0,0.0,0.0,0.0,0.0,0.0,0.0,-1.1662,-1.243,-1.2852,-1.275,-1.2177,-1.1419,-1.048,-0.9659,-0.8711,0.0,0.0,0.0,0.0,0.0,0.0,0.0,0.0,0.0,0.0,0.0,0.0,0.0,0.0,0.0,0.0,0.0,0.0,0.0,0.0,0.0,0.0,0.0,0.0,0.0,0.0,0.0,0.0,0.0,0.0,0.0,0.0,0.0,0.0,0.0,0.0,0.0,0.0,0.0,0.0,0.0,0.0,0.0,0.0,0.0,0.0,0.0,0.0,0.0,0.0,0.0,0.0,0.0,0.0,0.0,0.0,0.0,0.0,0.0,0.0,0.0,0.0,0.0,0.0,0.0,0.0,0.0,0.0,0.0,0.0,0.0,0.0,0.0,0.0,0.0,0.0,0.0,0.0,0.0,0.0,0.0,0.0,0.0,0.0,0.0,0.0,0.0,0.0,0.0,0.0,0.0,0.0,0.0,0.0,0.0,0.0,0.0,0.0,0.0,0.0,0.0,0.0,0.0,-1.2201,-1.2872,-1.3367,-1.3596,-1.2943,-1.2054,-1.0982,-1.0079,-0.8999,-0.772,0.0,0.0,0.0,0.0,0.0,0.0,0.0,0.0,0.0,0.0,0.0,0.0,0.0,0.0,0.0,0.0,0.0,0.0,0.0,0.0,0.0,0.0,0.0,0.0,0.0,0.0,0.0,0.0,0.0,0.0,0.0,0.0,0.0,0.0,0.0,0.0,0.0,0.0,0.0,0.0,0.0,0.0,0.0,0.0,0.0,0.0,0.0,0.0,0.0,0.0,0.0,0.0,0.0,0.0,0.0,0.0,0.0,0.0,0.0,0.0,0.0,0.0,0.0,0.0,0.0,0.0,0.0,0.0,0.0,0.0,0.0,0.0,0.0,0.0,0.0,0.0,0.0,0.0,0.0,0.0,0.0,0.0,0.0,0.0,0.0,0.0,0.0,0.0,0.0,0.0,0.0,0.0,0.0,0.0,0.0,0.0,0.0,0.0,0.0,0.0,0.0,0.0,-1.2517,-1.3278,-1.3867,-1.4337,-1.3765,-1.289,-1.1692,-1.0712,-0.9561,-0.8114,0.0,0.0,0.0,0.0,0.0,0.0,0.0,0.0,0.0,0.0,0.0,0.0,0.0,0.0,0.0,0.0,0.0,0.0,0.0,0.0,0.0,0.0,0.0,0.0,0.0,0.0,0.0,0.0,0.0,0.0,0.0,0.0,0.0,0.0,0.0,0.0,0.0,0.0,0.0,0.0,0.0,0.0,0.0,0.0,0.0,0.0,0.0,0.0,0.0,0.0,0.0,0.0,0.0,0.0,0.0,0.0,0.0,0.0,0.0,0.0,0.0,0.0,0.0,0.0,0.0,0.0,0.0,0.0,0.0,0.0,0.0,0.0,0.0,0.0,0.0,0.0,0.0,0.0,0.0,0.0,0.0,0.0,0.0,0.0,0.0,0.0,0.0,0.0,0.0,0.0,0.0,0.0,0.0,0.0,0.0,0.0,0.0,0.0,0.0,0.0,0.0,0.0,-1.268,-1.3652,-1.4374,-1.4944,-1.4558,-1.3761,-1.2511,-1.1543,-1.0294,-0.8709,0.0,0.0,0.0,0.0,0.0,0.0,0.0,0.0,0.0,0.0,0.0,0.0,0.0,0.0,0.0,0.0,0.0,0.0,0.0,0.0,0.0,0.0,0.0,0.0,0.0,0.0,0.0,0.0,0.0,0.0,0.0,0.0,0.0,0.0,0.0,0.0,0.0,0.0,0.0,0.0,0.0,0.0,0.0,0.0,0.0,0.0,0.0,0.0,0.0,0.0,0.0,0.0,0.0,0.0,0.0,0.0,0.0,0.0,0.0,0.0,-1.681,-1.5513,0.0,0.0,0.0,0.0,0.0,0.0,0.0,0.0,0.0,0.0,0.0,0.0,0.0,0.0,0.0,0.0,0.0,0.0,0.0,0.0,0.0,0.0,0.0,0.0,0.0,0.0,0.0,0.0,0.0,0.0,0.0,0.0,0.0,0.0,0.0,0.0,0.0,0.0,0.0,0.0,-1.2719,-1.3906,-1.4788,-1.5128,-1.4813,-1.4238,-1.3336,-1.2225,-1.0995,-0.9542,-0.8352,0.0,0.0,0.0,0.0,0.0,0.0,0.0,0.0,0.0,0.0,0.0,0.0,0.0,0.0,0.0,0.0,0.0,0.0,0.0,0.0,0.0,0.0,0.0,0.0,0.0,0.0,0.0,0.0,0.0,0.0,0.0,0.0,0.0,0.0,0.0,0.0,0.0,0.0,0.0,0.0,0.0,0.0,0.0,0.0,0.0,0.0,0.0,0.0,0.0,0.0,0.0,0.0,0.0,0.0,0.0,0.0,0.0,0.0,0.0,-1.9515,-1.7991,0.0,0.0,0.0,0.0,0.0,0.0,0.0,0.0,0.0,0.0,0.0,0.0,0.0,0.0,0.0,0.0,0.0,0.0,0.0,0.0,0.0,0.0,0.0,0.0,0.0,0.0,0.0,0.0,0.0,0.0,0.0,0.0,0.0,0.0,0.0,0.0,0.0,0.0,0.0,0.0,-1.3008,-1.4121,-1.4933,-1.5274,-1.5137,-1.4742,-1.3986,-1.3007,-1.1889,-1.0557,-0.9036,0.0,0.0,0.0,0.0,0.0,0.0,0.0,0.0,0.0,0.0,0.0,0.0,0.0,0.0,0.0,0.0,0.0,0.0,0.0,0.0,0.0,0.0,0.0,0.0,0.0,0.0,0.0,0.0,0.0,0.0,0.0,0.0,0.0,0.0,0.0,0.0,0.0,0.0,0.0,0.0,0.0,0.0,0.0,0.0,0.0,0.0,0.0,0.0,0.0,0.0,0.0,0.0,0.0,-2.3521,-2.4054,-2.4456,-2.5008,-2.5259,-2.5076,-2.2501,-2.0974,-2.0221,-1.8885,0.0,0.0,0.0,0.0,0.0,0.0,0.0,0.0,0.0,0.0,0.0,0.0,0.0,0.0,0.0,0.0,0.0,0.0,0.0,0.0,0.0,0.0,-1.5644,-1.5234,-1.5117,-1.4844,-1.3769,0.0,0.0,0.0,0.0,0.0,0.0,0.0,0.0,0.0,0.0,0.0,-1.3359,-1.4316,-1.5019,-1.5371,-1.541,-1.5158,-1.4582,-1.3756,-1.2779,-1.1557,-0.9849,-0.8584,0.0,0.0,0.0,0.0,0.0,0.0,0.0,0.0,0.0,0.0,0.0,0.0,0.0,0.0,0.0,0.0,0.0,0.0,0.0,0.0,0.0,0.0,0.0,0.0,0.0,0.0,0.0,0.0,0.0,0.0,0.0,0.0,-1.4097,-1.5241,0.0,0.0,0.0,0.0,0.0,0.0,0.0,0.0,0.0,0.0,0.0,0.0,0.0,-2.2422,-2.3552,-2.4481,-2.5008,-2.5184,-2.6239,-2.6515,-2.6197,-2.6751,-2.6967,-2.6942,-2.6531,0.0,-2.283,-2.1769,0.0,0.0,0.0,0.0,0.0,0.0,0.0,0.0,0.0,0.0,0.0,0.0,0.0,0.0,0.0,0.0,0.0,0.0,0.0,0.0,0.0,0.0,-1.7012,-1.6551,-1.6453,-1.6395,-1.6239,-1.4952,-1.3627,-1.2852,-1.2305,-1.1697,0.0,0.0,0.0,0.0,0.0,0.0,-1.3437,-1.457,-1.5352,-1.5381,-1.541,-1.5303,-1.509,-1.4459,-1.3552,-1.2331,-1.1133,-0.9842,-0.8359,-0.7804,0.0,0.0,0.0,0.0,0.0,0.0,0.0,0.0,0.0,0.0,0.0,0.0,0.0,0.0,0.0,0.0,0.0,0.0,0.0,0.0,0.0,0.0,0.0,0.0,0.0,0.0,0.0,0.0,0.0,-1.4532,-1.6241,-1.6999,-1.7099,-1.7099,0.0,0.0,0.0,0.0,0.0,0.0,0.0,0.0,0.0,-2.2849,-2.4029,-2.5184,-2.6289,-2.7067,-2.7795,-2.8423,-2.8925,-2.9176,-2.929,-2.9478,-2.9428,-2.9151,-2.9151,-2.8002,-2.6082,-2.4083,-2.2595,-2.1429,0.0,0.0,0.0,0.0,-1.7354,-1.686,-1.6432,-1.6445,-1.6602,-1.6602,0.0,0.0,0.0,0.0,0.0,0.0,0.0,-1.6582,-1.6816,-1.7656,-1.834,-1.7876,-1.7584,-1.7383,-1.7148,-1.6309,-1.5303,-1.4473,-1.3724,-1.3081,-1.248,-1.2031,0.0,0.0,0.0,-1.373,-1.416,-1.4922,-1.541,-1.541,-1.541,-1.5381,-1.5313,-1.484,-1.4154,-1.3252,-1.2116,-1.0995,-0.9911,-0.9152,-0.8346,0.0,0.0,0.0,0.0,0.0,0.0,0.0,0.0,0.0,0.0,0.0,0.0,0.0,0.0,0.0,0.0,0.0,0.0,0.0,0.0,0.0,0.0,0.0,0.0,0.0,0.0,0.0,0.0,-1.6719,-1.8254,-1.8957,-1.9032,-1.9108,0.0,0.0,0.0,0.0,0.0,0.0,-2.1066,-2.2769,-2.4073,-2.4808,-2.6348,-2.7544,-2.8524,-2.9227,-2.998,-3.0809,-3.0809,-3.1009,-3.1386,-3.1386,-3.1185,-3.0809,-3.0683,-2.9934,-2.868,-2.6034,-2.4412,-2.3444,-2.1969,-2.1074,-2.0568,-2.0194,-1.9699,-1.9178,-1.8793,-1.873,-1.8809,-1.8691,-1.8279,-1.77,-1.7308,0.0,0.0,0.0,0.0,-1.7773,-1.8086,-1.873,-1.9199,-1.8851,-1.8555,-1.8242,-1.793,-1.7441,-1.6726,-1.5781,-1.5059,-1.4453,-1.3926,-1.3574,0.0,-1.3633,0.0,-1.4504,-1.4793,-1.5254,-1.5527,-1.543,-1.541,-1.541,-1.541,-1.5137,-1.4643,-1.3884,-1.2943,-1.2011,-1.1149,-1.0341,-0.9508,-0.87,0.0,0.0,0.0,0.0,0.0,0.0,0.0,0.0,0.0,0.0,0.0,0.0,0.0,0.0,0.0,0.0,0.0,0.0,0.0,0.0,0.0,0.0,0.0,0.0,0.0,0.0,0.0,0.0,0.0,-2.1192,-2.1317,0.0,0.0,0.0,0.0,-2.1995,-2.2594,-2.3396,-2.4474,-2.5134,-2.5963,-2.7128,-2.8222,-2.9101,-2.9704,-3.0733,-3.1286,-3.1361,-3.1361,-3.1361,-3.1386,-3.1386,-3.1386,-3.1311,-3.0834,-3.0463,-3.0025,-2.7645,-2.6097,-2.5084,-2.3849,-2.3099,-2.2678,-2.2024,-2.1556,-2.1197,-2.0661,-2.0723,-2.0956,-2.0566,-2.0212,-1.9796,-1.9041,-1.8701,0.0,0.0,-1.8362,-1.8539,-1.8559,-1.8945,-1.9277,-1.9258,-1.9238,-1.9219,-1.9199,-1.8535,-1.7559,-1.632,-1.6026,-1.5733,-1.4891,0.0,-1.4551,-1.4133,-1.4777,-1.5215,-1.4844,-1.5537,-1.5909,-1.5449,-1.541,-1.541,-1.541,-1.5391,-1.4982,-1.4038,-1.3627,-1.2854,-1.1522,-1.1172,-1.0436,-0.9183,-0.8795,0.0,0.0,0.0,0.0,0.0,0.0,0.0,0.0,0.0,0.0,0.0,0.0,0.0,0.0,0.0,0.0,0.0,0.0,0.0,0.0,0.0,0.0,0.0,0.0,0.0,0.0,0.0,0.0,-2.3427,-2.3627,0.0,-2.4381,-2.4079,-2.4004,-2.4381,-2.5285,-2.6138,-2.6892,-2.7795,-2.8649,-2.9402,-3.0131,-3.0783,-3.1336,-3.1738,-3.2114,-3.2466,-3.2466,-3.2466,-3.2466,-3.2466,-3.2265,-3.1913,-3.1712,-3.1395,-3.0938,-3.0114,-2.8538,-2.6562,-2.5378,-2.4511,-2.3841,-2.3179,-2.2587,-2.205,-2.1568,-2.1523,-2.1623,-2.1451,-2.1594,-2.1681,-2.0979,-2.0841,-2.0757,-1.9997,-1.9836,-1.9805,-1.9531,-1.9785,-2.0155,-2.0155,-1.9902,-1.9687,-1.9687,-1.9238,-1.8613,-1.7871,-1.7051,-1.6406,-1.6094,-1.6005,-1.5966,-1.581,-1.6044,-1.618,-1.6024,-1.6055,-1.6026,-1.587,-1.5586,-1.541,-1.541,-1.541,-1.5147,-1.4535,-1.4115,-1.3573,-1.2819,-1.2458,-1.1842,-1.0953,-1.0436,-0.9509,0.0,0.0,0.0,0.0,0.0,0.0,0.0,0.0,0.0,0.0,0.0,0.0,0.0,0.0,0.0,0.0,0.0,0.0,0.0,0.0,0.0,0.0,0.0,0.0,0.0,-2.1594,-2.3502,-2.5184,-2.5536,-2.5862,-2.6389,-2.6264,-2.6314,-2.6691,-2.7595,-2.8373,-2.8925,-2.9829,-3.0507,-3.0859,-3.1386,-3.1838,-3.2215,-3.2416,-3.2692,-3.3111,-3.3111,-3.3111,-3.3111,-3.3111,-3.2867,-3.2491,-3.229,-3.2014,-3.1662,-3.1461,-3.0332,-2.8545,-2.7286,-2.6308,-2.5466,-2.4317,-2.3577,-2.2997,-2.2473,-2.2227,-2.2134,-2.2188,-2.2592,-2.2882,-2.2473,-2.2425,-2.2342,-2.1555,-2.1192,-2.0918,-2.0469,-2.0566,-2.0762,-2.0644,-2.0352,-2.0137,-2.0137,-1.9805,-1.9414,-1.9085,-1.811,-1.7252,-1.696,-1.6953,-1.6863,-1.6726,-1.6824,-1.6863,-1.6726,-1.6602,-1.6418,-1.6124,-1.5831,-1.5566,-1.543,-1.541,-1.5176,-1.4609,-1.427,-1.386,-1.332,-1.3027,-1.2608,-1.1976,-1.1004,-0.9972,-0.891,0.0,0.0,0.0,0.0,0.0,0.0,0.0,0.0,0.0,0.0,0.0,0.0,0.0,0.0,0.0,0.0,0.0,0.0,0.0,0.0,0.0,0.0,0.0,-2.1546,-2.3904,-2.5837,-2.6499,-2.7052,-2.7544,-2.8122,-2.7695,-2.7846,-2.8888,-2.9528,-3.008,-3.0633,-3.1135,-3.1411,-3.1436,-3.1964,-3.224,-3.224,-3.2792,-3.3111,-3.3111,-3.3111,-3.3111,-3.3111,-3.3111,-3.3111,-3.3086,-3.2491,-3.224,-3.219,-3.1662,-3.1339,-3.1017,-2.9542,-2.8462,-2.7496,-2.5593,-2.4594,-2.4143,-2.3406,-2.2891,-2.2605,-2.3028,-2.3248,-2.3384,-2.3426,-2.3365,-2.3264,-2.29,-2.2389,-2.1797,-2.1327,-2.121,-2.1093,-2.0723,-2.0625,-2.0605,-2.0605,-2.0234,-1.9941,-1.9922,-1.9202,-1.8364,-1.7559,-1.7455,-1.7266,-1.6804,-1.7129,0.0,-1.6804,-1.7129,-1.7083,-1.6222,-1.6105,-1.5928,-1.5469,-1.541,-1.503,-1.4192,-1.4114,-1.3743,-1.2954,-1.2915,-1.2671,-1.2153,-1.0454,-0.9303,-0.8744,0.0,0.0,0.0,0.0,0.0,0.0,0.0,0.0,0.0,0.0,0.0,0.0,0.0,0.0,0.0,0.0,0.0,0.0,0.0,0.0,0.0,-2.2422,-2.3728,-2.3879,-2.4883,-2.6264,-2.8047,-2.8373,-2.885,-2.9829,-2.9779,-2.998,-3.0658,-3.0859,-3.1185,-3.1738,-3.1913,-3.219,-3.2634,-3.2767,-3.2842,-3.2842,-3.2993,-3.3111,-3.3111,-3.3111,-3.3111,-3.3111,-3.3111,-3.3111,-3.3111,-3.2918,-3.2842,-3.2817,-3.2667,-3.2616,-3.2389,-3.0643,-2.9571,-2.8765,-2.7409,-2.6086,-2.4918,-2.4699,-2.4306,-2.3982,-2.4088,-2.4282,-2.4388,-2.4072,-2.3967,-2.3801,-2.3096,-2.2597,-2.2246,-2.1816,-2.1465,-2.1171,-2.1074,-2.0801,-2.0605,-2.0605,-2.0507,-2.0293,-1.998,-1.9727,-1.926,-1.8403,-1.8047,-1.7793,-1.7642,-1.7754,-1.7793,-1.7676,-1.75,-1.7318,-1.7083,-1.6476,-1.6046,-1.5928,-1.5586,-1.5176,-1.4648,-1.4289,-1.386,-1.3359,-1.334,-1.3281,-1.312,-1.1868,-1.0829,0.0,0.0,0.0,0.0,0.0,0.0,0.0,0.0,0.0,0.0,0.0,0.0,0.0,0.0,0.0,0.0,0.0,0.0,0.0,0.0,0.0,0.0,-2.4707,-2.6013,-2.643,-2.6791,-2.7469,-2.8737,-2.9314,-2.9841,-3.0557,-3.0809,-3.116,-3.1687,-3.1738,-3.1989,-3.2541,-3.2566,-3.2742,-3.3111,-3.3111,-3.3111,-3.3111,-3.3111,-3.3111,-3.3111,-3.3111,-3.3111,-3.3111,-3.3111,-3.3111,-3.3111,-3.3111,-3.3111,-3.3111,-3.3111,-3.3111,-3.2993,0.0,0.0,0.0,0.0,-2.75,-2.641,-2.641,-2.6109,-2.5658,-2.5423,-2.5125,-2.4787,-2.4358,-2.395,-2.3631,-2.3153,-2.2859,-2.2676,-2.2266,-2.1836,-2.1465,-2.1229,-2.0898,-2.0605,-2.0605,-2.0605,-2.0527,-2.0234,-2.0039,0.0,-1.9221,-1.8637,-1.8188,-1.8047,-1.8008,-1.8008,-1.8008,-1.7793,-1.7578,-1.7435,-1.6966,-1.6496,-1.6124,-1.587,0.0,0.0,0.0,-1.4192,-1.3763,-1.3743,0.0,0.0,0.0,0.0,0.0,-1.1082,0.0,0.0,-0.8063,-0.7861,0.0,0.0,0.0,0.0,0.0,0.0,0.0,0.0,0.0,0.0,0.0,0.0,0.0,0.0,0.0,0.0,-2.6691,-2.7821,-2.8762,-2.8988,-2.9088,-2.9088,-2.9966,-3.0658,-3.0783,-3.121,-3.1712,-3.2265,-3.2315,-3.2541,-3.3043,-3.3111,0.0,0.0,0.0,-3.3111,-3.3111,-3.3111,-3.3111,-3.3111,-3.3111,-3.3111,-3.3111,-3.3111,-3.3111,-3.3111,-3.3111,-3.3111,-3.3111,-3.3111,-3.3111,-3.3018,-3.2474,-3.202,-3.1479,-2.9948,-2.8965,-2.8334,-2.8334,0.0,0.0,-2.6904,-2.5936,-2.4871,-2.438,-2.3691,-2.3101,-2.3101,-2.3101,-2.3003,-2.2676,-2.2266,-2.1855,-2.1366,-2.0977,-2.0664,-2.0625,-2.0605,-2.0605,-2.0605,-2.0254,-1.998,-1.9922,-1.9163,-1.8481,-1.8144,-1.8047,-1.8008,-1.8008,-1.8008,-1.7871,-1.7533,-1.7455,0.0,-1.632,-1.6202,-1.5831,-1.5009,-1.4844,-1.4609,-1.4192,-1.4133,-1.4153,-1.425,-1.3736,-1.3394,-1.3275,-1.2569,-1.2061,-1.1676,-1.0105,-0.9266,0.0,0.0,0.0,0.0,0.0,0.0,0.0,0.0,0.0,0.0,0.0,0.0,0.0,0.0,0.0,-2.6097,-2.7595,-2.8637,-2.8863,-2.9665,-3.0281,-3.0281,-3.0482,-3.0959,-3.1813,-3.1989,-3.229,-3.2867,-3.2918,-3.3011,-3.3111,-3.3111,-3.3111,-3.3111,-3.3111,-3.3111,-3.3111,-3.3111,-3.3111,-3.3111,-3.3111,0.0,-3.3111,-3.3111,-3.3111,-3.3111,-3.3111,-3.3111,-3.3111,-3.3111,-3.3111,-3.3068,-3.2728,-3.2333,-3.1874,-3.1316,-3.0568,-2.9779,-2.9779,-2.9495,-2.8897,-2.7846,-2.6816,-2.5808,-2.4763,-2.382,0.0,-2.3101,-2.3101,-2.3081,-2.2984,-2.2715,-2.2285,-2.1855,-2.1426,-2.1016,-2.0683,-2.0605,-2.0605,-2.0605,-2.0527,-2.0332,-1.998,-1.9163,-1.8578,-1.85,-1.8223,-1.8008,-1.8008,-1.8008,-1.7988,-1.7891,-1.7578,-1.7305,-1.7181,-1.6797,-1.6387,-1.587,-1.5204,-1.4746,-1.4668,-1.4289,-1.4426,-1.5128,-1.4718,-1.4651,-1.4954,-1.4876,-1.4643,-1.4141,-1.1959,-1.0995,0.0,0.0,0.0,0.0,0.0,0.0,0.0,0.0,0.0,0.0,0.0,-2.2071,-2.4029,0.0,-2.6414,-2.7519,-2.8624,-2.9453,-2.969,-3.0217,-3.0608,-3.0608,-3.1085,-3.1612,-3.2164,-3.2466,-3.2767,-3.3086,-3.3111,-3.3111,-3.3111,-3.3111,-3.3111,-3.3111,-3.3111,-3.3111,-3.3111,-3.3111,-3.3111,-3.3111,-3.3111,-3.3111,-3.3111,-3.3111,-3.3111,-3.3111,-3.3111,-3.3111,-3.3111,-3.3111,-3.3111,-3.3068,-3.2939,-3.2766,-3.2525,-3.2394,-3.2049,-3.1655,-3.1655,-3.129,-3.0694,-2.9626,-2.8163,-2.6624,-2.5551,-2.4199,-2.3101,-2.3101,-2.3101,-2.3101,-2.3101,-2.2789,-2.2402,-2.1992,-2.1562,-2.1073,-2.0703,-2.0605,-2.0605,-2.0605,-2.0605,-2.0527,-2.0273,-1.9707,-1.9085,-1.8676,-1.8422,-1.8208,-1.8047,-1.8008,-1.8008,-1.8008,-1.7812,-1.7617,-1.7435,-1.6973,-1.6609,-1.6406,-1.5996,-1.5762,-1.5762,-1.5517,-1.5615,-1.6044,-1.5829,-1.5859,-1.6044,-1.6042,-1.5826,-1.5412,-1.4329,-1.3514,0.0,0.0,0.0,0.0,0.0,0.0,0.0,0.0,-2.0512,-2.2422,-2.3371,-2.4481,-2.6323,-2.7203,-2.7921,-2.8925,-2.9578,-3.0131,-3.0683,-3.0758,-3.0809,-3.0909,-3.1687,-3.2265,-3.2365,-3.2792,-3.3111,-3.3111,-3.3111,-3.3111,-3.3111,-3.3111,-3.3111,-3.3111,-3.3111,-3.3111,-3.3111,-3.3111,-3.3111,-3.3111,-3.3111,-3.3111,-3.3111,-3.3111,-3.3111,-3.3111,-3.3111,-3.3111,-3.3111,-3.3111,-3.3111,-3.3111,-3.3111,-3.3111,-3.3111,-3.3111,-3.3111,-3.3068,-3.3025,-3.2682,-3.207,-3.1119,-2.9289,-2.7272,-2.6282,-2.4687,-2.3232,-2.3188,-2.3144,-2.3101,-2.3101,-2.2847,-2.2539,-2.2109,-2.168,-2.123,-2.0781,-2.0664,-2.0605,-2.0605,-2.0605,-2.0605,-2.0605,-2.0273,-1.9785,-1.8968,-1.8715,-1.8481,-1.8184,-1.8066,-1.8008,-1.8008,-1.8008,-1.7871,-1.7539,-1.7187,-1.6921,-1.6824,-1.6824,-1.6785,-1.6707,-1.6707,-1.6746,-1.6824,-1.6824,-1.6863,-1.6941,-1.6844,-1.6651,-1.6373,-1.6547,-1.5909,-1.8304,-1.9158,-2.0566,-2.1594,-2.1845,-2.1967,0.0,0.0,-2.3653,-2.4349,-2.5762,-2.6892,-2.7178,-2.8047,-2.895,-2.9603,-3.0156,-3.0708,-3.1235,-3.1311,-3.1486,-3.1964,-3.2139,-3.2416,-3.2943,-3.3043,-3.3111,-3.3111,-3.3111,-3.3111,-3.3111,-3.3111,-3.3111,-3.3111,-3.3111,-3.3111,-3.3111,-3.3111,-3.3111,-3.3111,-3.3111,-3.3111,-3.3111,-3.3111,-3.3111,-3.3111,-3.3111,-3.3111,-3.3111,-3.3111,-3.3111,-3.3111,-3.3111,-3.3111,-3.3111,-3.3111,-3.3111,-3.3068,-3.2853,-3.2587,-3.216,-3.0937,-2.9416,-2.7784,-2.6606,-2.5098,-2.3667,-2.3493,-2.3276,-2.3101,-2.3101,-2.3062,-2.2925,-2.2539,-2.2109,-2.1699,-2.121,-2.084,-2.0605,-2.0605,-2.0605,-2.0605,-2.0605,-2.0566,-2.037,-1.9844,-1.9085,-1.8578,-1.8539,-1.8208,-1.8008,-1.8008,-1.8008,-1.7988,-1.7949,-1.7891,-1.7715,-1.7344,-1.7305,-1.7129,-1.6726,-1.6707,-1.6882,-1.7305,-1.7305,-1.75,-1.7871,-1.7837,-1.7803,-1.7803,-1.7809,-1.7022,-2.0715,-2.1343,-2.2372,0.0,-2.4004,-2.4381,-2.4933,-2.5259,-2.572,-2.6565,-2.7544,-2.8348,-2.8674,-2.9126,-2.9628,0.0,-3.0457,-3.0809,-3.1311,-3.1386,-3.1461,-3.1712,-3.1738,-3.2089,-3.2993,-3.3111,-3.3111,-3.3111,-3.3111,-3.3111,-3.3111,-3.3111,-3.3111,-3.3111,-3.3111,-3.3111,-3.3111,-3.3111,-3.3111,-3.3111,-3.3111,-3.3111,-3.3111,-3.3111,-3.3111,-3.3111,-3.3111,-3.3111,-3.3111,-3.3111,-3.3111,-3.3111,-3.3111,-3.3111,-3.3111,-3.3111,-3.3111,-3.3025,-3.2636,-3.2176,-3.1601,-3.0811,-2.9364,-2.783,-2.7108,-2.5721,-2.4317,-2.3993,-2.3537,-2.3101,-2.3101,-2.3101,-2.2984,-2.2617,-2.2187,-2.1758,-2.1288,-2.0879,-2.0605,-2.0605,-2.0605,-2.0605,-2.0605,-2.0605,-2.0546,-2.0332,-1.9766,-1.9163,-1.8676,-1.8442,-1.8247,-1.8047,-1.8008,-1.8008,-1.8008,-1.8008,-1.793,-1.7754,-1.7754,-1.7656,-1.7447,-1.7447,-1.7559,-1.7734,-1.7754,-1.7832,-1.8008,-1.8008,-1.8008,-1.8008,-1.8008,-1.7808,-2.2468,0.0,0.0,-2.5034,-2.5787,-2.6389,-2.6851,-2.7077,-2.7369,-2.8172,-2.8775,-2.9302,-2.9704,-2.9804,-2.998,-3.0532,-3.0733,-3.1009,-3.1537,-3.1486,-3.1436,-3.1587,-3.1361,-3.1612,-3.2742,-3.2842,-3.2893,-3.3111,-3.3111,-3.3111,-3.3111,-3.3111,-3.3111,-3.3111,-3.3111,-3.3111,-3.3111,-3.3111,-3.3111,-3.3111,-3.3111,-3.3111,-3.3111,-3.3111,-3.3111,-3.3111,-3.3111,-3.3111,-3.3111,-3.3111,-3.3111,-3.3111,-3.3111,-3.3111,-3.3111,-3.3111,-3.3111,-3.3025,-3.2574,-3.1869,-3.1158,-3.0758,-2.9507,-2.8009,-2.7436,-2.6172,-2.489,-2.4272,-2.3604,-2.3101,-2.3101,-2.3101,-2.3023,-2.2711,-2.2363,-2.1934,-2.1504,-2.1074,-2.0723,-2.0625,-2.0605,-2.0605,-2.0605,-2.0605,-2.0605,-2.0605,-2.0293,-1.9824,-1.9046,-1.8754,-1.8442,-1.8047,-1.8008,-1.8008,-1.8008,-1.8008,-1.8008,-1.8008,-1.8008,-1.8008,-1.8008,-1.8008,-1.8008,-1.8008,-1.8008,-1.8008,-1.8008,-1.8008,-1.8008,-1.8008,-1.8091,-1.8305,0.0,0.0,-2.5661,-2.6298,-2.7218,-2.8021,-2.8047,-2.8473,-2.8838,-2.8863,-2.9352,-2.9779,-2.9804,-2.9804,-2.998,-3.0532,-3.1035,-3.1562,-3.2114,-3.1738,-3.1587,-3.2114,-3.126,-3.106,0.0,-3.224,-3.2466,-3.3086,-3.3111,-3.3111,-3.3111,-3.3111,-3.3111,-3.3111,-3.3111,-3.3111,-3.3111,-3.3111,-3.3111,-3.3111,-3.3111,-3.3111,-3.3111,-3.3111,-3.3111,-3.3111,-3.3111,-3.3111,-3.3111,-3.3111,-3.3111,-3.3111,-3.3111,-3.3111,-3.3111,-3.3111,-3.3111,-3.3025,-3.2574,-3.1937,-3.1205,-3.0758,-2.9782,-2.8522,-2.7368,-2.6341,-2.533,-2.4115,-2.3493,-2.3101,-2.3101,-2.3101,-2.3081,-2.3081,-2.275,-2.2383,-2.1953,-2.1523,-2.1094,-2.0683,-2.0605,-2.0605,-2.0605,-2.0605,-2.0605,-2.0605,-2.0586,-2.0391,-1.9941,-1.9104,-1.8442,-1.8047,-1.8008,-1.8008,-1.8008,-1.8008,-1.8008,-1.8008,-1.8008,-1.8008,-1.8008,-1.8008,-1.8008,-1.8008,-1.8008,-1.8008,-1.8008,-1.8008,-1.8008,-1.8027,-1.8383,-1.8598,-2.3973,0.0,-2.6424,-2.7318,-2.8097,-2.875,-2.9151,-2.9377,-2.9503,-2.9503,-2.9352,-2.9189,-2.9189,-2.9189,-2.9402,-2.998,-3.0809,-3.1461,-3.1637,-3.1813,-3.1863,-3.1687,-3.1035,0.0,0.0,0.0,0.0,-3.3043,-3.3111,-3.3287,-3.3596,-3.3621,-3.3796,-3.4148,-3.3822,-3.3621,-3.3621,-3.3269,-3.3269,-3.3621,-3.3997,-3.4173,-3.4173,-3.4173,-3.4173,-3.4173,-3.4173,-3.3947,-3.3621,-3.3621,-3.3395,-3.3111,-3.3111,-3.3111,-3.3068,-3.2896,-3.2766,-3.2618,-3.2444,-3.1869,-3.1158,-3.0758,-2.9714,-2.8545,-2.7874,-2.6642,-2.5305,-2.4655,-2.3799,-2.3101,-2.3101,-2.3101,-2.3101,-2.3101,-2.2769,-2.2402,-2.1973,-2.1543,-2.1054,-2.0703,-2.0605,-2.0605,-2.0605,-2.0605,-2.0605,-2.0605,-2.0312,-2.0078,-1.9941,-1.9414,-1.9004,-1.8867,-1.8594,-1.8383,-1.8383,-1.813,-1.8008,-1.8008,-1.8008,-1.8008,-1.8008,-1.8008,-1.8008,-1.8008,-1.8008,-1.8008,-1.8008,-1.8008,-1.8144,-1.8403,-1.8539,-1.8909,-2.5159,-2.6364,-2.7519,-2.8222,-2.8825,-2.9327,-2.9704,-2.9628,-2.9478,-2.9478,-2.8875,-2.8398,-2.8562,-2.8587,-2.8825,-2.9377,-3.0557,-3.1386,-3.1386,-3.1863,-3.2089,-3.1738,-3.121,-3.1235,0.0,0.0,0.0,-3.3043,-3.3111,-3.3319,-3.3872,-3.3897,-3.4148,-3.4655,-3.4198,-3.3897,-3.3897,-3.3345,-3.3345,-3.3897,-3.4449,-3.468,-3.468,-3.468,-3.468,-3.468,-3.468,-3.4399,-3.3897,-3.3897,-3.3571,-3.3111,-3.3111,-3.3111,-3.3068,-3.2723,-3.2332,-3.2001,-3.2113,-3.1649,-3.089,-3.0374,-2.9512,-2.8473,-2.7705,-2.6644,-2.554,-2.4763,-2.3974,-2.3296,-2.314,-2.3101,-2.3101,-2.3101,-2.2886,-2.2617,-2.2207,-2.1777,-2.1328,-2.0898,-2.0723,-2.0605,-2.0605,-2.0605,-2.0605,-2.0605,-2.0332,-2.0098,-1.9941,-1.9687,-1.9453,-1.9297,-1.9043,-1.8773,-1.8617,-1.8364,-1.813,-1.8027,-1.8008,-1.8008,-1.8008,-1.8008,-1.8008,-1.8008,-1.8008,-1.8008,-1.8008,-1.813,-1.8344,-1.8617,-1.8909,-1.9358,-2.6424,-2.7745,-2.8938,-2.8938,-2.9377,-2.9779,-2.9754,-2.9302,-2.8838,-2.8813,-2.7946,-2.7318,0.0,0.0,-2.8172,-2.8712,-3.0231,-3.1336,-3.1386,-3.1863,-3.2215,0.0,0.0,0.0,0.0,0.0,0.0,-3.3043,-3.3111,-3.3345,-3.3897,-3.3947,-3.4198,-3.4801,-3.4274,-3.3972,-3.3972,-3.347,-3.347,-3.3997,-3.455,-3.4801,-3.4801,-3.4801,-3.4801,-3.4801,-3.4801,-3.45,-3.3972,-3.3972,-3.3646,-3.3162,-3.3162,-3.3093,-3.3025,-3.2574,-3.1845,-3.1178,-3.1516,-3.1116,-3.0442,-2.9715,-2.9095,-2.8405,-2.7049,-2.6393,-2.5863,-2.4496,-2.3988,-2.3691,-2.3198,-2.3101,-2.3101,-2.3101,-2.3101,-2.2984,-2.2598,-2.2207,-2.1797,-2.1307,-2.0898,-2.0625,-2.0605,-2.0605,-2.0605,-2.0605,-2.0605,-2.0449,-2.0,-1.9941,-1.9805,-1.9394,-1.9336,-1.916,-1.8695,-1.8656,-1.8461,-1.8105,-1.8066,-1.8066,-1.8066,-1.8047,-1.8047,-1.8047,-1.8027,-1.8027,-1.8047,-1.8403,-1.8617,-1.8695,-1.9494,-1.9922,-2.7419,-2.8599,-2.9578,-2.9578,-2.9679,-2.9679,-2.9252,-2.8725,-2.8197,-2.7795,-2.6515,-2.5611,0.0,0.0,0.0,-2.7544,-2.9101,0.0,-3.1286,-3.1863,0.0,-3.2817,0.0,-3.224,-3.2792,-3.2466,0.0,-3.3043,-3.3111,-3.3495,-3.4449,-3.4525,-3.4951,-3.5952,-3.5403,-3.5082,-3.5082,-3.4931,-3.4931,-3.5082,-3.568,-3.5956,-3.5956,-3.5956,-3.5956,-3.5956,-3.5956,-3.5629,-3.5082,-3.5082,-3.455,-3.3696,-3.3696,-3.3445,-3.3025,-3.2351,-3.1512,-3.0643,-3.0193,-2.992,-2.9601,-2.905,-2.8423,-2.7767,-2.7049,-2.6168,-2.5224,-2.4533,-2.4069,-2.3691,-2.3198,-2.3101,-2.3101,-2.3101,-2.3101,-2.2984,-2.2598,-2.2422,-2.2227,-2.1797,-2.1367,-2.0957,-2.0664,-2.0605,-2.0605,-2.0605,-2.0605,-2.0566,-2.0449,-2.0429,-2.039,-2.0292,-1.9941,-1.9707,-1.9572,-1.9297,-1.9082,-1.8965,-1.8965,-1.8965,-1.8965,-1.8617,-1.8442,-1.8442,-1.813,-1.8164,-1.8442,-1.8559,-1.8929,-1.9553,-1.9805,-2.0078,-2.8298,-2.9302,-3.0105,-2.9854,-2.9603,-2.9277,-2.8699,-2.777,-2.6841,-2.6314,-2.4883,0.0,-2.4757,0.0,0.0,0.0,0.0,0.0,-3.0934,-3.1712,-3.2416,0.0,-3.2792,0.0,-3.3086,-3.2792,-3.2817,0.0,-3.3219,-3.3571,-3.463,-3.468,-3.5228,-3.638,-3.583,-3.5382,-3.5132,-3.5382,-3.5508,-3.5508,-3.6107,-3.6405,-3.6405,-3.6405,-3.6405,-3.6405,-3.6405,-3.6056,-3.5508,-3.5508,-3.4856,-3.3897,-3.3897,-3.3571,-3.2982,-3.2176,-3.1069,-2.992,-2.9141,-2.8398,-2.7814,-2.8002,-2.7673,-2.722,-2.6716,-2.598,-2.5273,-2.4824,-2.4394,-2.3965,-2.3535,-2.3237,-2.3101,-2.3101,-2.3101,-2.3042,-2.2789,-2.2594,-2.2383,-2.1973,-2.1523,-2.1112,-2.0898,-2.0742,-2.0605,-2.0605,-2.0605,-2.0605,-2.0605,-2.0605,-2.0605,-2.0605,-2.0352,-2.0117,-1.9941,-1.9687,-1.9473,-1.9297,-1.9297,-1.9297,-1.9297,-1.9043,-1.8792,-1.8598,-1.8594,-1.8594,-1.8598,-1.8968,-1.9397,-1.9922,-2.0117,-2.037,-2.9013,-2.9765,-3.0482,-2.993,-2.9352,-2.8712,-2.8047,-2.659,-2.5184,-2.4506,0.0,-2.2221,-2.3351,-2.4004,-2.4782,-2.6072,0.0,-2.9704,-3.0407,-3.1436,-3.2315,-3.2893,-3.3043,-3.3136,-3.3212,-3.3237,-3.342,-3.3972,-3.3571,-3.3746,-3.4731,-3.4826,-3.5303,-3.638,-3.5906,-3.5382,-3.4951,-3.5382,-3.5608,-3.5608,-3.6132,-3.6405,-3.6405,-3.6405,-3.6405,-3.6405,-3.6405,-3.6081,-3.5608,-3.5608,-3.5006,-3.4123,-3.4123,-3.3746,-3.3082,-3.2167,-3.0781,-2.928,-2.8351,-2.7003,-2.582,-2.6716,-2.6907,-2.6668,-2.6187,-2.5868,-2.5644,-2.5195,-2.4746,-2.4316,-2.3906,-2.3457,-2.3101,-2.3101,-2.3101,-2.3101,-2.3101,-2.2808,-2.248,-2.2051,-2.166,-2.1327,-2.121,-2.0918,-2.0664,-2.0625,-2.0605,-2.0605,-2.0605,-2.0605,-2.0605,-2.0605,-2.0605,-2.0449,-2.0039,-2.0,-1.9844,-1.9473,-1.9453,-1.9453,-1.9453,-1.9394,-1.9199,-1.8773,-1.9121,-1.9121,-1.8773,-1.9514,-1.9941,-2.0,-2.0429,-2.0605,-2.9654,-3.0105,-3.0482,-2.993,-2.9352,-2.8549,-2.7102,-2.5493,0.0,0.0,-2.074,-1.991,-2.1069,-2.1722,-2.2723,-2.4782,0.0,0.0,0.0,0.0,-3.1738,0.0,0.0,0.0,0.0,0.0,0.0,0.0,-3.45,-3.468,-3.5332,-3.5357,-3.5705,-3.638,-3.6329,-3.6229,-3.6128,-3.6229,-3.6254,-3.6279,-3.6355,-3.6405,-3.6405,-3.6405,-3.6405,-3.6405,-3.6405,-3.6355,-3.6254,-3.6254,-3.583,-3.5207,-3.5207,-3.465,-3.3658,-3.2727,-3.1085,-2.928,-2.8351,-2.7003,-2.5742,-2.5917,-2.5917,-2.5868,-2.5771,-2.5742,-2.5644,-2.5195,-2.4746,-2.4316,-2.3906,-2.3457,-2.3101,-2.3101,-2.3101,-2.3101,-2.3101,-2.3042,-2.2867,-2.248,-2.2344,-2.207,-2.1307,-2.1132,-2.0996,-2.0664,-2.0605,-2.0605,-2.0605,-2.0605,-2.0605,-2.0605,-2.0605,-2.0566,-2.0507,-2.0488,-2.0449,-2.039,-2.039,-2.039,-2.039,-2.0,-1.9766,-1.9687,-1.9434,-1.9414,-1.965,-1.9844,-2.0098,-2.0488,-2.0566,-2.0605,-2.9955,-3.0407,-3.0758,-2.9628,-2.8888,-2.7996,-2.6038,0.0,0.0,0.0,-1.9535,-1.8857,-1.966,0.0,0.0,0.0,0.0,0.0,0.0,0.0,0.0,0.0,0.0,0.0,0.0,0.0,-3.4248,-3.5031,-3.5107,-3.5232,-3.5483,-3.5805,-3.6081,-3.6405,-3.6405,-3.6405,-3.6405,-3.6405,-3.6405,-3.6405,-3.6405,-3.6405,-3.6405,-3.6405,-3.6207,-3.5956,-3.6279,-3.6207,-3.5956,-3.6279,-3.6031,-3.5508,-3.5508,-3.4831,-3.3809,-3.2873,-3.1155,-2.928,-2.8351,-2.7003,-2.5693,-2.5693,-2.5693,-2.5693,-2.5693,-2.5693,-2.5635,-2.5469,-2.5098,-2.4648,-2.4219,-2.3809,-2.3418,-2.314,-2.3101,-2.3101,-2.3101,-2.3101,-2.3042,-2.2828,-2.2656,-2.2383,-2.1931,-2.1719,-2.1504,-2.1329,-2.1055,-2.0918,-2.0918,-2.0742,-2.0605,-2.0605,-2.0605,-2.0605,-2.0605,-2.0605,-2.0605,-2.0605,-2.0605,-2.0605,-2.0605,-2.0371,-2.0137,-1.9922,-1.9941,-1.9941,-1.9922,-2.0137,-2.039,-2.0605,-2.0605,-2.0605,-3.0055,-3.0507,-3.0859,-2.9264,-2.8423,-2.7344,-2.5134,-2.3251,0.0,0.0,-1.8606,-1.798,-1.8556,0.0,-2.0566,0.0,0.0,0.0,0.0,0.0,0.0,0.0,0.0,0.0,0.0,-3.4073,0.0,-3.5583,-3.5683,-3.5683,-3.5683,-3.6132,-3.6405,-3.6405,-3.6405,-3.6405,-3.6405,-3.6405,-3.6405,-3.6405,-3.6405,-3.6405,-3.6405,-3.6405,-3.6056,-3.5533,-3.6132,-3.6056,-3.5533,-3.6132,-3.6107,-3.5683,-3.5637,-3.4915,-3.3806,-3.2793,-3.1065,-2.9096,-2.8164,-2.6907,-2.5693,-2.5693,-2.5693,-2.5693,-2.5693,-2.5693,-2.5693,-2.5693,-2.541,-2.5047,-2.4648,-2.418,-2.3672,-2.3198,-2.3101,-2.3101,-2.3101,-2.3101,-2.3101,-2.3101,-2.2828,-2.2617,-2.2519,-2.2246,-2.1992,-2.1894,-2.1602,-2.1307,-2.121,-2.0918,-2.0703,-2.0625,-2.0605,-2.0605,-2.0605,-2.0605,-2.0605,-2.0605,-2.0605,-2.0605,-2.0605,-2.0605,-2.0449,-2.0059,-2.0429,-2.0429,-2.0059,-2.0429,-2.0605,-2.0605,-2.0605,-2.0605,-2.9955,-3.0231,-3.0407,-2.9189,-2.8147,-2.6791,-2.4582,0.0,0.0,-1.8681,-1.7451,-1.6848,-1.7448,-1.8028,-1.8957,0.0,0.0,-2.4732,0.0,0.0,0.0,0.0,0.0,0.0,0.0,-3.465,-3.5102,-3.6254,-3.6329,-3.6329,-3.6329,-3.638,-3.6405,-3.6405,-3.6405,-3.6405,-3.6405,-3.6405,-3.6405,-3.6405,-3.6405,-3.6405,-3.6405,-3.6405,-3.6056,-3.5533,-3.6132,-3.6056,-3.5533,-3.6132,-3.638,-3.6282,-3.6023,-3.5164,-3.3829,-3.2675,-3.0763,-2.8634,-2.7647,-2.6572,-2.5693,-2.5693,-2.5693,-2.5693,-2.5693,-2.5693,-2.5693,-2.5693,-2.541,-2.5106,-2.5067,-2.4394,-2.3672,-2.3198,-2.3101,-2.3101,-2.3101,-2.3101,-2.3101,-2.3101,-2.3062,-2.2925,-2.2578,-2.248,-2.2324,-2.1934,-2.1855,-2.168,-2.1249,-2.1171,-2.1016,-2.0644,-2.0605,-2.0605,-2.0605,-2.0605,-2.0605,-2.0605,-2.0605,-2.0605,-2.0605,-2.0605,-2.0586,-2.0546,-2.0586,-2.0586,-2.0546,-2.0586,-2.0605,-2.0605,-2.0605,-2.0605,-2.9428,-2.993,-3.0256,-2.88,-2.7846,-2.6615,-2.4054,0.0,-2.0214,-1.8555,-1.7277,-1.6575,-1.6823,-1.7325,-1.8154,-1.9459,-2.1267,-2.3175,-2.5184,0.0,0.0,0.0,0.0,0.0,0.0,0.0,-3.4826,-3.6304,-3.6405,-3.6405,-3.6405,-3.6405,-3.6207,-3.5881,-3.6182,-3.6207,-3.5881,-3.6207,-3.6405,-3.6405,-3.6405,-3.6182,-3.5881,-3.5881,-3.5378,-3.46,-3.5479,-3.5554,-3.5082,-3.6006,-3.6182,-3.5834,-3.5434,-3.4301,-3.2731,-3.167,-2.9883,-2.7955,-2.7268,-2.6448,-2.5693,-2.5693,-2.5693,-2.5693,-2.5693,-2.5693,-2.5693,-2.5693,-2.5557,-2.541,-2.5137,-2.4434,-2.3672,-2.3198,-2.3101,-2.3101,-2.3101,-2.3101,-2.3101,-2.3101,-2.3101,-2.3042,-2.2867,-2.2847,-2.2789,-2.2676,-2.2422,-2.2207,-2.2031,-2.1777,-2.1465,-2.1016,-2.0723,-2.0605,-2.0605,-2.0605,-2.0605,-2.0605,-2.0605,-2.0605,-2.0605,-2.0605,-2.0605,-2.0605,-2.0605,-2.0605,-2.0605,-2.0605,-2.0605,-2.0605,-2.0605,-2.0605,-2.8913,-2.9628,-3.0005,-2.8473,-2.757,-2.6364,0.0,-2.1719,-2.0013,-1.8505,-1.7277,-1.65,-1.65,-1.6848,-1.7476,-1.8581,-2.0037,-2.1769,-2.3973,0.0,0.0,0.0,0.0,-3.1587,0.0,-3.3771,-3.4926,-3.6304,-3.6405,-3.6329,-3.6132,-3.6107,-3.5956,-3.5508,-3.6081,-3.6107,-3.5508,-3.6081,-3.6405,-3.6405,-3.6405,-3.6081,-3.5508,-3.5508,-3.4906,-3.3972,-3.4986,-3.5044,-3.4574,-3.5625,-3.5655,-3.5018,-3.4478,-3.3192,-3.1528,-3.0461,-2.8929,-2.7315,-2.686,-2.6255,-2.5693,-2.5693,-2.5693,-2.5693,-2.5693,-2.5693,-2.5693,-2.5693,-2.5693,-2.5605,-2.5019,-2.4434,-2.3828,-2.3237,-2.3101,-2.3101,-2.3101,-2.3101,-2.3101,-2.3101,-2.3101,-2.3101,-2.3101,-2.3101,-2.3101,-2.3101,-2.2847,-2.2613,-2.2539,-2.2246,-2.1855,-2.1249,-2.0957,-2.0742,-2.0625,-2.0605,-2.0605,-2.0605,-2.0605,-2.0605,-2.0605,-2.0605,-2.0605,-2.0605,-2.0605,-2.0605,-2.0605,-2.0605,-2.0664,-2.0762,-2.0762,-2.084,-2.8587,-2.9352,-2.9528,-2.8398,-2.7293,-2.5921,0.0,-2.139,-1.951,-1.843,-1.7277,-1.65,-1.65,-1.65,-1.6876,-1.8028,-1.9108,-2.0589,-2.2819,0.0,0.0,0.0,0.0,-3.1035,-3.2114,-3.4179,-3.5755,-3.6355,-3.6405,-3.6132,-3.5533,-3.5508,-3.5508,-3.5508,-3.6081,-3.6107,-3.5508,-3.6081,-3.6405,-3.6405,-3.6405,-3.6081,-3.5508,-3.5508,-3.4906,-3.3972,-3.4803,-3.4721,-3.3955,-3.4868,-3.4799,-3.403,-3.3217,-3.1966,-3.0461,-2.9254,-2.7998,-2.6812,-2.6284,-2.5917,-2.5693,-2.5693,-2.5693,-2.5693,-2.5693,-2.5693,-2.5693,-2.5693,-2.5693,-2.5479,-2.4648,-2.4414,-2.4199,-2.3296,-2.3101,-2.3101,-2.3101,-2.3101,-2.3101,-2.3101,-2.3101,-2.3101,-2.3101,-2.3101,-2.3101,-2.3101,-2.3081,-2.2945,-2.2559,-2.25,-2.2187,-2.1288,-2.119,-2.1055,-2.0644,-2.0605,-2.0605,-2.0605,-2.0605,-2.0605,-2.0605,-2.0605,-2.0605,-2.0605,-2.0605,-2.0605,-2.0605,-2.0605,-2.0801,-2.119,-2.119,-2.1465,-2.6465,-2.7067,-2.7379,-2.6565,-2.5586,-2.428,-2.2422,-2.0589,-1.8933,-1.7877,-1.7049,-1.65,-1.65,-1.65,-1.6876,-1.8028,-1.9108,-2.0589,0.0,0.0,0.0,0.0,-2.9905,-3.1738,0.0,-3.4349,-3.5378,-3.6329,-3.6405,-3.6132,-3.5533,-3.5508,-3.5157,-3.4449,-3.4951,-3.4977,-3.4424,-3.4977,-3.5253,-3.5253,-3.5253,-3.4951,-3.4424,-3.4424,-3.4022,-3.337,-3.3697,-3.3374,-3.2661,-3.303,-3.2464,-3.1387,-3.0819,-2.9752,-2.8451,-2.7783,-2.6886,-2.6062,-2.5868,-2.5791,-2.5693,-2.5693,-2.5693,-2.5693,-2.5693,-2.5693,-2.5693,-2.5693,-2.5693,-2.5479,-2.4648,-2.4414,-2.4199,-2.3296,-2.3101,-2.3101,-2.3101,-2.3101,-2.3101,-2.3101,-2.3101,-2.3101,-2.3101,-2.3101,-2.3101,-2.3101,-2.3101,-2.3042,-2.2906,-2.2906,-2.2691,-2.2168,-2.2109,-2.168,-2.0683,-2.0605,-2.0605,-2.0605,-2.0605,-2.0605,-2.0605,-2.0605,-2.0605,-2.0605,-2.0605,-2.0605,-2.0605,-2.0879,-2.125,-2.168,-2.168,-2.1914,0.0,-2.541,-2.5711,-2.5134,-2.418,-2.2975,-2.1546,-1.9911,-1.8455,-1.7599,-1.6923,-1.65,-1.65,-1.65,-1.6876,-1.8028,-1.8932,-2.0262,0.0,0.0,0.0,0.0,0.0,0.0,0.0,-3.46,-3.5403,-3.6329,-3.6405,-3.6031,-3.5232,-3.5182,-3.4726,-3.3621,-3.4324,-3.4449,-3.3897,-3.4449,-3.468,-3.468,-3.468,-3.4424,-3.3897,-3.3897,-3.3596,-3.3119,-3.3074,-3.2554,0.0,-3.1738,-3.0891,-2.9591,-2.9115,-2.8264,-2.7268,-2.6764,-2.6207,-2.5693,-2.5693,-2.5693,-2.5693,-2.5693,-2.5693,-2.5693,-2.5693,-2.5693,-2.5693,-2.5693,-2.5693,-2.5479,-2.4648,-2.4414,-2.4199,-2.3296,-2.3101,-2.3101,-2.3101,-2.3101,-2.3101,-2.3101,-2.3101,-2.3101,-2.3101,-2.3101,-2.3101,-2.3101,-2.3101,-2.3101,-2.3101,-2.3101,-2.2945,-2.2559,-2.2519,-2.2109,-2.1192,-2.0918,-2.082,-2.082,-2.0703,-2.0683,-2.082,-2.082,-2.0898,-2.1094,-2.1114,-2.1114,-2.1114,-2.1504,-2.1855,-2.2129,-2.2285,-2.25,0.0,-2.4104,-2.4456,-2.3954,-2.2975,-2.1845,-2.0817,-1.9334,0.0,-1.7448,-1.6898,-1.65,-1.655,-1.655,-1.6948,-1.8129,-1.8782,-1.9936,0.0,0.0,0.0,0.0,-3.1637,0.0,-3.3847,-3.4881,-3.578,-3.6355,-3.638,-3.583,-3.4776,-3.4675,-3.4173,-3.3119,-3.4073,-3.4349,-3.3847,-3.4349,-3.46,-3.46,-3.46,-3.4349,-3.3847,-3.3847,-3.3571,-3.3119,-3.2828,-3.2098,-3.1136,-3.0914,-2.9869,-2.8422,-2.8008,-2.7421,-2.6764,-2.6235,-2.5917,-2.5693,-2.5693,-2.5693,-2.5693,-2.5693,-2.5693,-2.5693,-2.5693,-2.5693,-2.5693,-2.5693,-2.5693,-2.5499,-2.4687,-2.4473,-2.4258,-2.3374,-2.3179,-2.3179,-2.314,-2.314,-2.314,-2.3101,-2.3101,-2.3101,-2.3101,-2.3101,-2.3101,-2.3101,-2.3101,-2.3101,-2.3101,-2.3101,-2.2945,-2.2598,-2.2559,-2.2402,-2.2012,-2.1543,-2.1249,-2.1249,-2.0898,-2.084,-2.1229,-2.1249,-2.1424,-2.1875,-2.1894,-2.1894,-2.1934,-2.2324,-2.2519,-2.2559,-2.2906,-2.3101,-1.976,0.0,-2.2246,-2.2121,-2.1217,-2.0213,0.0,-1.8455,-1.74,-1.6848,0.0,-1.6626,-1.7099,-1.7197,-1.7677,-1.9183,-2.0263,-2.1694,-2.3898,0.0,0.0,-3.1587,-3.2441,-3.3319,-3.4424,-3.5107,-3.578,-3.6355,-3.5981,-3.5408,-3.4751,-3.4324,-3.3771,-3.3093,-3.3319,-3.3395,-3.3269,-3.3395,-3.347,-3.347,-3.347,-3.3395,-3.3269,-3.3269,-3.3194,-3.305,-3.2279,-3.1192,-2.9782,-2.9008,-2.7825,-2.6395,-2.6269,-2.6161,-2.5965,-2.582,-2.5742,-2.5693,-2.5693,-2.5693,-2.5693,-2.5693,-2.5693,-2.5693,-2.5693,-2.5693,-2.5693,-2.5693,-2.5693,-2.5557,-2.5059,-2.4969,-2.4785,-2.4238,-2.4075,-2.4023,-2.3711,-2.3633,-2.3535,-2.3159,-2.3101,-2.3101,-2.3101,-2.3101,-2.3101,-2.3101,-2.3101,-2.3101,-2.3101,-2.3101,-2.3062,-2.2964,-2.2945,-2.2906,-2.2808,-2.2168,-2.1738,-2.1738,-2.1641,-2.1621,-2.1719,-2.1738,-2.1777,-2.1894,-2.1894,-2.2051,-2.2363,-2.2461,-2.2676,-2.2945,-2.3042,-2.3101,-1.843,-1.966,-2.0715,-2.0715,-2.0087,-1.9284,-1.8757,0.0,0.0,0.0,0.0,-1.6697,-1.7297,-1.7599,-1.8304,-1.9962,-2.1142,0.0,0.0,0.0,-3.0783,-3.2416,-3.3119,-3.3696,-3.4299,-3.4806,-3.5257,-3.5579,-3.5328,-3.4881,-3.4374,-3.4073,-3.3646,-3.3136,-3.3111,-3.3111,-3.3111,-3.3111,-3.3111,-3.3111,-3.3111,-3.3111,-3.3111,-3.3111,-3.3111,-3.3025,-3.2113,-3.0824,-2.9326,-2.8398,-2.7098,-2.5693,-2.5693,-2.5693,-2.5693,-2.5693,-2.5693,-2.5693,-2.5693,-2.5693,-2.5693,-2.5693,-2.5693,-2.5693,-2.5693,-2.5693,-2.5693,-2.5693,-2.5693,-2.5625,-2.5176,-2.5106,-2.5008,-2.4531,-2.4414,-2.4297,-2.3887,-2.3789,-2.3652,-2.3179,-2.3101,-2.3101,-2.3101,-2.3101,-2.3101,-2.3101,-2.3101,-2.3101,-2.3101,-2.3101,-2.3101,-2.3101,-2.3101,-2.3101,-2.3101,-2.2672,-2.2383,-2.2187,-2.1992,-2.1973,-2.2168,-2.2168,-2.2266,-2.2461,-2.2461,-2.2578,-2.2793,-2.2793,-2.2867,-2.3101,-2.3101,-2.3101,-1.8028,-1.9058,-1.9936,-1.9936,-1.9535,-1.9008,-1.8555,0.0,0.0,0.0,0.0,0.0,0.0,-1.8204,0.0,0.0,0.0,0.0,-2.8562,-3.008,-3.1311,-3.2893,-3.3571,-3.3897,-3.3897,-3.4399,-3.468,-3.468,-3.4605,-3.4399,-3.3922,-3.3822,-3.3571,-3.3093,-3.3111,-3.3111,-3.3111,-3.3111,-3.3111,-3.3111,-3.3111,-3.3111,-3.3111,-3.3111,-3.3111,-3.3025,-3.2113,-3.0824,-2.9326,-2.8398,-2.7098,-2.5693,-2.5693,-2.5693,-2.5693,-2.5693,-2.5693,-2.5693,-2.5693,-2.5693,-2.5693,-2.5693,-2.5693,-2.5693,-2.5693,-2.5693,-2.5693,-2.5693,-2.5693,-2.5596,-2.5273,-2.5176,-2.5078,-2.4707,-2.4609,-2.4512,-2.4082,-2.3984,-2.3848,-2.3374,-2.3237,-2.3198,-2.3198,-2.314,-2.3101,-2.3101,-2.3101,-2.3101,-2.3101,-2.3101,-2.3101,-2.3101,-2.3101,-2.3101,-2.3101,-2.3101,-2.2945,-2.2637,-2.2266,-2.2246,-2.2598,-2.2617,-2.273,-2.3081,-2.3101,-2.3101,-2.3101,-2.3101,-2.3101,-2.3101,-2.3101,-2.3101,-1.7928,-1.9359,-2.0566,-2.0566,-2.0138,-1.966,-1.9585,0.0,0.0,0.0,0.0,0.0,0.0,-1.9937,-2.0867,0.0,0.0,-2.7419,0.0,0.0,-3.1712,-3.2943,-3.3571,-3.3897,-3.3897,-3.4399,-3.468,-3.468,-3.4299,-3.3997,-3.3897,-3.3445,-3.3212,-3.3111,-3.3111,-3.3111,-3.3111,-3.3111,-3.3111,-3.3111,-3.3111,-3.3111,-3.3111,-3.3111,-3.3111,-3.3025,-3.2113,-3.0824,-2.9326,-2.8398,-2.7098,-2.5693,-2.5693,-2.5693,-2.5693,-2.5693,-2.5693,-2.5693,-2.5693,-2.5693,-2.5693,-2.5693,-2.5693,-2.5693,-2.5693,-2.5693,-2.5693,-2.5693,-2.5693,-2.5674,-2.5596,-2.5596,-2.5577,-2.5499,-2.5479,-2.541,-2.4961,-2.491,-2.4746,-2.4316,-2.3926,-2.3691,-2.3691,-2.3379,-2.3101,-2.3101,-2.3101,-2.3101,-2.3101,-2.3101,-2.3101,-2.3101,-2.3101,-2.3101,-2.3101,-2.3101,-2.3062,-2.3003,-2.2945,-2.2925,-2.3003,-2.3003,-2.3023,-2.3101,-2.3101,-2.3101,-2.3101,-2.3101,-2.3101,-2.3101,-2.3101,-2.3101,-1.7903,-1.9183,-2.0365,-2.0993,-2.1142,-2.0991,-2.0413,-1.9635,0.0,0.0,0.0,0.0,0.0,0.0,-2.2824,-2.541,0.0,-2.9202,-3.0809,-3.1486,-3.2139,-3.3011,-3.3294,-3.3445,-3.3445,-3.3696,-3.3847,-3.3847,-3.3596,-3.3445,-3.3445,-3.3219,-3.3111,-3.3111,-3.3111,-3.3111,-3.3111,-3.3111,-3.3111,-3.3111,-3.3111,-3.3111,-3.3111,-3.2939,-3.281,-3.2636,-3.156,-3.0306,-2.8958,-2.7977,-2.6812,-2.5693,-2.5693,-2.5693,-2.5693,-2.5693,-2.5693,-2.5693,-2.5693,-2.5693,-2.5693,-2.5693,-2.5693,-2.5693,-2.5693,-2.5693,-2.5693,-2.5693,-2.5693,-2.5693,-2.5693,-2.5693,-2.5693,-2.5693,-2.5693,-2.5557,-2.5204,-2.5106,-2.4941,-2.4492,-2.4258,-2.4062,-2.3828,-2.3809,-2.375,-2.3516,-2.3672,-2.3705,-2.3516,-2.3496,-2.3398,-2.312,-2.3101,-2.3101,-2.3101,-2.3101,-2.3101,-2.3101,-2.3101,-2.3101,-2.3101,-2.3101,-2.3101,-2.3101,-2.3101,-2.3101,-2.3101,-2.3101,-2.3101,-2.3101,-2.3101,-2.3101,-1.7777,-1.8882,-2.0012,-2.0891,0.0,-2.2121,-2.1418,-2.079,0.0,0.0,0.0,0.0,0.0,-2.3075,0.0,-2.7996,-2.9227,-3.0206,-3.1411,-3.1938,-3.2416,-3.3061,-3.3111,-3.3111,-3.3111,-3.3111,-3.3111,-3.3111,-3.3111,-3.3111,-3.3111,-3.3111,-3.3111,-3.3111,-3.3111,-3.3111,-3.3111,-3.3111,-3.3111,-3.3111,-3.3111,-3.3111,-3.3068,-3.2766,-3.2463,-3.2069,-3.0913,-2.9669,-2.8355,-2.7505,-2.6572,-2.5693,-2.5693,-2.5693,-2.5693,-2.5693,-2.5693,-2.5693,-2.5693,-2.5693,-2.5693,-2.5693,-2.5693,-2.5693,-2.5693,-2.5693,-2.5693,-2.5693,-2.5693,-2.5693,-2.5693,-2.5693,-2.5693,-2.5693,-2.5693,-2.5644,-2.5293,-2.5215,-2.5117,-2.4785,-2.4648,-2.4473,-2.4141,-2.4277,-2.4316,-2.3984,-2.4219,-2.4297,-2.3984,-2.3945,-2.3769,-2.3296,-2.3257,-2.3198,-2.3101,-2.3101,-2.3101,-2.3101,-2.3101,-2.3101,-2.3101,-2.3101,-2.3101,-2.3101,-2.3101,-2.3101,-2.3101,-2.3101,-2.3101,-2.3101,-2.3101,-2.3101,-1.7448,-1.8606,-1.9811,-1.9911,-2.1117,-2.2393,-2.2819,-2.2493,0.0,-2.2769,0.0,0.0,0.0,-2.5134,-2.7027,-2.9302,-2.9754,-3.0357,-3.1938,-3.219,-3.2416,-3.3061,-3.3111,-3.3111,-3.3111,-3.3111,-3.3111,-3.3111,-3.3111,-3.3111,-3.3111,-3.3111,-3.3111,-3.3111,-3.3111,-3.3111,-3.3111,-3.3111,-3.3111,-3.3111,-3.3111,-3.3111,-3.3068,-3.2661,-3.2001,-3.1223,-3.026,-2.9026,-2.7626,-2.7125,-2.6448,-2.5693,-2.5693,-2.5693,-2.5693,-2.5693,-2.5693,-2.5693,-2.5693,-2.5693,-2.5693,-2.5693,-2.5693,-2.5693,-2.5693,-2.5693,-2.5693,-2.5693,-2.5693,-2.5693,-2.5693,-2.5693,-2.5693,-2.5693,-2.5693,-2.5674,-2.5654,-2.5635,-2.5635,-2.5596,-2.5312,-2.5047,-2.5028,-2.4668,-2.4414,-2.4375,-2.4394,-2.4414,-2.4375,-2.4375,-2.4219,-2.3789,-2.375,-2.3574,-2.314,-2.3101,-2.3101,-2.3101,-2.3101,-2.3101,-2.3101,-2.3101,-2.3101,-2.3101,-2.3101,-2.3101,-2.3101,-2.3101,-2.3101,-2.3101,-2.3101,-2.3101,-1.8304,-1.9083,-1.9962,-2.069,-2.1845,0.0,0.0,-2.3496,-2.4029,-2.4556,-2.4958,0.0,0.0,0.0,-2.8499,-3.0055,-3.0583,-3.1235,-3.2566,-3.2742,-3.2842,-3.3043,-3.3111,-3.3111,-3.3111,-3.3111,-3.3111,-3.3111,-3.3111,-3.3111,-3.3111,-3.3111,-3.3111,-3.3111,-3.3111,-3.3111,-3.3111,-3.3111,-3.3111,-3.3111,-3.2939,-3.2766,-3.2636,-3.1825,-3.1048,-3.026,-2.9165,-2.8117,-2.7125,-2.662,-2.611,-2.5693,-2.5693,-2.5693,-2.5693,-2.5693,-2.5693,-2.5693,-2.5693,-2.5693,-2.5693,-2.5693,-2.5693,-2.5693,-2.5693,-2.5693,-2.5693,-2.5693,-2.5693,-2.5693,-2.5693,-2.5693,-2.5693,-2.5693,-2.5693,-2.5693,-2.5693,-2.5693,-2.5693,-2.5693,-2.5605,-2.5391,-2.5117,-2.5156,-2.5137,-2.4863,-2.5059,-2.5137,-2.4863,-2.4824,-2.4648,-2.4219,-2.3945,-2.373,-2.3555,-2.3257,-2.3101,-2.3101,-2.3101,-2.3101,-2.3101,-2.3101,-2.3101,-2.3101,-2.3101,-2.3101,-2.3101,-2.3101,-2.3101,-2.3101,-2.3418,-2.3535,-1.8632,-1.9133,-1.9786,-2.0715,0.0,0.0,-2.3521,-2.4531,-2.5536,-2.6239,-2.6716,-2.7178,-2.7695,0.0,0.0,-3.0658,-3.116,-3.1788,-3.296,-3.3111,-3.3111,-3.3111,-3.3111,-3.3111,-3.3111,-3.3111,-3.3111,-3.3111,-3.3111,-3.3111,-3.3111,-3.3111,-3.3111,-3.3111,-3.3111,-3.3111,-3.3111,-3.3025,-3.2939,-3.2853,-3.2351,-3.2089,-3.2001,-3.1003,-3.0034,-2.9073,-2.807,-2.7241,-2.6476,-2.6159,-2.5868,-2.5693,-2.5693,-2.5693,-2.5693,-2.5693,-2.5693,-2.5693,-2.5693,-2.5693,-2.5693,-2.5693,-2.5693,-2.5693,-2.5693,-2.5693,-2.5693,-2.5693,-2.5693,-2.5693,-2.5693,-2.5693,-2.5693,-2.5693,-2.5693,-2.5693,-2.5693,-2.5693,-2.5693,-2.5693,-2.5693,-2.5596,-2.5332,-2.5527,-2.5625,-2.5332,-2.5547,-2.5577,-2.5312,-2.5273,-2.5117,-2.4668,-2.4238,-2.3984,-2.3984,-2.3711,-2.3491,-2.3491,-2.3491,-2.3374,-2.3101,-2.3101,-2.3101,-2.3101,-2.3101,-2.3101,-2.3101,-2.3101,-2.3159,-2.3315,-2.3652,-2.3867,-1.8229,-1.8607,-1.9158,-1.971,0.0,0.0,-2.4424,-2.5686,-2.6826,-2.7896,-2.8122,-2.8298,-2.8787,-2.8888,0.0,-3.111,-3.1386,-3.1788,-3.296,-3.3111,-3.3111,-3.3111,-3.3111,-3.3111,-3.3111,-3.3111,-3.3111,-3.3111,-3.3111,-3.3111,-3.3111,-3.3111,-3.3111,-3.3111,-3.3111,-3.3111,-3.3111,-3.2853,-3.2593,-3.24,-3.1359,-3.0979,-3.1134,-3.0215,-2.898,-2.76,-2.7098,-2.6448,-2.5693,-2.5693,-2.5693,-2.5693,-2.5693,-2.5693,-2.5693,-2.5693,-2.5693,-2.5693,-2.5693,-2.5693,-2.5693,-2.5693,-2.5693,-2.5693,-2.5693,-2.5693,-2.5693,-2.5693,-2.5693,-2.5693,-2.5693,-2.5693,-2.5693,-2.5693,-2.5693,-2.5693,-2.5693,-2.5693,-2.5693,-2.5693,-2.5693,-2.5693,-2.5693,-2.5693,-2.5693,-2.5693,-2.5693,-2.5693,-2.5693,-2.5693,-2.5566,-2.5165,-2.4687,-2.4414,-2.4414,-2.4414,-2.4414,-2.4414,-2.4414,-2.3978,-2.314,-2.3101,-2.3101,-2.3101,-2.3101,-2.3101,-2.3101,-2.3101,-2.3379,-2.3789,-2.3809,-2.4023,-1.9736,-2.0088,0.0,-2.1791,0.0,0.0,0.0,-2.6816,0.0,0.0,-2.9302,-2.9227,-2.8938,-2.9277,-2.9829,-3.0708,-3.116,-3.1788,-3.296,-3.3111,-3.3111,-3.3111,-3.3111,-3.3111,-3.3111,-3.3111,-3.3111,-3.3111,-3.3111,-3.3111,-3.3111,-3.3111,-3.3111,-3.3111,-3.3111,-3.3111,-3.3111,-3.268,-3.2176,-3.1557,-3.0576,-3.017,-3.017,-2.9026,-2.8023,-2.7078,-2.6572,-2.611,-2.5693,-2.5693,-2.5693,-2.5693,-2.5693,-2.5693,-2.5693,-2.5693,-2.5693,-2.5693,-2.5693,-2.5693,-2.5693,-2.5693,-2.5693,-2.5693,-2.5693,-2.5693,-2.5693,-2.5693,-2.5693,-2.5693,-2.5693,-2.5693,-2.5693,-2.5693,-2.5693,-2.5693,-2.5693,-2.5693,-2.5693,-2.5693,-2.5693,-2.5693,-2.5693,-2.5693,-2.5693,-2.5693,-2.5693,-2.5693,-2.5693,-2.5693,-2.5635,-2.5547,-2.5137,-2.4863,-2.4863,-2.459,-2.4414,-2.4414,-2.4414,-2.4297,-2.4043,-2.375,-2.3594,-2.3594,-2.3257,-2.3257,-2.3594,-2.3594,-2.3809,-2.4238,-2.4551,-2.4793,-1.9987,-2.0666,0.0,-2.305,-2.4274,-2.5611,-2.7494,0.0,0.0,0.0,-2.9804,-2.9679,-2.9327,-2.9553,-3.0055,-3.0809,-3.1185,-3.1788,-3.296,-3.3111,-3.3111,-3.3111,-3.3111,-3.3111,-3.3111,-3.3111,-3.3111,-3.3111,-3.3111,-3.3111,-3.3111,-3.2982,-3.2896,-3.281,-3.2723,-3.2636,-3.255,-3.1981,-3.1315,-3.0643,-2.9578,-2.8934,-2.8609,-2.7882,-2.7146,-2.64,-2.611,-2.5868,-2.5693,-2.5693,-2.5693,-2.5693,-2.5693,-2.5693,-2.5693,-2.5693,-2.5693,-2.5693,-2.5693,-2.5693,-2.5693,-2.5693,-2.5693,-2.5693,-2.5693,-2.5693,-2.5693,-2.5693,-2.5693,-2.5693,-2.5693,-2.5693,-2.5693,-2.5693,-2.5693,-2.5693,-2.5693,-2.5693,-2.5693,-2.5693,-2.5693,-2.5693,-2.5693,-2.5693,-2.5693,-2.5693,-2.5693,-2.5693,-2.5693,-2.5693,-2.5693,-2.5693,-2.5488,-2.5332,-2.5332,-2.5098,-2.4941,-2.4941,-2.4941,-2.4941,-2.4941,-2.4355,-2.4043,-2.4043,-2.3789,-2.3769,-2.4043,-2.4043,-2.4258,-2.4687,-2.4988,-2.5204,-1.9434,-2.0715,0.0,-2.3703,-2.5034,0.0,-2.8487,-2.9428,-2.9804,-2.9804,0.0,-2.9804,-2.9804,-2.9804,-3.0131,-3.116,-3.1361,-3.1763,-3.2842,-3.3086,-3.3068,-3.2993,-3.3086,-3.3068,-3.2993,-3.3086,-3.3111,-3.3111,-3.3111,-3.3111,-3.3111,-3.281,-3.255,-3.2288,-3.2001,-3.1713,-3.1472,-3.0802,-3.0147,-2.9578,-2.8445,-2.7526,-2.6812,-2.6812,-2.638,-2.5693,-2.5693,-2.5693,-2.5693,-2.5693,-2.5693,-2.5693,-2.5693,-2.5693,-2.5693,-2.5693,-2.5693,-2.5693,-2.5693,-2.5693,-2.5693,-2.5693,-2.5693,-2.5693,-2.5693,-2.5693,-2.5693,-2.5693,-2.5693,-2.5693,-2.5693,-2.5693,-2.5693,-2.5693,-2.5693,-2.5693,-2.5693,-2.5693,-2.5693,-2.5693,-2.5693,-2.5693,-2.5693,-2.5693,-2.5693,-2.5693,-2.5693,-2.5693,-2.5693,-2.5693,-2.5693,-2.5693,-2.5693,-2.5693,-2.5693,-2.5693,-2.5693,-2.5693,-2.5693,-2.5693,-2.5693,-2.4922,-2.4473,-2.4473,-2.4434,-2.4434,-2.4473,-2.4473,-2.4707,-2.5137,-2.5137,-2.5352,-2.0063,-2.1292,0.0,0.0,-2.6741,-2.8448,-2.9402,-2.9704,-2.9804,-2.9804,-2.9804,-2.9804,-2.9804,-2.9804,-3.0005,-3.0683,-3.1135,-3.1612,-3.2315,-3.2792,-3.2893,-3.2466,-3.2792,-3.2893,-3.2441,-3.2817,-3.3111,-3.3111,-3.3111,-3.3111,-3.3111,-3.268,-3.2133,-3.1468,-3.1045,-3.0508,-2.992,-2.9372,-2.8727,-2.8049,-2.7458,-2.6716,-2.5965,-2.6187,-2.6062,-2.5693,-2.5693,-2.5693,-2.5693,-2.5693,-2.5693,-2.5693,-2.5693,-2.5693,-2.5693,-2.5693,-2.5693,-2.5693,-2.5693,-2.5693,-2.5693,-2.5693,-2.5693,-2.5693,-2.5693,-2.5693,-2.5693,-2.5693,-2.5693,-2.5693,-2.5693,-2.5693,-2.5693,-2.5693,-2.5693,-2.5693,-2.5693,-2.5693,-2.5693,-2.5693,-2.5693,-2.5693,-2.5693,-2.5693,-2.5693,-2.5693,-2.5693,-2.5693,-2.5693,-2.5693,-2.5693,-2.5693,-2.5693,-2.5693,-2.5693,-2.5693,-2.5693,-2.5693,-2.5693,-2.5693,-2.5693,-2.5215,-2.4969,-2.4969,-2.459,-2.459,-2.4969,-2.4969,-2.5156,-2.5586,-2.5586,-2.5644,-1.9837,0.0,0.0,-2.6113,0.0,-2.9428,-2.9729,-2.9804,-2.9804,-2.9804,-2.9804,-2.9804,-2.9804,-2.9804,-2.998,-3.0532,-3.106,-3.1587,-3.2139,-3.2717,-3.2867,-3.229,-3.2717,-3.2842,-3.2265,-3.2742,-3.3111,-3.3111,-3.3111,-3.3111,-3.3111,-3.255,-3.1801,-3.0911,-3.0328,-2.9624,-2.8749,-2.8236,-2.772,-2.7268,-2.6764,-2.6255,-2.5693,-2.582,-2.582,-2.5693,-2.5693,-2.5693,-2.5693,-2.5693,-2.5693,-2.5693,-2.5693,-2.5693,-2.5693,-2.5693,-2.5693,-2.5693,-2.5693,-2.5693,-2.5693,-2.5693,-2.5693,-2.5693,-2.5693,-2.5693,-2.5693,-2.5693,-2.5693,-2.5693,-2.5693,-2.5693,-2.5693,-2.5693,-2.5693,-2.5693,-2.5693,-2.5693,-2.5693,-2.5693,-2.5693,-2.5693,-2.5693,-2.5693,-2.5693,-2.5693,-2.5693,-2.5693,-2.5693,-2.5693,-2.5693,-2.5693,-2.5693,-2.5693,-2.5693,-2.5693,-2.5693,-2.5693,-2.5693,-2.5693,-2.5693,-2.5508,-2.5391,-2.5391,-2.5176,-2.5156,-2.5391,-2.5391,-2.5508,-2.5693,-2.5693,-2.5693,-1.9359,0.0,-2.4406,-2.7369,-2.895,0.0,-2.9804,-2.9804,-2.9804,-2.9804,-2.9804,-2.9804,-2.9804,-2.9804,-2.9955,-3.0407,-3.0909,-3.1411,-3.1863,-3.2416,-3.2566,-3.2014,-3.2441,-3.2566,-3.1989,-3.2441,-3.2835,-3.2835,-3.2835,-3.2835,-3.2835,-3.2154,-3.128,-3.0234,-2.9555,-2.8699,-2.762,-2.7146,-2.686,-2.6668,-2.6235,-2.5917,-2.5693,-2.5693,-2.5693,-2.5693,-2.5693,-2.5693,-2.5693,-2.5693,-2.5693,-2.5693,-2.5693,-2.5693,-2.5693,-2.5693,-2.5693,-2.5693,-2.5693,-2.5693,-2.5693,-2.5693,-2.5693,-2.5693,-2.5693,-2.5693,-2.5693,-2.5693,-2.5693,-2.5713,-2.5791,-2.581,-2.581,-2.5888,-2.5908,-2.5869,-2.5713,-2.5693,-2.5693,-2.5693,-2.5693,-2.5693,-2.5693,-2.5693,-2.5693,-2.5693,-2.5693,-2.5693,-2.5693,-2.5693,-2.5693,-2.5693,-2.5693,-2.5693,-2.5693,-2.5693,-2.5693,-2.5693,-2.5693,-2.5693,-2.5693,-2.5693,-2.5693,-2.5693,-2.5693,-2.5693,-2.5693,-2.5693,-2.5693,-2.5693,-2.5693,-2.5693,-1.9359,0.0,-2.6373,0.0,-2.895,-2.9804,0.0,0.0,-2.9804,0.0,-2.9804,-2.9804,-2.9804,-2.9804,-2.9804,-2.9905,-3.0357,-3.0733,-3.0809,-3.1286,-3.1411,-3.0884,-3.1286,-3.1411,-3.0884,-3.1311,-3.1612,-3.1612,-3.1612,-3.1612,-3.1612,-3.1198,-3.0296,-2.8903,-2.846,-2.7478,-2.6014,-2.5917,-2.5888,-2.5868,-2.5791,-2.5723,-2.5693,-2.5693,-2.5693,-2.5693,-2.5693,-2.5693,-2.5693,-2.5693,-2.5693,-2.5693,-2.5693,-2.5693,-2.5693,-2.5693,-2.5693,-2.5693,-2.5693,-2.5693,-2.5693,-2.5693,-2.5693,-2.5693,-2.5693,-2.5693,-2.5693,-2.5693,-2.5693,-2.5771,-2.6211,-2.6309,-2.6387,-2.6758,-2.6855,-2.6641,-2.5849,-2.5693,-2.5693,-2.5693,-2.5693,-2.5693,-2.5693,-2.5693,-2.5693,-2.5693,-2.5693,-2.5693,-2.5693,-2.5693,-2.5693,-2.5693,-2.5693,-2.5693,-2.5693,-2.5693,-2.5693,-2.5693,-2.5693,-2.5693,-2.5693,-2.5693,-2.5693,-2.5693,-2.5693,-2.5693,-2.5693,-2.5693,-2.5693,-2.5693,-2.5693,-2.5693,-2.0514,-2.3552,-2.6314,0.0,-2.895,-2.9804,-2.9804,0.0,-2.9804,-2.9804,-2.9804,-2.9804,-2.9804,-2.9804,-2.9804,-2.9804,-3.0256,-3.0608,-3.0608,-3.106,-3.121,-3.0683,-3.106,-3.1185,-3.0658,-3.1085,-3.1386,-3.1386,-3.1386,-3.1386,-3.1386,-3.1034,-3.0114,-2.8634,-2.8185,-2.7241,-2.5742,-2.5693,-2.5693,-2.5693,-2.5693,-2.5693,-2.5693,-2.5693,-2.5693,-2.5693,-2.5693,-2.5693,-2.5693,-2.5693,-2.5693,-2.5693,-2.5693,-2.5693,-2.5693,-2.5693,-2.5693,-2.5693,-2.5693,-2.5693,-2.5693,-2.5693,-2.5693,-2.5693,-2.5693,-2.5693,-2.5693,-2.5693,-2.5869,-2.6152,-2.6348,-2.6562,-2.6777,-2.6973,-2.7012,-2.6914,-2.6523,-2.6445,-2.6445,-2.6445,-2.6445,-2.6445,-2.6445,-2.6445,-2.6445,-2.6445,-2.625,-2.6191,-2.6426,-2.625,-2.6191,-2.6376,-2.6445,-2.6445,-2.6445,-2.6445,-2.6445,-2.6445,-2.6445,-2.6445,-2.6445,-2.623,-2.6094,-2.6094,-2.581,-2.5693,-2.5693,-2.5693,-2.5693,-2.5693,-2.5693,-2.5693,-2.074,-2.3175,-2.5385,-2.7042,-2.8323,-2.9227,0.0,0.0,-2.9603,-2.9754,-2.9804,-2.9804,-2.9804,-2.9804,-2.9804,-2.9804,-3.0131,-3.0407,-3.0407,-3.0733,-3.0834,-3.0457,-3.0758,-3.0834,-3.0457,-3.0758,-3.0984,-3.0984,-3.0984,-3.0984,-3.0984,-3.0619,-2.9715,-2.8254,-2.7863,-2.6889,-2.541,-2.5362,-2.5362,-2.5362,-2.5362,-2.5401,-2.5566,-2.5566,-2.5577,-2.5693,-2.5693,-2.5693,-2.5693,-2.5693,-2.5693,-2.5693,-2.5693,-2.5693,-2.5693,-2.5693,-2.5693,-2.5693,-2.5693,-2.5693,-2.5693,-2.5693,-2.5693,-2.5693,-2.5693,-2.5693,-2.5713,-2.583,-2.6133,-2.6445,-2.666,-2.6953,-2.7207,-2.7305,-2.7344,-2.7285,-2.707,-2.7012,-2.7012,-2.7012,-2.7012,-2.7012,-2.7012,-2.7012,-2.7012,-2.7012,-2.6738,-2.666,-2.6973,-2.6738,-2.666,-2.6973,-2.7012,-2.7012,-2.7012,-2.7012,-2.7012,-2.7012,-2.7012,-2.7012,-2.7012,-2.6719,-2.6543,-2.6543,-2.6133,-2.581,-2.5693,-2.5693,-2.5693,-2.5693,-2.5693,-2.5693,-1.8832,-2.1164,-2.3622,-2.531,-2.6565,0.0,0.0,0.0,-2.9126,-2.9679,-2.9804,-2.9804,-2.9804,-2.9804,-2.9804,-2.9804,-2.9804,-2.9829,-2.9829,-2.9854,-2.9854,-2.9829,-2.9854,-2.9854,-2.9829,-2.9854,-2.988,-2.988,-2.988,-2.988,-2.988,-2.952,-2.8657,-2.7225,-2.6866,-2.5962,-2.4492,-2.4492,-2.4492,-2.4492,-2.4492,-2.4707,-2.5145,-2.5145,-2.5332,-2.5693,-2.5693,-2.5693,-2.5693,-2.5693,-2.5693,-2.5693,-2.5693,-2.5693,-2.5693,-2.5693,-2.5693,-2.5693,-2.5693,-2.5693,-2.5693,-2.5693,-2.5693,-2.5693,-2.5693,-2.5693,-2.5771,-2.625,-2.6367,-2.6582,-2.7434,-2.7669,-2.7787,-2.8125,-2.8223,-2.8008,-2.7187,-2.7012,-2.7012,-2.7012,-2.7012,-2.7012,-2.7012,-2.7012,-2.7012,-2.7012,-2.6992,-2.6992,-2.7012,-2.6992,-2.6992,-2.7012,-2.7012,-2.7012,-2.7012,-2.7012,-2.7012,-2.7012,-2.7012,-2.7012,-2.7012,-2.6992,-2.6973,-2.6973,-2.6562,-2.6152,-2.5693,-2.5693,-2.5693,-2.5693,-2.5693,-2.5693,-1.8204,-2.0238,0.0,-2.3672,-2.5109,-2.6389,-2.7168,-2.7896,-2.8574,-2.9126,-2.9528,-2.9804,-2.9804,-2.9804,-2.9804,-2.9804,-2.9804,-2.9804,-2.9804,-2.9804,-2.9804,-2.9804,-2.9804,-2.9804,-2.9804,-2.9804,-2.9804,-2.9804,-2.9638,-2.9482,-2.9365,-2.8898,-2.8045,-2.6754,-2.6361,-2.5603,-2.4414,-2.4414,-2.4414,-2.4414,-2.4414,-2.4648,-2.5106,-2.5106,-2.5312,-2.5693,-2.5693,-2.5693,-2.5693,-2.5693,-2.5693,-2.5693,-2.5693,-2.5693,-2.5693,-2.5693,-2.5693,-2.5693,-2.5693,-2.5693,-2.5693,-2.5693,-2.5693,-2.5693,-2.5693,-2.5937,-2.6191,-2.6348,-2.6777,-2.7337,-2.763,-2.7871,-2.8105,-2.8262,-2.8301,-2.8203,-2.791,-2.7832,-2.7832,-2.7832,-2.7832,-2.7832,-2.7832,-2.7832,-2.7832,-2.7832,-2.7598,-2.7539,-2.7793,-2.7598,-2.7539,-2.7812,-2.7832,-2.7832,-2.7832,-2.7832,-2.7832,-2.7832,-2.7832,-2.7832,-2.7832,-2.7578,-2.7441,-2.7441,-2.7012,-2.6582,-2.6152,-2.583,-2.5693,-2.5693,-2.5693,-2.5693,-1.7099,-1.8832,0.0,0.0,0.0,-2.4732,-2.5686,-2.6766,-2.777,-2.8461,-2.9101,-2.9553,-2.9754,-2.9804,-2.9804,-2.9804,-2.9804,-2.9804,-2.9804,-2.9804,-2.9804,-2.9804,-2.9804,-2.9804,-2.9804,-2.9804,-2.9804,-2.9804,-2.9482,-2.9145,-2.8791,-2.8139,-2.7166,-2.5765,-2.5254,-2.4661,-2.3984,-2.3939,-2.3939,-2.3939,-2.3939,-2.4219,-2.4629,-2.4629,-2.4961,-2.5508,-2.5508,-2.5605,-2.5693,-2.5693,-2.5693,-2.5693,-2.5693,-2.5693,-2.5693,-2.5693,-2.5693,-2.5693,-2.5693,-2.5693,-2.5693,-2.5693,-2.5693,-2.5713,-2.5918,-2.6152,-2.6445,-2.6738,-2.7226,-2.7748,-2.7885,-2.8086,-2.8301,-2.8301,-2.8301,-2.8301,-2.8301,-2.8301,-2.8301,-2.8301,-2.8301,-2.8301,-2.8301,-2.8301,-2.8301,-2.8301,-2.8047,-2.7988,-2.8262,-2.8047,-2.7988,-2.8262,-2.8301,-2.8301,-2.8301,-2.8301,-2.8301,-2.8301,-2.8301,-2.8301,-2.8301,-2.8027,-2.7871,-2.7871,-2.7441,-2.709,-2.6816,-2.6387,-2.6122,-2.6122,-2.6122,-2.6122,0.0,0.0,0.0,0.0,0.0,0.0,-2.4299,0.0,-2.6725,-2.7821,-2.8461,-2.9038,-2.9654,-2.9779,-2.9804,-2.9804,-2.9804,-2.9804,-2.9804,-2.9804,-2.9804,-2.9804,-2.9804,-2.9804,-2.9804,-2.9804,-2.9804,-2.9804,-2.9365,-2.8791,-2.8124,-2.7197,-2.5944,-2.4251,-2.3474,-2.3101,-2.3101,-2.3101,-2.3101,-2.3101,-2.3101,-2.3335,-2.3809,-2.3809,-2.4277,-2.5145,-2.5145,-2.5332,-2.5693,-2.5693,-2.5693,-2.5693,-2.5693,-2.5693,-2.5693,-2.5693,-2.5693,-2.5693,-2.5693,-2.5693,-2.5693,-2.5693,-2.5693,-2.5791,-2.625,-2.6406,-2.6602,-2.7493,-2.7728,-2.7826,-2.8184,-2.8301,-2.8301,-2.8301,-2.8301,-2.8301,-2.8301,-2.8301,-2.8301,-2.8301,-2.8301,-2.8301,-2.8301,-2.8301,-2.8301,-2.8301,-2.8301,-2.8301,-2.8301,-2.8301,-2.8301,-2.8301,-2.8301,-2.8301,-2.8301,-2.8301,-2.8301,-2.8301,-2.8301,-2.8301,-2.8301,-2.8301,-2.8301,-2.8301,-2.7891,-2.7728,-2.7728,-2.7226,-2.7012,-2.7012,-2.7012,-2.7012,-1.5643,0.0,0.0,0.0,0.0,0.0,0.0,0.0,-2.4983,-2.6063,-2.7369,-2.8499,-2.9076,-2.9503,-2.9804,-2.9804,-2.9804,-2.9804,-2.9804,-2.9804,-2.9804,-2.9804,-2.9804,-2.9804,-2.9804,-2.9804,-2.9804,-2.9804,-2.9209,-2.8554,-2.7706,-2.5944,-2.4531,-2.3711,-2.3319,-2.3101,-2.3101,-2.3101,-2.3101,-2.3101,-2.3101,-2.3491,-2.4238,-2.4238,-2.4727,-2.5547,-2.5547,-2.5625,-2.5693,-2.5693,-2.5693,-2.5693,-2.5693,-2.5693,-2.5693,-2.5693,-2.5693,-2.5693,-2.5693,-2.5693,-2.5693,-2.5693,-2.5957,-2.623,-2.6348,-2.6816,-2.7415,-2.765,-2.7943,-2.8144,-2.8262,-2.8301,-2.8301,-2.8301,-2.8301,-2.8301,-2.8301,-2.8301,-2.8301,-2.8301,-2.8301,-2.8301,-2.8301,-2.8301,-2.8301,-2.8301,-2.8301,-2.8301,-2.8301,-2.8301,-2.8301,-2.8301,-2.8301,-2.8301,-2.8301,-2.8301,-2.8301,-2.8301,-2.8301,-2.8301,-2.8301,-2.8301,-2.8301,-2.8301,-2.8184,-2.8125,-2.8125,-2.7383,-2.7012,-2.7012,-2.7012,-2.7012,-1.6417,0.0,0.0,0.0,0.0,0.0,-2.0566,-2.2221,-2.3879,-2.4757,-2.6063,-2.7218,-2.7795,-2.8373,-2.875,-2.875,-2.8925,-2.9252,-2.9729,-2.9804,-2.9804,-2.9804,-2.9804,-2.9804,-2.9804,-2.9804,-2.9804,-2.9804,-2.9091,-2.8075,-2.6629,-2.4744,-2.3604,-2.3319,-2.3188,-2.3101,-2.3101,-2.3101,-2.3101,-2.3101,-2.3101,-2.3452,-2.416,-2.416,-2.4629,-2.5449,-2.5449,-2.5566,-2.5693,-2.5693,-2.5693,-2.5693,-2.5693,-2.5693,-2.5693,-2.5693,-2.5693,-2.5693,-2.5693,-2.5693,-2.5713,-2.5957,-2.6191,-2.6445,-2.6816,-2.7317,-2.7748,-2.7871,-2.8105,-2.8301,-2.8301,-2.8301,-2.8301,-2.8301,-2.8301,-2.8301,-2.8301,-2.8301,-2.8301,-2.8301,-2.8301,-2.8301,-2.8301,-2.8301,-2.8301,-2.8301,-2.8301,-2.8301,-2.8301,-2.8301,-2.8301,-2.8301,-2.8301,-2.8301,-2.8301,-2.8301,-2.8301,-2.8301,-2.8301,-2.8301,-2.8301,-2.8301,-2.8301,-2.8301,-2.8301,-2.8301,-2.8301,-2.7793,-2.7539,-2.7539,-2.7539,-2.7539,-1.7674,-1.8003,0.0,0.0,-1.9384,0.0,-2.0339,-2.1669,-2.297,-2.3527,-2.4531,-2.5511,-2.6122,-2.6675,-2.7017,-2.7017,-2.7519,-2.8348,-2.9528,-2.9704,-2.9729,-2.9779,-2.9804,-2.9804,-2.9804,-2.9804,-2.9804,-2.9804,-2.8855,-2.7389,-2.5316,-2.3864,-2.3101,-2.3101,-2.3101,-2.3101,-2.3101,-2.3101,-2.3101,-2.3101,-2.3101,-2.3354,-2.3867,-2.3867,-2.4336,-2.5184,-2.5184,-2.5371,-2.5693,-2.5693,-2.5693,-2.5693,-2.5693,-2.5693,-2.5693,-2.5693,-2.5693,-2.5693,-2.5693,-2.5713,-2.583,-2.6269,-2.6445,-2.668,-2.7493,-2.7748,-2.7812,-2.8184,-2.8301,-2.8301,-2.8301,-2.8301,-2.8301,-2.8301,-2.8301,-2.8301,-2.8301,-2.8301,-2.8301,-2.8301,-2.8301,-2.8301,-2.8301,-2.8301,-2.8301,-2.8301,-2.8301,-2.8301,-2.8301,-2.8301,-2.8301,-2.8301,-2.8301,-2.8301,-2.8301,-2.8301,-2.8301,-2.8301,-2.8301,-2.8301,-2.8301,-2.8301,-2.8301,-2.8301,-2.8301,-2.8301,-2.8301,-2.8301,-2.8301,-2.8301,-2.8301,-2.8301,-1.9334,-1.9409,-1.9409,-1.9083,0.0,0.0,-1.8857,-1.9962,-2.1194,-2.132,-2.2548,-2.3772,-2.4381,-2.4933,-2.531,-2.531,-2.6138,-2.7318,-2.8875,-2.9063,-2.9277,-2.9729,-2.9804,-2.9804,-2.9804,-2.9804,-2.9804,-2.9804,-2.7971,-2.6423,-2.5232,-2.3864,-2.3101,-2.3101,-2.3101,-2.3101,-2.3101,-2.3101,-2.3101,-2.3101,-2.3101,-2.351,-2.4297,-2.4297,-2.4766,-2.5557,-2.5557,-2.5615,-2.5693,-2.5693,-2.5693,-2.5693,-2.5693,-2.5693,-2.5693,-2.5693,-2.5693,-2.5693,-2.5693,-2.5977,-2.6269,-2.6367,-2.6855,-2.7493,-2.7669,-2.7963,-2.8184,-2.8262,-2.8301,-2.8301,-2.8301,-2.8301,-2.8301,-2.8301,-2.8301,-2.8301,-2.8301,-2.8301,-2.8301,-2.8301,-2.8301,-2.8301,-2.8301,-2.8301,-2.8301,-2.8301,-2.8301,-2.8301,-2.8301,-2.8301,-2.8301,-2.8301,-2.8301,-2.8301,-2.8301,-2.8301,-2.8301,-2.8301,-2.8301,-2.8301,-2.8301,-2.8301,-2.8301,-2.8301,-2.8301,-2.8301,-2.8301,-2.8301,-2.8301,-2.8301,-2.8301,-2.8301,-2.1468,-2.1267,-2.0916,-2.0388,0.0,0.0,0.0,-1.9887,-2.0691,-2.0691,-2.1543,-2.2397,-2.2698,-2.3201,-2.3547,-2.3547,-2.4506,-2.5711,-2.7067,-2.8186,-2.9113,-2.9729,-2.9804,-2.9804,-2.9804,-2.9804,-2.9624,-2.9194,-2.7528,-2.611,-2.5232,-2.3864,-2.3101,-2.3101,-2.3101,-2.3101,-2.3101,-2.3101,-2.3101,-2.3101,-2.3101,-2.3549,-2.4414,-2.4414,-2.4902,-2.5693,-2.5693,-2.5693,-2.5693,-2.5693,-2.5693,-2.5693,-2.5693,-2.5693,-2.5693,-2.5693,-2.5693,-2.5693,-2.5693,-2.6016,-2.6426,-2.6641,-2.7148,-2.7767,-2.791,-2.8125,-2.8301,-2.8301,-2.8301,-2.8301,-2.8301,-2.8301,-2.8301,-2.8301,-2.8301,-2.8301,-2.8301,-2.8301,-2.8301,-2.8301,-2.8301,-2.8301,-2.8301,-2.8301,-2.8301,-2.8301,-2.8301,-2.8301,-2.8301,-2.8301,-2.8301,-2.8301,-2.8301,-2.8301,-2.8301,-2.8301,-2.8301,-2.8301,-2.8301,-2.8301,-2.8301,-2.8301,-2.8301,-2.8301,-2.8301,-2.8301,-2.8301,-2.8301,-2.8301,-2.8301,-2.8301,-2.8301,0.0,0.0,0.0,0.0,0.0,-2.0641,0.0,0.0,0.0,-2.039,-2.0817,0.0,0.0,0.0,-2.182,-2.182,-2.2774,-2.3853,-2.4833,-2.6716,-2.8311,-2.9352,-2.9439,-2.9426,-2.9488,-2.9435,-2.8973,-2.8052,-2.6874,-2.5854,-2.4978,-2.378,-2.3101,-2.3101,-2.3101,-2.3101,-2.3101,-2.3101,-2.314,-2.3218,-2.3218,-2.3711,-2.4531,-2.4531,-2.498,-2.5693,-2.5693,-2.5693,-2.5693,-2.5693,-2.5693,-2.5693,-2.5693,-2.5693,-2.5693,-2.5693,-2.5693,-2.5693,-2.5693,-2.6074,-2.6562,-2.6914,-2.7363,-2.7904,-2.8184,-2.8301,-2.8301,-2.8301,-2.8301,-2.8301,-2.8301,-2.8301,-2.8301,-2.8301,-2.8301,-2.8301,-2.8301,-2.8301,-2.8301,-2.8301,-2.8301,-2.8301,-2.8301,-2.8301,-2.8301,-2.8301,-2.8301,-2.8301,-2.8301,-2.8301,-2.8301,-2.8301,-2.8301,-2.8301,-2.8301,-2.8301,-2.8301,-2.8301,-2.8301,-2.8301,-2.8301,-2.8301,-2.8301,-2.8301,-2.8301,-2.8301,-2.8301,-2.8301,-2.8301,-2.8301,-2.8301,-2.8301,0.0,0.0,0.0,0.0,-2.2171,0.0,0.0,0.0,-1.9761,-1.9284,0.0,0.0,0.0,0.0,0.0,-2.0087,-2.1041,-2.1995,-2.2598,-2.3778,-2.5485,-2.7996,-2.8125,-2.8139,-2.8445,-2.8163,-2.7406,-2.6109,-2.5547,-2.49,-2.4013,-2.3385,-2.3101,-2.3101,-2.3101,-2.3101,-2.3101,-2.3101,-2.3296,-2.3711,-2.3711,-2.416,-2.5047,-2.5047,-2.5273,-2.5693,-2.5693,-2.5693,-2.5693,-2.5693,-2.5693,-2.5693,-2.5693,-2.5693,-2.5693,-2.5693,-2.5693,-2.5693,-2.5693,-2.622,-2.6953,-2.6992,-2.7559,-2.8223,-2.8281,-2.8301,-2.8301,-2.8301,-2.8301,-2.8301,-2.8301,-2.8301,-2.8301,-2.8301,-2.8301,-2.8301,-2.8301,-2.8301,-2.8301,-2.8301,-2.8301,-2.8301,-2.8301,-2.8301,-2.8301,-2.8301,-2.8301,-2.8301,-2.8301,-2.8301,-2.8301,-2.8301,-2.8301,-2.8301,-2.8301,-2.8301,-2.8301,-2.8301,-2.8301,-2.8301,-2.8301,-2.8301,-2.8301,-2.8301,-2.8301,-2.8301,-2.8301,-2.8301,-2.8301,-2.8301,-2.8301,-2.8301,0.0,0.0,0.0,0.0,0.0,0.0,-1.9786,-1.9911,-2.0264,-2.0012,0.0,0.0,0.0,0.0,0.0,0.0,-2.0661,-2.1079,-2.1546,-2.2228,-2.3524,-2.5904,-2.6223,-2.6208,-2.6201,-2.5782,-2.5168,-2.4326,-2.3984,-2.3684,-2.3289,-2.314,-2.3101,-2.3101,-2.3101,-2.3101,-2.3101,-2.3101,-2.3359,-2.3789,-2.3789,-2.4238,-2.5106,-2.5106,-2.5312,-2.5693,-2.5693,-2.5693,-2.5693,-2.5693,-2.5693,-2.5693,-2.5693,-2.5693,-2.5693,-2.5693,-2.5693,-2.5693,-2.5693,-2.6259,-2.709,-2.7598,-2.8008,-2.8301,-2.8301,-2.8301,-2.8301,-2.8301,-2.8301,-2.8301,-2.8301,-2.8301,-2.8301,-2.8301,-2.8301,-2.8301,-2.8301,-2.8301,-2.8301,-2.8301,-2.8301,-2.8301,-2.8301,-2.8301,-2.8301,-2.8301,-2.8301,-2.8301,-2.8301,-2.8301,-2.8301,-2.8301,-2.8301,-2.8301,-2.8301,-2.8301,-2.8301,-2.8301,-2.8301,-2.8301,-2.8301,-2.8301,-2.8301,-2.8301,-2.8301,-2.8301,-2.8301,-2.8301,-2.8301,-2.8301,-2.8301,-2.8301,-2.8574,-2.7243,-2.5561,-2.4481,-2.2849,-2.1192,-2.0062,-2.0289,-2.0742,-2.0893,-2.137,0.0,0.0,0.0,0.0,0.0,0.0,-2.0415,-2.0444,-2.0613,-2.1593,-2.3846,-2.4392,-2.4372,-2.3908,-2.3659,-2.3297,-2.2687,-2.2645,-2.2685,-2.2737,-2.2975,-2.3101,-2.3101,-2.3101,-2.3101,-2.3101,-2.3218,-2.3535,-2.3965,-2.4082,-2.4531,-2.5254,-2.5254,-2.543,-2.5693,-2.5693,-2.5693,-2.5693,-2.5693,-2.5693,-2.5693,-2.5693,-2.5693,-2.5693,-2.5693,-2.5693,-2.5693,-2.5693,-2.6259,-2.7148,-2.8008,-2.8301,-2.8301,-2.8301,-2.8301,-2.8301,-2.8301,-2.8301,-2.8301,-2.8301,-2.8301,-2.8301,-2.8301,-2.8301,-2.8301,-2.8301,-2.8301,-2.8301,-2.8301,-2.8301,-2.8301,-2.8301,-2.8301,-2.8301,-2.8301,-2.8301,-2.8301,-2.8301,-2.8301,-2.8301,-2.8301,-2.8301,-2.8301,-2.8301,-2.8301,-2.8301,-2.8301,-2.8301,-2.8301,-2.8301,-2.8301,-2.8301,-2.8301,-2.8301,-2.8301,-2.8301,-2.8301,-2.8301,-2.8301,-2.8301,-2.8301,-2.9754,-2.8158,-2.6197,-2.5084,-2.3125,-2.1192,-2.0062,-2.0289,-2.0842,-2.137,-2.1895,-2.2418,-2.2945,0.0,0.0,0.0,0.0,0.0,0.0,-1.8572,0.0,-2.2055,-2.2848,-2.2793,-2.1913,-2.2273,-2.2152,-2.125,-2.1771,-2.217,-2.2226,-2.2761,-2.3101,-2.3101,-2.3101,-2.3101,-2.3101,-2.3555,-2.3984,-2.4394,-2.4824,-2.5273,-2.5674,-2.5674,-2.5674,-2.5693,-2.5693,-2.5693,-2.5693,-2.5693,-2.5693,-2.5693,-2.5693,-2.5693,-2.5693,-2.5693,-2.5693,-2.5693,-2.5693,-2.6259,-2.7148,-2.8008,-2.8301,-2.8301,-2.8301,-2.8301,-2.8301,-2.8301,-2.8301,-2.8301,-2.8301,-2.8301,-2.8301,-2.8301,-2.8301,-2.8301,-2.8301,-2.8301,-2.8301,-2.8301,-2.8301,-2.8301,-2.8301,-2.8301,-2.8301,-2.8301,-2.8301,-2.8301,-2.8301,-2.8301,-2.8301,-2.8301,-2.8301,-2.8301,-2.8301,-2.8301,-2.8301,-2.8301,-2.8301,-2.8301,-2.8301,-2.8301,-2.8301,-2.8301,-2.8301,-2.8301,-2.8301,-2.8301,-2.8301,-2.8301,-2.8301,-2.8301,-3.0432,-2.9227,-2.7745,-2.6264,-2.4782,-2.3301,-2.1794,-2.2196,-2.2924,-2.3125,-2.3853,-2.4657,-2.5234,0.0,0.0,0.0,0.0,0.0,0.0,-1.7793,-1.7669,0.0,0.0,0.0,-1.9438,-1.9472,-1.9495,-1.9457,-1.9942,-2.0602,-2.1487,-2.2266,-2.2808,-2.3081,-2.3101,-2.3101,-2.3101,-2.3574,-2.4004,-2.4414,-2.4863,-2.5293,-2.5693,-2.5693,-2.5693,-2.5693,-2.5693,-2.5693,-2.5693,-2.5693,-2.5693,-2.5693,-2.5693,-2.5693,-2.5732,-2.6055,-2.6172,-2.625,-2.6816,-2.7207,-2.7539,-2.8105,-2.8301,-2.8301,-2.8301,-2.8301,-2.8301,-2.8301,-2.8301,-2.8301,-2.8301,-2.8301,-2.8301,-2.8301,-2.8496,-2.8711,-2.8711,-2.8926,-2.9141,-2.9141,-2.9141,-2.9141,-2.9141,-2.9141,-2.8945,-2.8379,-2.8301,-2.8301,-2.8301,-2.8301,-2.8398,-2.8672,-2.8711,-2.8828,-2.9101,-2.8867,-2.8594,-2.832,-2.8301,-2.8301,-2.8301,-2.8301,-2.8301,-2.8301,-2.8301,-2.8301,-2.8301,-2.8301,-2.8301,-2.8301,-2.8301,-2.8301,-3.1035,-3.008,-2.8925,-2.7645,-2.6364,-2.5034,-2.3552,-2.3904,-2.4632,-2.4833,-2.5737,-2.6666,-2.7243,-2.6138,-2.4858,0.0,0.0,0.0,0.0,-1.7055,0.0,0.0,0.0,0.0,0.0,-1.7988,-1.8184,-1.8559,-1.9043,-1.9785,-2.0937,-2.1816,-2.248,-2.2867,-2.3023,-2.3179,-2.3379,-2.3789,-2.4219,-2.4648,-2.5098,-2.5449,-2.5693,-2.5693,-2.5693,-2.5693,-2.5693,-2.5693,-2.5693,-2.5693,-2.5693,-2.5693,-2.5693,-2.5791,-2.5996,-2.6289,-2.6484,-2.6719,-2.7474,-2.7728,-2.7787,-2.8164,-2.8301,-2.8301,-2.8301,-2.8301,-2.8301,-2.8301,-2.8301,-2.8301,-2.8301,-2.8301,-2.834,-2.8476,-2.8711,-2.8965,-2.9121,-2.9375,-2.9626,-2.9626,-2.9626,-2.9626,-2.9626,-2.9626,-2.9375,-2.8828,-2.875,-2.875,-2.875,-2.875,-2.8848,-2.9121,-2.9141,-2.9258,-2.9551,-2.9316,-2.9043,-2.8769,-2.875,-2.8672,-2.8516,-2.8672,-2.8672,-2.8516,-2.8672,-2.8672,-2.8516,-2.8516,-2.8437,-2.8301,-2.8301,-2.8301]},{"header":{"parameterUnit":"m.s-1","parameterCategory":1,"la1":30.6,"la2":29.2853,"lo1":-89.7004,"lo2":-87.6739,"dy":0.0162,"dx":0.0183,"nx":112,"ny":82,"refTime":"2026-05-12T12:00:00:Z","depth":0,"parameterNumber":3,"parameterNumberName":"V-component_of_WINDS"},"data":[0.0,0.0,0.0,0.0,0.0,0.0,0.0,0.0,0.0,0.0,0.0,0.0,0.0,0.0,0.0,0.0,0.0,0.0,0.0,0.0,0.0,0.0,0.0,0.0,0.0,0.0,0.0,0.0,0.0,0.0,0.0,0.0,0.0,0.0,0.0,0.0,0.0,0.0,0.0,0.0,0.0,0.0,0.0,0.0,0.0,0.0,0.0,0.0,0.0,0.0,0.0,0.0,0.0,0.0,0.0,0.0,0.0,0.0,0.0,0.0,0.0,0.0,0.0,0.0,0.0,0.0,0.0,0.0,0.0,0.0,0.0,0.0,0.0,0.0,0.0,0.0,0.0,0.0,0.0,0.0,0.0,0.0,0.0,0.0,0.0,0.0,0.0,0.0,0.0,0.0,1.9344,2.2069,2.5631,2.721,2.5705,2.5595,2.4493,2.1959,0.0,0.0,0.0,0.0,0.0,0.0,0.0,0.0,0.0,0.0,0.0,0.0,0.0,0.0,0.0,0.0,0.0,0.0,0.0,0.0,0.0,0.0,0.0,0.0,0.0,0.0,0.0,0.0,0.0,0.0,0.0,0.0,0.0,0.0,0.0,0.0,0.0,0.0,0.0,0.0,0.0,0.0,0.0,0.0,0.0,0.0,0.0,0.0,0.0,0.0,0.0,0.0,0.0,0.0,0.0,0.0,0.0,0.0,0.0,0.0,0.0,0.0,0.0,0.0,0.0,0.0,0.0,0.0,0.0,0.0,0.0,0.0,0.0,0.0,0.0,0.0,0.0,0.0,0.0,0.0,0.0,0.0,0.0,0.0,0.0,0.0,0.0,0.0,0.0,0.0,0.0,0.0,0.0,0.0,0.0,0.0,0.0,0.0,0.0,0.0,0.0,0.0,0.0,0.0,2.0601,2.442,2.6623,2.742,2.6502,2.6429,2.5107,2.1996,0.0,0.0,0.0,0.0,0.0,0.0,0.0,0.0,0.0,0.0,0.0,0.0,0.0,0.0,0.0,0.0,0.0,0.0,0.0,0.0,0.0,0.0,0.0,0.0,0.0,0.0,0.0,0.0,0.0,0.0,0.0,0.0,0.0,0.0,0.0,0.0,0.0,0.0,0.0,0.0,0.0,0.0,0.0,0.0,0.0,0.0,0.0,0.0,0.0,0.0,0.0,0.0,0.0,0.0,0.0,0.0,0.0,0.0,0.0,0.0,0.0,0.0,0.0,0.0,0.0,0.0,0.0,0.0,0.0,0.0,0.0,0.0,0.0,0.0,0.0,0.0,0.0,0.0,0.0,0.0,0.0,0.0,0.0,0.0,0.0,0.0,0.0,0.0,0.0,0.0,0.0,0.0,0.0,0.0,0.0,0.0,0.0,0.0,0.0,0.0,0.0,0.0,0.0,2.0712,2.3417,2.5764,2.7471,2.797,2.6722,2.6602,2.5217,2.1996,1.9866,0.0,0.0,0.0,0.0,0.0,0.0,0.0,0.0,0.0,0.0,0.0,0.0,0.0,0.0,0.0,0.0,0.0,0.0,0.0,0.0,0.0,0.0,0.0,0.0,0.0,0.0,0.0,0.0,0.0,0.0,0.0,0.0,0.0,0.0,0.0,0.0,0.0,0.0,0.0,0.0,0.0,0.0,0.0,0.0,0.0,0.0,0.0,0.0,0.0,0.0,0.0,0.0,0.0,0.0,0.0,0.0,0.0,0.0,0.0,0.0,0.0,0.0,0.0,0.0,0.0,0.0,0.0,0.0,0.0,0.0,0.0,0.0,0.0,0.0,0.0,0.0,0.0,0.0,0.0,0.0,0.0,0.0,0.0,0.0,0.0,0.0,0.0,0.0,0.0,0.0,0.0,0.0,0.0,0.0,0.0,0.0,0.0,0.0,0.0,0.0,0.0,0.0,2.3386,2.5677,2.6374,2.7988,2.8363,2.6749,2.6429,2.4924,2.1702,1.994,0.0,0.0,0.0,0.0,0.0,0.0,0.0,0.0,0.0,0.0,0.0,0.0,0.0,0.0,0.0,0.0,0.0,0.0,0.0,0.0,0.0,0.0,0.0,0.0,0.0,0.0,0.0,0.0,0.0,0.0,0.0,0.0,0.0,0.0,0.0,0.0,0.0,0.0,0.0,0.0,0.0,0.0,0.0,0.0,0.0,0.0,0.0,0.0,0.0,0.0,0.0,0.0,0.0,0.0,0.0,0.0,0.0,0.0,0.0,0.0,0.0,0.0,0.0,0.0,0.0,0.0,0.0,0.0,0.0,0.0,0.0,0.0,0.0,0.0,0.0,0.0,0.0,0.0,0.0,0.0,0.0,0.0,0.0,0.0,0.0,0.0,0.0,0.0,0.0,0.0,0.0,0.0,0.0,0.0,0.0,0.0,0.0,0.0,0.0,0.0,0.0,0.0,2.3956,2.6113,2.6299,2.7942,2.8363,2.6749,2.5925,2.4089,2.0804,1.908,0.0,0.0,0.0,0.0,0.0,0.0,0.0,0.0,0.0,0.0,0.0,0.0,0.0,0.0,0.0,0.0,0.0,0.0,0.0,0.0,0.0,0.0,0.0,0.0,0.0,0.0,0.0,0.0,0.0,0.0,0.0,0.0,0.0,0.0,0.0,0.0,0.0,0.0,0.0,0.0,0.0,0.0,0.0,0.0,0.0,0.0,0.0,0.0,0.0,0.0,0.0,0.0,0.0,0.0,0.0,0.0,0.0,0.0,0.0,0.0,0.0,0.0,0.0,0.0,0.0,0.0,0.0,0.0,0.0,0.0,0.0,0.0,0.0,0.0,0.0,0.0,0.0,0.0,0.0,0.0,0.0,0.0,0.0,0.0,0.0,0.0,0.0,0.0,0.0,0.0,0.0,0.0,0.0,0.0,0.0,0.0,0.0,0.0,0.0,0.0,0.0,0.0,2.4088,2.6128,0.0,2.8082,2.8223,2.6669,2.5831,2.4016,2.0731,0.0,0.0,0.0,0.0,0.0,0.0,0.0,0.0,0.0,0.0,0.0,0.0,0.0,0.0,0.0,0.0,0.0,0.0,0.0,0.0,0.0,0.0,0.0,0.0,0.0,0.0,0.0,0.0,0.0,0.0,0.0,0.0,0.0,0.0,0.0,0.0,0.0,0.0,0.0,0.0,0.0,0.0,0.0,0.0,0.0,0.0,0.0,0.0,0.0,0.0,0.0,0.0,0.0,0.0,0.0,0.0,0.0,0.0,0.0,0.0,0.0,0.0,0.0,0.0,0.0,0.0,0.0,0.0,0.0,0.0,0.0,0.0,0.0,0.0,0.0,0.0,0.0,0.0,0.0,0.0,0.0,0.0,0.0,0.0,0.0,0.0,0.0,0.0,0.0,0.0,0.0,0.0,0.0,0.0,0.0,0.0,0.0,0.0,0.0,0.0,0.0,0.0,2.1358,2.3935,2.5906,0.0,2.8018,2.8082,2.6571,2.58,2.4016,2.0731,0.0,0.0,0.0,0.0,0.0,0.0,0.0,0.0,0.0,0.0,0.0,0.0,0.0,0.0,0.0,0.0,0.0,0.0,0.0,0.0,0.0,0.0,0.0,0.0,0.0,0.0,0.0,0.0,0.0,0.0,0.0,0.0,0.0,0.0,0.0,0.0,0.0,0.0,0.0,0.0,0.0,0.0,0.0,0.0,0.0,0.0,0.0,0.0,0.0,0.0,0.0,0.0,0.0,0.0,0.0,0.0,0.0,0.0,0.0,0.0,0.0,0.0,0.0,0.0,0.0,0.0,0.0,0.0,0.0,0.0,0.0,0.0,0.0,0.0,0.0,0.0,0.0,0.0,0.0,0.0,0.0,0.0,0.0,0.0,0.0,0.0,0.0,0.0,0.0,0.0,0.0,0.0,0.0,0.0,0.0,0.0,0.0,0.0,0.0,0.0,0.0,0.0,2.1092,2.3563,2.5499,2.6507,2.7674,2.7826,2.6436,2.5748,2.4016,0.0,0.0,0.0,0.0,0.0,0.0,0.0,0.0,0.0,0.0,0.0,0.0,0.0,0.0,0.0,0.0,0.0,0.0,0.0,0.0,0.0,0.0,0.0,0.0,0.0,0.0,0.0,0.0,0.0,0.0,0.0,0.0,0.0,0.0,0.0,0.0,0.0,0.0,0.0,0.0,0.0,0.0,0.0,0.0,0.0,0.0,0.0,0.0,0.0,0.0,0.0,0.0,0.0,0.0,0.0,0.0,0.0,0.0,0.0,0.0,0.0,0.0,0.0,0.0,0.0,0.0,0.0,0.0,0.0,0.0,0.0,0.0,0.0,0.0,0.0,0.0,0.0,0.0,0.0,0.0,0.0,0.0,0.0,0.0,0.0,0.0,0.0,0.0,0.0,0.0,0.0,0.0,0.0,0.0,0.0,0.0,0.0,0.0,0.0,0.0,0.0,0.0,0.0,2.1731,2.377,2.5542,2.7048,2.7756,2.7557,2.6189,2.5586,2.3909,2.0718,0.0,0.0,0.0,0.0,0.0,0.0,0.0,0.0,0.0,0.0,0.0,0.0,0.0,0.0,0.0,0.0,0.0,0.0,0.0,0.0,0.0,0.0,0.0,0.0,0.0,0.0,0.0,0.0,0.0,0.0,0.0,0.0,0.0,0.0,0.0,0.0,0.0,0.0,0.0,0.0,0.0,0.0,0.0,0.0,0.0,0.0,0.0,0.0,0.0,0.0,0.0,0.0,0.0,0.0,0.0,0.0,0.0,0.0,0.0,0.0,0.0,0.0,0.0,0.0,0.0,0.0,0.0,0.0,0.0,0.0,0.0,0.0,0.0,0.0,0.0,0.0,0.0,0.0,0.0,0.0,0.0,0.0,0.0,0.0,0.0,0.0,0.0,0.0,0.0,0.0,0.0,0.0,0.0,0.0,0.0,0.0,0.0,0.0,0.0,0.0,0.0,0.0,2.1956,2.377,2.5407,2.7106,2.7532,2.7176,2.588,2.5624,2.4195,2.107,0.0,0.0,0.0,0.0,0.0,0.0,0.0,0.0,0.0,0.0,0.0,0.0,0.0,0.0,0.0,0.0,0.0,0.0,0.0,0.0,0.0,0.0,0.0,0.0,0.0,0.0,0.0,0.0,0.0,0.0,0.0,0.0,0.0,0.0,0.0,0.0,0.0,0.0,0.0,0.0,0.0,0.0,0.0,0.0,0.0,0.0,0.0,0.0,0.0,0.0,0.0,0.0,0.0,0.0,0.0,0.0,0.0,0.0,0.0,0.0,0.0,0.0,0.0,0.0,0.0,0.0,0.0,0.0,0.0,0.0,0.0,0.0,0.0,0.0,0.0,0.0,0.0,0.0,0.0,0.0,0.0,0.0,0.0,0.0,0.0,0.0,0.0,0.0,0.0,0.0,0.0,0.0,0.0,0.0,0.0,0.0,0.0,0.0,0.0,0.0,0.0,0.0,2.1907,2.3646,2.5214,2.6821,2.7165,2.679,2.5581,2.5775,2.4699,2.1759,0.0,0.0,0.0,0.0,0.0,0.0,0.0,0.0,0.0,0.0,0.0,0.0,0.0,0.0,0.0,0.0,0.0,0.0,0.0,0.0,0.0,0.0,0.0,0.0,0.0,0.0,0.0,0.0,0.0,0.0,0.0,0.0,0.0,0.0,0.0,0.0,0.0,0.0,0.0,0.0,0.0,0.0,0.0,0.0,0.0,0.0,0.0,0.0,0.0,0.0,0.0,0.0,0.0,0.0,0.0,0.0,0.0,0.0,0.0,0.0,2.1516,2.0494,0.0,0.0,0.0,0.0,0.0,0.0,0.0,0.0,0.0,0.0,0.0,0.0,0.0,0.0,0.0,0.0,0.0,0.0,0.0,0.0,0.0,0.0,0.0,0.0,0.0,0.0,0.0,0.0,0.0,0.0,0.0,0.0,0.0,0.0,0.0,0.0,0.0,0.0,0.0,0.0,2.1975,2.4086,2.5742,2.6807,2.7071,2.6849,2.6173,2.5848,2.4694,2.2345,2.0934,0.0,0.0,0.0,0.0,0.0,0.0,0.0,0.0,0.0,0.0,0.0,0.0,0.0,0.0,0.0,0.0,0.0,0.0,0.0,0.0,0.0,0.0,0.0,0.0,0.0,0.0,0.0,0.0,0.0,0.0,0.0,0.0,0.0,0.0,0.0,0.0,0.0,0.0,0.0,0.0,0.0,0.0,0.0,0.0,0.0,0.0,0.0,0.0,0.0,0.0,0.0,0.0,0.0,0.0,0.0,0.0,0.0,0.0,0.0,2.4207,2.2924,0.0,0.0,0.0,0.0,0.0,0.0,0.0,0.0,0.0,0.0,0.0,0.0,0.0,0.0,0.0,0.0,0.0,0.0,0.0,0.0,0.0,0.0,0.0,0.0,0.0,0.0,0.0,0.0,0.0,0.0,0.0,0.0,0.0,0.0,0.0,0.0,0.0,0.0,0.0,0.0,2.253,2.4458,2.5929,2.6724,2.6892,2.6665,2.6098,2.5596,2.458,2.2834,2.1159,0.0,0.0,0.0,0.0,0.0,0.0,0.0,0.0,0.0,0.0,0.0,0.0,0.0,0.0,0.0,0.0,0.0,0.0,0.0,0.0,0.0,0.0,0.0,0.0,0.0,0.0,0.0,0.0,0.0,0.0,0.0,0.0,0.0,0.0,0.0,0.0,0.0,0.0,0.0,0.0,0.0,0.0,0.0,0.0,0.0,0.0,0.0,0.0,0.0,0.0,0.0,0.0,0.0,2.8094,2.8667,2.9146,2.9804,3.0103,2.9951,2.7418,2.6192,2.594,2.4947,0.0,0.0,0.0,0.0,0.0,0.0,0.0,0.0,0.0,0.0,0.0,0.0,0.0,0.0,0.0,0.0,0.0,0.0,0.0,0.0,0.0,0.0,2.7097,2.6387,2.6184,2.571,2.3849,0.0,0.0,0.0,0.0,0.0,0.0,0.0,0.0,0.0,0.0,0.0,2.3139,2.4797,2.6015,2.6623,2.6691,2.6521,2.6038,2.5468,2.4615,2.3307,2.1612,2.0163,0.0,0.0,0.0,0.0,0.0,0.0,0.0,0.0,0.0,0.0,0.0,0.0,0.0,0.0,0.0,0.0,0.0,0.0,0.0,0.0,0.0,0.0,0.0,0.0,0.0,0.0,0.0,0.0,0.0,0.0,0.0,0.0,1.6726,1.8164,0.0,0.0,0.0,0.0,0.0,0.0,0.0,0.0,0.0,0.0,0.0,0.0,0.0,2.6722,2.8068,2.9175,2.9804,3.0013,3.127,3.1599,3.1152,3.1809,3.2138,3.2108,3.1688,0.0,2.8509,2.8052,0.0,0.0,0.0,0.0,0.0,0.0,0.0,0.0,0.0,0.0,0.0,0.0,0.0,0.0,0.0,0.0,0.0,0.0,0.0,0.0,0.0,0.0,2.9465,2.8739,2.857,2.8468,2.8197,2.5963,2.3661,2.226,2.1312,2.031,0.0,0.0,0.0,0.0,0.0,0.0,2.3274,2.5236,2.659,2.6708,2.6691,2.6708,2.6739,2.6152,2.5222,2.3879,2.321,2.1658,1.8941,1.8669,0.0,0.0,0.0,0.0,0.0,0.0,0.0,0.0,0.0,0.0,0.0,0.0,0.0,0.0,0.0,0.0,0.0,0.0,0.0,0.0,0.0,0.0,0.0,0.0,0.0,0.0,0.0,0.0,0.0,1.728,1.9313,2.0258,2.0378,2.0378,0.0,0.0,0.0,0.0,0.0,0.0,0.0,0.0,0.0,2.723,2.8637,3.0013,3.133,3.2258,3.3125,3.3873,3.4472,3.4771,3.4829,3.513,3.507,3.4741,3.4741,3.3818,3.2209,3.0755,2.9781,2.9092,0.0,0.0,0.0,0.0,2.7571,2.7922,2.8176,2.8484,2.8755,2.8755,0.0,0.0,0.0,0.0,0.0,0.0,0.0,2.8721,2.9127,3.0581,3.1765,3.1041,3.0533,3.0108,2.9702,2.8247,2.6573,2.5067,2.3831,2.2714,2.1617,2.0839,0.0,0.0,0.0,2.3782,2.4526,2.5845,2.6691,2.6691,2.6691,2.6708,2.6792,2.6162,2.5338,2.4408,2.3462,2.2235,2.0547,1.9739,1.869,0.0,0.0,0.0,0.0,0.0,0.0,0.0,0.0,0.0,0.0,0.0,0.0,0.0,0.0,0.0,0.0,0.0,0.0,0.0,0.0,0.0,0.0,0.0,0.0,0.0,0.0,0.0,0.0,1.9881,2.1754,2.2592,2.2682,2.2772,0.0,0.0,0.0,0.0,0.0,0.0,2.5106,2.7195,2.8753,2.9564,3.1331,3.2826,3.3993,3.4831,3.5729,3.6716,3.6716,3.6956,3.7404,3.7404,3.7165,3.6716,3.6567,3.6072,3.5181,3.3098,3.2031,3.1683,3.0871,3.0735,3.1075,3.132,3.1679,3.1997,3.2225,3.2442,3.2577,3.2374,3.1032,2.924,2.8244,0.0,0.0,0.0,0.0,3.0784,3.1326,3.2442,3.3254,3.2733,3.2138,3.1596,3.1055,3.0209,2.9044,2.7334,2.6082,2.5033,2.412,2.3511,0.0,2.3613,0.0,2.5185,2.5559,2.642,2.6894,2.6725,2.6691,2.6691,2.6691,2.6218,2.5555,2.4728,2.3776,2.2768,2.1764,2.0684,1.9657,1.8657,0.0,0.0,0.0,0.0,0.0,0.0,0.0,0.0,0.0,0.0,0.0,0.0,0.0,0.0,0.0,0.0,0.0,0.0,0.0,0.0,0.0,0.0,0.0,0.0,0.0,0.0,0.0,0.0,0.0,2.5255,2.5405,0.0,0.0,0.0,0.0,2.6213,2.6986,2.7944,2.9232,2.9953,3.0941,3.2258,3.3634,3.4681,3.54,3.6626,3.7285,3.7375,3.7375,3.7375,3.7404,3.7404,3.7404,3.7315,3.6746,3.6547,3.6504,3.4911,3.4087,3.3822,3.3513,3.3609,3.3941,3.4323,3.4665,3.4931,3.5251,3.5893,3.6389,3.5622,3.3472,3.0925,2.9461,2.8936,0.0,0.0,3.0711,3.2192,3.2226,3.2814,3.3389,3.3355,3.3322,3.3288,3.3254,3.2104,3.0412,2.8196,2.7689,2.7181,2.5728,0.0,2.5203,2.4541,2.5659,2.6353,2.571,2.6843,2.7486,2.6759,2.6691,2.6691,2.6691,2.6657,2.6081,2.4686,2.4648,2.3735,2.1613,2.1576,2.0592,1.8468,1.8439,0.0,0.0,0.0,0.0,0.0,0.0,0.0,0.0,0.0,0.0,0.0,0.0,0.0,0.0,0.0,0.0,0.0,0.0,0.0,0.0,0.0,0.0,0.0,0.0,0.0,0.0,0.0,0.0,2.7919,2.8158,0.0,2.9056,2.8697,2.8607,2.9056,3.0133,3.115,3.2048,3.3125,3.4143,3.504,3.5908,3.6686,3.7345,3.7823,3.8272,3.8691,3.8691,3.8691,3.8691,3.8691,3.8452,3.8033,3.7793,3.7499,3.7117,3.6532,3.5798,3.5009,3.477,3.5006,3.5513,3.5949,3.6323,3.6697,3.6983,3.728,3.7358,3.6417,3.5238,3.4032,3.309,3.2714,3.2583,3.2552,3.3424,3.4303,3.3829,3.4269,3.4822,3.4822,3.4472,3.41,3.41,3.3322,3.2239,3.0954,2.9533,2.8416,2.7875,2.7791,2.7723,2.7453,2.7859,2.8096,2.7825,2.7807,2.7689,2.7418,2.6996,2.6691,2.6691,2.6691,2.6302,2.5302,2.4822,2.4052,2.2773,2.2303,2.1528,2.0278,1.9889,1.8916,0.0,0.0,0.0,0.0,0.0,0.0,0.0,0.0,0.0,0.0,0.0,0.0,0.0,0.0,0.0,0.0,0.0,0.0,0.0,0.0,0.0,0.0,0.0,0.0,0.0,2.5734,2.8008,3.0013,3.0432,3.0821,3.145,3.13,3.136,3.1809,3.2886,3.3814,3.4472,3.5549,3.6357,3.6776,3.7404,3.7943,3.8392,3.8631,3.896,3.9373,3.9373,3.9373,3.9373,3.9373,3.917,3.8721,3.8482,3.8153,3.7734,3.7494,3.6959,3.6291,3.6127,3.646,3.7053,3.7445,3.7823,3.8179,3.8535,3.8497,3.8145,3.7388,3.6688,3.6092,3.5704,3.5456,3.5324,3.5261,3.5799,3.6231,3.5453,3.5622,3.596,3.5667,3.525,3.4878,3.4878,3.4303,3.3626,3.3139,3.1447,2.9958,2.945,2.9364,2.9281,2.9044,2.9213,2.9281,2.9044,2.8755,2.8365,2.7858,2.735,2.6962,2.6725,2.6691,2.6285,2.5304,2.4778,2.4068,2.3071,2.2564,2.1949,2.1275,2.0161,1.9206,1.8471,0.0,0.0,0.0,0.0,0.0,0.0,0.0,0.0,0.0,0.0,0.0,0.0,0.0,0.0,0.0,0.0,0.0,0.0,0.0,0.0,0.0,0.0,0.0,2.5621,2.8487,3.0791,3.1511,3.2168,3.2826,3.3514,3.3006,3.3185,3.4503,3.519,3.5848,3.6507,3.7105,3.7434,3.7464,3.8093,3.8422,3.8422,3.908,3.9373,3.9373,3.9373,3.9373,3.9373,3.9373,3.9373,3.9343,3.8721,3.8422,3.8362,3.7734,3.7597,3.7711,3.7643,3.8028,3.8637,3.8851,3.9169,3.9494,3.9935,3.9648,3.8956,3.8707,3.7844,3.6884,3.6949,3.6942,3.696,3.7278,3.7633,3.7753,3.7032,3.6829,3.6626,3.5802,3.5633,3.56,3.56,3.5047,3.4539,3.4506,3.3343,3.1887,3.0412,3.0156,2.9905,2.9179,2.9668,0.0,2.9179,2.9668,2.9514,2.8027,2.7824,2.7519,2.6793,2.6691,2.6099,2.4643,2.4508,2.3864,2.2381,2.2313,2.2003,2.1264,1.9304,1.8408,1.8593,0.0,0.0,0.0,0.0,0.0,0.0,0.0,0.0,0.0,0.0,0.0,0.0,0.0,0.0,0.0,0.0,0.0,0.0,0.0,0.0,0.0,2.6722,2.8278,2.8457,2.9654,3.13,3.3425,3.3814,3.4382,3.5549,3.5489,3.5729,3.6537,3.6776,3.7165,3.7823,3.8033,3.8362,3.8805,3.905,3.914,3.914,3.932,3.9373,3.9373,3.9373,3.9373,3.9373,3.9373,3.9373,3.9373,3.923,3.914,3.911,3.8931,3.8871,3.8857,3.8266,3.8364,3.8874,3.951,3.9883,4.0072,4.0207,3.9761,3.9135,3.9116,3.8765,3.8467,3.8712,3.8731,3.865,3.8439,3.8553,3.8531,3.7787,3.7178,3.6761,3.6502,3.6028,3.56,3.56,3.543,3.5148,3.4607,3.4167,3.3444,3.1955,3.1258,3.0818,3.0635,3.0751,3.0818,3.0615,3.0311,2.992,2.9514,2.8466,2.7722,2.7519,2.6996,2.6285,2.5372,2.4812,2.4068,2.3139,2.3105,2.3004,2.2781,2.1246,1.9945,0.0,0.0,0.0,0.0,0.0,0.0,0.0,0.0,0.0,0.0,0.0,0.0,0.0,0.0,0.0,0.0,0.0,0.0,0.0,0.0,0.0,0.0,2.9445,3.1001,3.1568,3.1928,3.2736,3.4324,3.5013,3.5642,3.6417,3.6716,3.7135,3.7764,3.7823,3.8123,3.8781,3.8811,3.902,3.9373,3.9373,3.9373,3.9373,3.9373,3.9373,3.9373,3.9373,3.9373,3.9373,3.9373,3.9373,3.9373,3.9373,3.9373,3.9373,3.9373,3.9373,3.932,0.0,0.0,0.0,0.0,3.9826,4.0091,4.0091,3.9634,3.9042,3.9242,3.9155,3.9001,3.9362,3.9566,3.9621,3.9404,3.9395,3.9276,3.8565,3.7821,3.7178,3.6863,3.6197,3.56,3.56,3.56,3.5464,3.5047,3.4709,0.0,3.3376,3.2361,3.1582,3.1258,3.119,3.119,3.119,3.0818,3.0446,3.0123,2.9311,2.85,2.7858,2.7418,0.0,0.0,0.0,2.4643,2.3898,2.3864,0.0,0.0,0.0,0.0,0.0,2.1403,0.0,0.0,2.0209,2.0748,0.0,0.0,0.0,0.0,0.0,0.0,0.0,0.0,0.0,0.0,0.0,0.0,0.0,0.0,0.0,0.0,3.1809,3.3155,3.4354,3.4623,3.4743,3.4743,3.5791,3.6537,3.6686,3.7195,3.7793,3.8452,3.8512,3.8781,3.9379,3.9373,0.0,0.0,0.0,3.9373,3.9373,3.9373,3.9373,3.9373,3.9373,3.9373,3.9373,3.9373,3.9373,3.9373,3.9373,3.9373,3.9373,3.9373,3.9373,3.9349,3.8786,3.8757,3.9047,3.9206,3.9503,3.9814,3.9814,0.0,0.0,3.9146,3.9093,3.904,3.9302,3.9722,4.0113,4.0113,4.0113,3.9943,3.9276,3.8565,3.7855,3.71,3.6332,3.5701,3.5633,3.56,3.56,3.56,3.5081,3.4607,3.4506,3.3275,3.209,3.1427,3.1258,3.119,3.119,3.119,3.0954,3.0292,3.0156,0.0,2.8196,2.7993,2.735,2.5931,2.571,2.5304,2.4643,2.4541,2.4575,2.4745,2.4094,2.3794,2.3949,2.3578,2.3929,2.4898,2.3591,2.3598,0.0,0.0,0.0,0.0,0.0,0.0,0.0,0.0,0.0,0.0,0.0,0.0,0.0,0.0,0.0,3.1032,3.2886,3.4204,3.4474,3.5432,3.6088,3.6088,3.6327,3.6896,3.7913,3.8123,3.8482,3.917,3.923,3.9254,3.9373,3.9373,3.9373,3.9373,3.9373,3.9373,3.9373,3.9373,3.9373,3.9373,3.9373,0.0,3.9373,3.9373,3.9373,3.9373,3.9373,3.9373,3.9373,3.9373,3.9373,3.9409,3.9439,3.9662,3.9982,4.0173,4.0109,3.997,3.997,3.9499,3.8874,3.877,3.9017,3.9364,3.9247,3.9644,0.0,4.0113,4.0113,4.0079,3.991,3.9343,3.8599,3.7855,3.711,3.64,3.5735,3.56,3.56,3.56,3.5464,3.5216,3.4607,3.3275,3.2259,3.2124,3.1562,3.119,3.119,3.119,3.1157,3.0987,3.0446,2.9973,2.9683,2.9093,2.8383,2.7418,2.6269,2.5541,2.5406,2.4812,2.5049,2.6268,2.5557,2.5505,2.6097,2.6769,2.7252,2.7604,2.6016,2.6141,0.0,0.0,0.0,0.0,0.0,0.0,0.0,0.0,0.0,0.0,0.0,2.6303,2.8637,0.0,3.148,3.2796,3.4113,3.51,3.5462,3.6091,3.6477,3.6477,3.7045,3.7674,3.8332,3.8691,3.905,3.9343,3.9373,3.9373,3.9373,3.9373,3.9373,3.9373,3.9373,3.9373,3.9373,3.9373,3.9373,3.9373,3.9373,3.9373,3.9373,3.9373,3.9373,3.9373,3.9373,3.9373,3.9373,3.9373,3.9373,3.9409,3.9517,3.9661,3.9809,3.9915,3.9843,3.9707,3.9707,3.9249,3.8675,3.896,3.912,3.9195,3.9439,3.978,4.0113,4.0113,4.0113,4.0113,4.0113,3.9571,3.8802,3.8091,3.7347,3.6592,3.5769,3.56,3.56,3.56,3.56,3.5464,3.5115,3.4134,3.3139,3.2429,3.1989,3.1616,3.1258,3.119,3.119,3.119,3.0852,3.0514,3.0123,2.9397,2.884,2.8416,2.7706,2.73,2.73,2.6945,2.7114,2.7859,2.7486,2.7469,2.7859,2.8354,2.8699,2.8835,2.8429,2.8653,0.0,0.0,0.0,0.0,0.0,0.0,0.0,0.0,2.45,2.6722,2.7914,2.9175,3.1301,3.2348,3.3275,3.4472,3.525,3.5908,3.6567,3.6656,3.6716,3.6836,3.7764,3.8452,3.8571,3.908,3.9373,3.9373,3.9373,3.9373,3.9373,3.9373,3.9373,3.9373,3.9373,3.9373,3.9373,3.9373,3.9373,3.9373,3.9373,3.9373,3.9373,3.9373,3.9373,3.9373,3.9373,3.9373,3.9373,3.9373,3.9373,3.9373,3.9373,3.9373,3.9373,3.9373,3.9373,3.9409,3.9445,3.9122,3.8817,3.9385,3.9312,3.9129,3.9613,3.9893,4.0037,4.0062,4.0087,4.0113,4.0113,3.9673,3.9039,3.8294,3.755,3.6772,3.5994,3.5701,3.56,3.56,3.56,3.56,3.56,3.5115,3.4269,3.2936,3.2496,3.209,3.1495,3.1292,3.119,3.119,3.119,3.0954,3.0378,2.977,2.9382,2.9213,2.9213,2.9145,2.901,2.901,2.9077,2.9213,2.9213,2.9281,2.9416,2.9471,2.9581,2.9691,3.0397,3.056,2.1814,2.2781,2.4455,2.5734,2.6033,2.6237,0.0,0.0,2.8188,2.9082,3.0702,3.2048,3.2318,3.3425,3.4502,3.528,3.5938,3.6596,3.7225,3.7315,3.7524,3.8093,3.8302,3.8631,3.926,3.9379,3.9373,3.9373,3.9373,3.9373,3.9373,3.9373,3.9373,3.9373,3.9373,3.9373,3.9373,3.9373,3.9373,3.9373,3.9373,3.9373,3.9373,3.9373,3.9373,3.9373,3.9373,3.9373,3.9373,3.9373,3.9373,3.9373,3.9373,3.9373,3.9373,3.9373,3.9373,3.9409,3.9589,3.9707,3.9803,3.9776,3.9753,3.9772,3.9632,3.9682,3.9781,3.9884,4.0011,4.0113,4.0113,4.0045,3.9808,3.9039,3.8294,3.7584,3.6829,3.6096,3.56,3.56,3.56,3.56,3.56,3.5532,3.5194,3.437,3.3139,3.2259,3.2192,3.1616,3.119,3.119,3.119,3.1157,3.1089,3.0987,3.0683,3.004,2.9973,2.9668,2.9044,2.901,2.9314,2.9973,2.9973,3.0311,3.0954,3.0973,3.0992,3.0992,3.108,3.1028,2.4687,2.5435,2.6662,0.0,2.8607,2.9056,2.9714,3.0103,3.0584,3.1659,3.2826,3.3784,3.4173,3.4711,3.531,0.0,3.6297,3.6716,3.7315,3.7404,3.7494,3.7793,3.7823,3.8242,3.932,3.9373,3.9373,3.9373,3.9373,3.9373,3.9373,3.9373,3.9373,3.9373,3.9373,3.9373,3.9373,3.9373,3.9373,3.9373,3.9373,3.9373,3.9373,3.9373,3.9373,3.9373,3.9373,3.9373,3.9373,3.9373,3.9373,3.9373,3.9373,3.9373,3.9373,3.9373,3.9373,3.9445,3.9768,4.0091,4.0447,4.0611,4.0324,3.993,4.0094,3.9701,3.9295,3.954,3.9858,4.0113,4.0113,4.0113,3.991,3.9174,3.843,3.7686,3.6965,3.6163,3.56,3.56,3.56,3.56,3.56,3.56,3.5498,3.5216,3.4235,3.3275,3.2429,3.2022,3.1684,3.1258,3.119,3.119,3.119,3.119,3.1055,3.0751,3.0751,3.0581,3.0296,3.0296,3.0412,3.0717,3.0751,3.0886,3.119,3.119,3.119,3.119,3.119,3.1395,2.6836,0.0,0.0,2.9834,3.0731,3.145,3.1929,3.2198,3.2617,3.3574,3.4292,3.4921,3.54,3.5519,3.5729,3.6387,3.6626,3.6956,3.7584,3.7524,3.7464,3.7644,3.7375,3.7674,3.902,3.914,3.92,3.9373,3.9373,3.9373,3.9373,3.9373,3.9373,3.9373,3.9373,3.9373,3.9373,3.9373,3.9373,3.9373,3.9373,3.9373,3.9373,3.9373,3.9373,3.9373,3.9373,3.9373,3.9373,3.9373,3.9373,3.9373,3.9373,3.9373,3.9373,3.9373,3.9373,3.9445,3.9869,4.0335,4.0789,4.1189,4.08,4.0281,4.0485,3.992,3.9259,3.9415,3.9773,4.0113,4.0113,4.0113,3.9977,3.9436,3.8734,3.799,3.7246,3.6502,3.5893,3.5633,3.56,3.56,3.56,3.56,3.56,3.56,3.5148,3.4336,3.3072,3.2564,3.2022,3.1258,3.119,3.119,3.119,3.119,3.119,3.119,3.119,3.119,3.119,3.119,3.119,3.119,3.119,3.119,3.119,3.119,3.119,3.119,3.1413,3.1785,0.0,0.0,3.0582,3.1271,3.2437,3.3395,3.3425,3.3933,3.4444,3.4474,3.4981,3.5489,3.5519,3.5519,3.5729,3.6387,3.6985,3.7614,3.8272,3.7823,3.7644,3.8272,3.7255,3.7015,0.0,3.8422,3.8691,3.9343,3.9373,3.9373,3.9373,3.9373,3.9373,3.9373,3.9373,3.9373,3.9373,3.9373,3.9373,3.9373,3.9373,3.9373,3.9373,3.9373,3.9373,3.9373,3.9373,3.9373,3.9373,3.9373,3.9373,3.9373,3.9373,3.9373,3.9373,3.9373,3.9373,3.9445,3.9869,4.0331,4.0851,4.1189,4.1179,4.1019,4.0767,4.0369,3.9952,3.974,3.9884,4.0113,4.0113,4.0113,4.0079,4.0079,3.9503,3.8768,3.8024,3.728,3.6535,3.5735,3.56,3.56,3.56,3.56,3.56,3.56,3.5566,3.5318,3.4539,3.3173,3.2022,3.1258,3.119,3.119,3.119,3.119,3.119,3.119,3.119,3.119,3.119,3.119,3.119,3.119,3.119,3.119,3.119,3.119,3.119,3.1224,3.1921,3.2293,2.8633,0.0,3.1421,3.2557,3.3484,3.4262,3.4741,3.5011,3.516,3.516,3.4981,3.4863,3.4863,3.4863,3.504,3.5729,3.6716,3.7494,3.7704,3.7913,3.7973,3.7764,3.6985,0.0,0.0,0.0,0.0,3.9379,3.9373,3.9582,4.0038,4.0068,4.0277,4.0696,4.0307,4.0068,4.0068,3.9649,3.9649,4.0068,4.0516,4.0726,4.0726,4.0726,4.0726,4.0726,4.0726,4.0457,4.0068,4.0068,3.9798,3.9373,3.9373,3.9373,3.9409,3.9553,3.9661,3.9833,3.9975,4.0335,4.0789,4.1189,4.118,4.1051,4.1227,4.0733,4.0106,4.0234,4.0202,4.0113,4.0113,4.0113,4.0113,4.0113,3.9537,3.8802,3.8058,3.7313,3.6558,3.5769,3.56,3.56,3.56,3.56,3.56,3.56,3.5182,3.4776,3.4539,3.3626,3.2916,3.2679,3.2205,3.1921,3.1921,3.1481,3.119,3.119,3.119,3.119,3.119,3.119,3.119,3.119,3.119,3.119,3.119,3.119,3.1427,3.1955,3.2192,3.2835,2.9983,3.142,3.2796,3.3634,3.4352,3.4951,3.54,3.531,3.513,3.513,3.4412,3.3844,3.4114,3.4144,3.4352,3.5011,3.6417,3.7404,3.7404,3.7973,3.8242,3.7823,3.7195,3.7225,0.0,0.0,0.0,3.9379,3.9373,3.9709,4.0367,4.0397,4.0696,4.1392,4.0756,4.0397,4.0397,3.9738,3.9738,4.0397,4.1055,4.1422,4.1422,4.1422,4.1422,4.1422,4.1422,4.0995,4.0397,4.0397,4.0008,3.9373,3.9373,3.9373,3.9409,3.9696,4.0016,4.0231,4.0191,4.0509,4.0992,4.1425,4.1565,4.1623,4.1857,4.1522,4.0973,4.0809,4.0598,4.0451,4.018,4.0113,4.0113,4.0113,3.974,3.9174,3.8464,3.7719,3.6941,3.6197,3.5802,3.56,3.56,3.56,3.56,3.56,3.5216,3.481,3.4539,3.41,3.3694,3.3423,3.2983,3.2598,3.2327,3.1887,3.1481,3.1224,3.119,3.119,3.119,3.119,3.119,3.119,3.119,3.119,3.119,3.1481,3.1853,3.2327,3.2835,3.3613,3.1421,3.3066,3.4563,3.4563,3.5011,3.5489,3.5459,3.4921,3.4444,3.4414,3.3305,3.2557,0.0,0.0,3.3574,3.4294,3.6028,3.7345,3.7404,3.7973,3.8392,0.0,0.0,0.0,0.0,0.0,0.0,3.9379,3.9373,3.9738,4.0397,4.0457,4.0756,4.1474,4.0846,4.0487,4.0487,3.9888,3.9888,4.0516,4.1175,4.1474,4.1474,4.1474,4.1474,4.1474,4.1474,4.1115,4.0487,4.0487,4.0098,3.9433,3.9433,3.9439,3.9445,3.9869,4.0305,4.0724,4.0612,4.0919,4.1423,4.1948,4.2333,4.2611,4.2561,4.265,4.2517,4.1379,4.1133,4.1035,4.0282,4.0113,4.0113,4.0113,4.0113,3.991,3.914,3.8464,3.7753,3.6998,3.6197,3.5633,3.56,3.56,3.56,3.56,3.56,3.5329,3.4641,3.4539,3.4303,3.3592,3.3491,3.3186,3.2462,3.2395,3.2056,3.136,3.1292,3.1292,3.1292,3.1258,3.1258,3.1258,3.1224,3.1224,3.1258,3.1955,3.2327,3.2462,3.385,3.4506,3.2677,3.4083,3.525,3.525,3.537,3.537,3.4861,3.4233,3.3604,3.3125,3.1599,3.0522,0.0,0.0,0.0,3.2826,3.4681,0.0,3.7285,3.7973,0.0,3.911,0.0,3.8422,3.908,3.8691,0.0,3.9379,3.9373,3.9918,4.1055,4.1145,4.1654,4.2751,4.2192,4.1901,4.1901,4.1722,4.1722,4.1901,4.2521,4.2851,4.2851,4.2851,4.2851,4.2851,4.2851,4.2462,4.1901,4.1901,4.1175,4.0157,4.0157,3.9858,3.9445,3.995,4.0516,4.1129,4.1557,4.1754,4.1885,4.2269,4.274,4.3169,4.3393,4.3337,4.3036,4.2172,4.1583,4.1035,4.0282,4.0113,4.0113,4.0113,4.0113,3.991,3.914,3.8836,3.8497,3.7753,3.7009,3.6299,3.5701,3.56,3.56,3.56,3.56,3.5532,3.5329,3.5295,3.5228,3.5059,3.4539,3.4134,3.3986,3.3423,3.3051,3.2848,3.2848,3.2848,3.2848,3.2327,3.2022,3.2022,3.1481,3.1461,3.2022,3.2226,3.2869,3.3952,3.4303,3.4776,3.3724,3.4921,3.5878,3.5579,3.528,3.4891,3.4203,3.3095,3.1988,3.136,2.9654,0.0,2.9505,0.0,0.0,0.0,0.0,0.0,3.6866,3.7793,3.8631,0.0,3.908,0.0,3.9343,3.908,3.911,0.0,3.9589,4.0008,4.1362,4.1422,4.1983,4.326,4.2701,4.2261,4.1961,4.2261,4.241,4.241,4.303,4.329,4.329,4.329,4.329,4.329,4.329,4.297,4.241,4.241,4.1632,4.0397,4.0397,4.0008,3.9481,4.0091,4.0857,4.1657,4.2301,4.2803,4.3139,4.3017,4.3229,4.3562,4.3919,4.3995,4.3775,4.2997,4.2252,4.1508,4.0764,4.035,4.0113,4.0113,4.0113,4.0011,3.9571,3.9233,3.8768,3.8058,3.728,3.666,3.6197,3.5836,3.56,3.56,3.56,3.56,3.56,3.56,3.56,3.56,3.525,3.4844,3.4539,3.41,3.3728,3.3423,3.3423,3.3423,3.3423,3.2983,3.2632,3.2293,3.2205,3.2205,3.2293,3.2936,3.3681,3.4506,3.4844,3.5194,3.4653,3.5552,3.6327,3.5669,3.4981,3.4294,3.3425,3.1689,3.0013,2.9205,0.0,2.6482,2.7829,2.8607,2.9535,3.1002,0.0,3.54,3.6237,3.7464,3.8512,3.92,3.9379,3.9403,3.9493,3.9523,3.9828,4.0487,4.0008,4.0217,4.1482,4.1504,4.2073,4.326,4.2791,4.2261,4.1654,4.2261,4.253,4.253,4.306,4.329,4.329,4.329,4.329,4.329,4.329,4.3,4.253,4.253,4.1811,4.0666,4.0666,4.0217,3.9601,4.0349,4.1221,4.2109,4.2834,4.3743,4.4497,4.3919,4.3802,4.3948,4.4236,4.4468,4.4418,4.3639,4.2861,4.2117,4.1407,4.0629,4.0113,4.0113,4.0113,4.0113,4.0113,3.9605,3.8937,3.8193,3.7516,3.7032,3.6829,3.6231,3.5701,3.5633,3.56,3.56,3.56,3.56,3.56,3.56,3.56,3.5329,3.4709,3.4641,3.437,3.3728,3.3694,3.3694,3.3694,3.3592,3.3254,3.2598,3.3119,3.3119,3.2598,3.3884,3.4539,3.4641,3.5295,3.56,3.534,3.5878,3.6327,3.5669,3.4981,3.4023,3.2228,3.0315,0.0,0.0,2.4717,2.3781,2.5053,2.583,2.7081,2.9535,0.0,0.0,0.0,0.0,3.7823,0.0,0.0,0.0,0.0,0.0,0.0,0.0,4.1115,4.1422,4.2201,4.2231,4.2551,4.326,4.32,4.308,4.2961,4.308,4.311,4.314,4.323,4.329,4.329,4.329,4.329,4.329,4.329,4.323,4.311,4.311,4.2701,4.2051,4.2051,4.1294,4.0291,4.1051,4.1628,4.2109,4.2834,4.3743,4.4587,4.444,4.444,4.4468,4.4525,4.4587,4.4418,4.3639,4.2861,4.2117,4.1407,4.0629,4.0113,4.0113,4.0113,4.0113,4.0113,4.0011,3.9706,3.8937,3.87,3.8227,3.6998,3.6694,3.6366,3.5701,3.56,3.56,3.56,3.56,3.56,3.56,3.56,3.5532,3.543,3.5397,3.5329,3.5228,3.5228,3.5228,3.5228,3.4641,3.4235,3.41,3.366,3.3626,3.4121,3.437,3.481,3.5397,3.5532,3.56,3.5699,3.6237,3.6656,3.531,3.4503,3.3365,3.1031,0.0,0.0,0.0,2.3281,2.2473,2.343,0.0,0.0,0.0,0.0,0.0,0.0,0.0,0.0,0.0,0.0,0.0,0.0,0.0,4.0816,4.1841,4.1931,4.2081,4.2381,4.2671,4.3,4.329,4.329,4.329,4.329,4.329,4.329,4.329,4.329,4.329,4.329,4.329,4.315,4.2851,4.314,4.315,4.2851,4.314,4.294,4.241,4.241,4.1602,4.0471,4.1234,4.1721,4.2109,4.2834,4.3743,4.4615,4.4615,4.4615,4.4615,4.4615,4.4615,4.4513,4.4113,4.347,4.2692,4.1948,4.1238,4.0561,4.018,4.0113,4.0113,4.0113,4.0113,4.0011,3.9639,3.9242,3.8768,3.8082,3.7618,3.7246,3.685,3.6468,3.6231,3.6231,3.5836,3.56,3.56,3.56,3.56,3.56,3.56,3.56,3.56,3.56,3.56,3.56,3.5284,3.4878,3.4506,3.4539,3.4539,3.4506,3.4878,3.5228,3.56,3.56,3.56,3.5818,3.6357,3.6776,3.4953,3.3873,3.2587,2.9953,2.7709,0.0,0.0,2.2173,2.1475,2.2164,0.0,2.4455,0.0,0.0,0.0,0.0,0.0,0.0,0.0,0.0,0.0,0.0,4.0606,0.0,4.25,4.262,4.262,4.262,4.306,4.329,4.329,4.329,4.329,4.329,4.329,4.329,4.329,4.329,4.329,4.329,4.329,4.297,4.244,4.306,4.297,4.244,4.306,4.303,4.262,4.2659,4.1888,4.0828,4.1597,4.1983,4.2237,4.2958,4.3802,4.4615,4.4615,4.4615,4.4615,4.4615,4.4615,4.4615,4.4615,4.4012,4.3274,4.2692,4.188,4.1001,4.0282,4.0113,4.0113,4.0113,4.0113,4.0113,4.0113,3.9639,3.9174,3.9005,3.8531,3.8091,3.7922,3.7415,3.6998,3.6829,3.6231,3.5769,3.5633,3.56,3.56,3.56,3.56,3.56,3.56,3.56,3.56,3.56,3.56,3.5329,3.4742,3.5295,3.5295,3.4742,3.5295,3.56,3.56,3.56,3.56,3.5699,3.6028,3.6237,3.4863,3.3544,3.1928,2.9295,0.0,0.0,2.2263,2.0797,2.0079,2.0748,2.1485,2.2592,0.0,0.0,2.9475,0.0,0.0,0.0,0.0,0.0,0.0,0.0,4.1294,4.1833,4.311,4.32,4.32,4.32,4.326,4.329,4.329,4.329,4.329,4.329,4.329,4.329,4.329,4.329,4.329,4.329,4.329,4.297,4.244,4.306,4.297,4.244,4.306,4.326,4.324,4.3506,4.2848,4.1869,4.2776,4.2831,4.2552,4.3292,4.4006,4.4615,4.4615,4.4615,4.4615,4.4615,4.4615,4.4615,4.4615,4.4012,4.3375,4.3308,4.2252,4.1001,4.0282,4.0113,4.0113,4.0113,4.0113,4.0113,4.0113,4.0045,3.9808,3.9106,3.8937,3.8667,3.799,3.7855,3.755,3.6897,3.6761,3.64,3.5667,3.56,3.56,3.56,3.56,3.56,3.56,3.56,3.56,3.56,3.56,3.5566,3.5498,3.5566,3.5566,3.5498,3.5566,3.56,3.56,3.56,3.56,3.507,3.5669,3.6058,3.4322,3.3185,3.1719,2.8667,0.0,2.4036,2.2113,2.0636,1.9798,2.0049,2.0647,2.1635,2.3191,2.5345,2.7619,3.0013,0.0,0.0,0.0,0.0,0.0,0.0,0.0,4.1504,4.317,4.329,4.329,4.329,4.329,4.315,4.2761,4.312,4.315,4.2761,4.315,4.329,4.329,4.329,4.312,4.2761,4.2761,4.2162,4.1235,4.2282,4.2372,4.1901,4.291,4.312,4.28,4.3081,4.2643,4.1894,4.2702,4.2975,4.3047,4.3532,4.4126,4.4615,4.4615,4.4615,4.4615,4.4615,4.4615,4.4615,4.4615,4.4378,4.4012,4.3538,4.232,4.1001,4.0282,4.0113,4.0113,4.0113,4.0113,4.0113,4.0113,4.0113,4.0011,3.9706,3.9673,3.9571,3.9276,3.8836,3.8464,3.8159,3.7719,3.7178,3.64,3.5893,3.56,3.56,3.56,3.56,3.56,3.56,3.56,3.56,3.56,3.56,3.56,3.56,3.56,3.56,3.56,3.56,3.56,3.56,3.56,3.4533,3.531,3.5759,3.3933,3.2856,3.142,0.0,2.5884,2.3797,2.2054,2.0636,1.9708,1.9708,2.0079,2.0827,2.2194,2.3879,2.5944,2.8633,0.0,0.0,0.0,0.0,3.7644,0.0,4.0247,4.1624,4.317,4.329,4.32,4.306,4.303,4.2851,4.241,4.3,4.303,4.241,4.3,4.329,4.329,4.329,4.3,4.241,4.241,4.1692,4.0487,4.188,4.2136,4.1663,4.3025,4.3253,4.2765,4.3152,4.2772,4.2125,4.2903,4.3295,4.3502,4.3831,4.4241,4.4615,4.4615,4.4615,4.4615,4.4615,4.4615,4.4615,4.4615,4.4615,4.435,4.3335,4.232,4.1271,4.035,4.0113,4.0113,4.0113,4.0113,4.0113,4.0113,4.0113,4.0113,4.0113,4.0113,4.0113,4.0113,3.9673,3.9266,3.9039,3.8531,3.7855,3.6897,3.6299,3.5836,3.5633,3.56,3.56,3.56,3.56,3.56,3.56,3.56,3.56,3.56,3.56,3.56,3.56,3.56,3.5701,3.596,3.596,3.6096,3.4144,3.4981,3.519,3.3844,3.2527,3.0823,0.0,2.5548,2.3251,2.1964,2.0636,1.9708,1.9708,1.9708,2.0157,2.1485,2.2772,2.4537,2.7255,0.0,0.0,0.0,0.0,3.6985,3.8272,4.0823,4.2611,4.323,4.329,4.306,4.244,4.241,4.241,4.241,4.3,4.303,4.241,4.3,4.329,4.329,4.329,4.3,4.241,4.241,4.1692,4.0487,4.2032,4.2402,4.2119,4.364,4.3945,4.3556,4.4081,4.3696,4.2903,4.3782,4.3948,4.386,4.4179,4.444,4.4615,4.4615,4.4615,4.4615,4.4615,4.4615,4.4615,4.4615,4.4615,4.4242,4.2692,4.2286,4.1914,4.0451,4.0113,4.0113,4.0113,4.0113,4.0113,4.0113,4.0113,4.0113,4.0113,4.0113,4.0113,4.0113,4.0079,3.9842,3.9073,3.8971,3.843,3.6965,3.6795,3.6468,3.5667,3.56,3.56,3.56,3.56,3.56,3.56,3.56,3.56,3.56,3.56,3.56,3.56,3.56,3.6028,3.6795,3.6795,3.7178,3.1539,3.2258,3.2557,3.1659,3.0492,2.8936,2.6722,2.4537,2.2613,2.1306,2.0318,1.9708,1.9708,1.9708,2.0157,2.1485,2.2772,2.4537,0.0,0.0,0.0,0.0,3.5639,3.7823,0.0,4.0935,4.2162,4.32,4.329,4.306,4.244,4.241,4.1991,4.1055,4.1654,4.1683,4.1025,4.1683,4.2013,4.2013,4.2013,4.1654,4.1025,4.1025,4.0546,3.9768,4.0969,4.1584,4.1899,4.3046,4.3376,4.32,4.3607,4.3492,4.319,4.3715,4.409,4.4355,4.4468,4.4559,4.4615,4.4615,4.4615,4.4615,4.4615,4.4615,4.4615,4.4615,4.4615,4.4242,4.2692,4.2286,4.1914,4.0451,4.0113,4.0113,4.0113,4.0113,4.0113,4.0113,4.0113,4.0113,4.0113,4.0113,4.0113,4.0113,4.0113,4.0011,3.9774,3.9774,3.9402,3.8396,3.8294,3.755,3.5735,3.56,3.56,3.56,3.56,3.56,3.56,3.56,3.56,3.56,3.56,3.56,3.56,3.6163,3.6806,3.755,3.755,3.7956,0.0,3.0283,3.0642,2.9953,2.8816,2.738,2.5621,2.3729,2.1994,2.0927,2.0168,1.9708,1.9708,1.9708,2.0157,2.1485,2.2562,2.42,0.0,0.0,0.0,0.0,0.0,0.0,0.0,4.1235,4.2192,4.32,4.329,4.294,4.2081,4.2021,4.1384,4.0068,4.0905,4.1055,4.0397,4.1055,4.1422,4.1422,4.1422,4.1025,4.0397,4.0397,4.0038,3.9469,4.0571,4.1387,0.0,4.3088,4.3508,4.346,4.3781,4.3732,4.3532,4.3889,4.427,4.4615,4.4615,4.4615,4.4615,4.4615,4.4615,4.4615,4.4615,4.4615,4.4615,4.4615,4.4615,4.4242,4.2692,4.2286,4.1914,4.0451,4.0113,4.0113,4.0113,4.0113,4.0113,4.0113,4.0113,4.0113,4.0113,4.0113,4.0113,4.0113,4.0113,4.0113,4.0113,4.0113,3.9842,3.9073,3.9005,3.8294,3.6614,3.6231,3.6062,3.6062,3.5769,3.5735,3.6062,3.6062,3.6197,3.6445,3.6479,3.6479,3.6479,3.7246,3.7855,3.8328,3.8599,3.8971,0.0,2.8727,2.9146,2.8547,2.738,2.6033,2.4754,2.299,0.0,2.0748,2.0139,1.9708,1.9768,1.9768,2.0198,2.1605,2.2433,2.3811,0.0,0.0,0.0,0.0,3.7704,0.0,4.0337,4.1662,4.2641,4.323,4.326,4.2701,4.1444,4.1324,4.0726,3.9469,4.0606,4.0935,4.0337,4.0935,4.1235,4.1235,4.1235,4.0935,4.0337,4.0337,4.0008,3.9469,4.072,4.1643,4.2367,4.354,4.4075,4.4187,4.4497,4.4311,4.3889,4.4207,4.444,4.4615,4.4615,4.4615,4.4615,4.4615,4.4615,4.4615,4.4615,4.4615,4.4615,4.4615,4.4615,4.4276,4.276,4.2388,4.2016,4.0587,4.0248,4.0248,4.018,4.018,4.018,4.0113,4.0113,4.0113,4.0113,4.0113,4.0113,4.0113,4.0113,4.0113,4.0113,4.0113,3.9842,3.914,3.9073,3.8802,3.8125,3.7313,3.6897,3.6897,3.6197,3.6096,3.6863,3.6897,3.7202,3.7889,3.7922,3.7922,3.799,3.8667,3.9005,3.9073,3.9774,4.0113,2.3601,0.0,2.6512,2.6363,2.5285,2.4088,0.0,2.1994,2.0737,2.0079,0.0,1.9857,2.0378,2.0449,2.1066,2.2862,2.4148,2.5854,2.8543,0.0,0.0,3.7644,3.8661,3.9709,4.1025,4.1931,4.2641,4.323,4.288,4.2291,4.1414,4.0905,4.0247,3.9439,3.9709,3.9798,3.9649,3.9798,3.9888,3.9888,3.9888,3.9798,3.9649,3.9649,3.9559,3.9475,4.0309,4.1205,4.214,4.3006,4.3781,4.4476,4.4596,4.4524,4.4412,4.4497,4.4587,4.4615,4.4615,4.4615,4.4615,4.4615,4.4615,4.4615,4.4615,4.4615,4.4615,4.4615,4.4615,4.4378,4.3403,4.3139,4.2929,4.1982,4.1805,4.161,4.1068,4.0933,4.0764,4.0214,4.0113,4.0113,4.0113,4.0113,4.0113,4.0113,4.0113,4.0113,4.0113,4.0113,4.0045,3.9876,3.9842,3.9774,3.9605,3.8396,3.7652,3.7652,3.7483,3.7449,3.7618,3.7652,3.7719,3.7922,3.7922,3.8193,3.8734,3.8903,3.9276,3.9842,4.0011,4.0113,2.1964,2.343,2.4687,2.4687,2.3939,2.3032,2.2403,0.0,0.0,0.0,0.0,1.9899,2.0569,2.0927,2.1814,2.3738,2.5196,0.0,0.0,0.0,3.6686,3.8631,3.9469,4.0157,4.0876,4.1572,4.2111,4.2402,4.2102,4.1662,4.0965,4.0606,4.0098,3.9403,3.9373,3.9373,3.9373,3.9373,3.9373,3.9373,3.9373,3.9373,3.9373,3.9373,3.9373,3.9445,4.0191,4.1091,4.2078,4.2803,4.3684,4.4615,4.4615,4.4615,4.4615,4.4615,4.4615,4.4615,4.4615,4.4615,4.4615,4.4615,4.4615,4.4615,4.4615,4.4615,4.4615,4.4615,4.4615,4.4384,4.3606,4.3375,4.3206,4.2489,4.2286,4.2083,4.1373,4.1204,4.0967,4.0248,4.0113,4.0113,4.0113,4.0113,4.0113,4.0113,4.0113,4.0113,4.0113,4.0113,4.0113,4.0113,4.0113,4.0113,4.0113,3.9368,3.8768,3.843,3.8091,3.8058,3.8396,3.8396,3.8565,3.8903,3.8903,3.9106,3.9478,3.9478,3.9706,4.0113,4.0113,4.0113,2.1485,2.2712,2.3759,2.3759,2.3281,2.2703,2.2113,0.0,0.0,0.0,0.0,0.0,0.0,2.1695,0.0,0.0,0.0,0.0,3.4114,3.5848,3.7315,3.92,4.0008,4.0397,4.0397,4.0995,4.1422,4.1422,4.1332,4.0995,4.0427,4.0307,4.0008,3.9439,3.9373,3.9373,3.9373,3.9373,3.9373,3.9373,3.9373,3.9373,3.9373,3.9373,3.9373,3.9445,4.0191,4.1091,4.2078,4.2803,4.3684,4.4615,4.4615,4.4615,4.4615,4.4615,4.4615,4.4615,4.4615,4.4615,4.4615,4.4615,4.4615,4.4615,4.4615,4.4615,4.4615,4.4615,4.4615,4.4445,4.3775,4.3606,4.3436,4.2794,4.2625,4.2455,4.1711,4.1542,4.1305,4.0587,4.035,4.0282,4.0282,4.018,4.0113,4.0113,4.0113,4.0113,4.0113,4.0113,4.0113,4.0113,4.0113,4.0113,4.0113,4.0113,3.9842,3.9208,3.8565,3.8531,3.914,3.9174,3.9469,4.0079,4.0113,4.0113,4.0113,4.0113,4.0113,4.0113,4.0113,4.0113,2.1365,2.302,2.4455,2.4455,2.3947,2.343,2.334,0.0,0.0,0.0,0.0,0.0,0.0,2.3708,2.4814,0.0,0.0,3.2677,0.0,0.0,3.7793,3.926,4.0008,4.0397,4.0397,4.0995,4.1422,4.1422,4.0876,4.0516,4.0397,3.9858,3.9493,3.9373,3.9373,3.9373,3.9373,3.9373,3.9373,3.9373,3.9373,3.9373,3.9373,3.9373,3.9373,3.9445,4.0191,4.1091,4.2078,4.2803,4.3684,4.4615,4.4615,4.4615,4.4615,4.4615,4.4615,4.4615,4.4615,4.4615,4.4615,4.4615,4.4615,4.4615,4.4615,4.4615,4.4615,4.4615,4.4615,4.4581,4.4445,4.4445,4.4412,4.4276,4.4242,4.4012,4.3234,4.3037,4.2861,4.2117,4.1441,4.1035,4.1035,4.0493,4.0113,4.0113,4.0113,4.0113,4.0113,4.0113,4.0113,4.0113,4.0113,4.0113,4.0113,4.0113,4.0045,3.9943,3.9842,3.9808,3.9943,3.9943,3.9977,4.0113,4.0113,4.0113,4.0113,4.0113,4.0113,4.0113,4.0113,4.0113,2.1335,2.2862,2.4216,2.4963,2.5196,2.5016,2.4328,2.34,0.0,0.0,0.0,0.0,0.0,0.0,2.72,3.0283,0.0,3.4801,3.6716,3.7524,3.8302,3.9254,3.9679,3.9858,3.9858,4.0157,4.0337,4.0337,4.0038,3.9858,3.9858,3.9589,3.9373,3.9373,3.9373,3.9373,3.9373,3.9373,3.9373,3.9373,3.9373,3.9373,3.9373,3.9517,3.9625,3.9768,4.0578,4.1426,4.2332,4.308,4.386,4.4615,4.4615,4.4615,4.4615,4.4615,4.4615,4.4615,4.4615,4.4615,4.4615,4.4615,4.4615,4.4615,4.4615,4.4615,4.4615,4.4615,4.4615,4.4615,4.4615,4.4615,4.4615,4.4615,4.4615,4.4378,4.3544,4.3375,4.32,4.2422,4.2016,4.1677,4.1271,4.1238,4.1136,4.073,4.1001,4.1162,4.073,4.0696,4.0527,4.0146,4.0113,4.0113,4.0113,4.0113,4.0113,4.0113,4.0113,4.0113,4.0113,4.0113,4.0113,4.0113,4.0113,4.0113,4.0113,4.0113,4.0113,4.0113,4.0113,4.0113,2.1186,2.2503,2.3849,2.4896,0.0,2.6363,2.5525,2.4777,0.0,0.0,0.0,0.0,0.0,2.75,0.0,3.3365,3.4831,3.5998,3.7434,3.8063,3.8631,3.9313,3.9373,3.9373,3.9373,3.9373,3.9373,3.9373,3.9373,3.9373,3.9373,3.9373,3.9373,3.9373,3.9373,3.9373,3.9373,3.9373,3.9373,3.9373,3.9373,3.9373,3.9409,3.9661,3.991,4.0226,4.1024,4.1884,4.2738,4.3383,4.4006,4.4615,4.4615,4.4615,4.4615,4.4615,4.4615,4.4615,4.4615,4.4615,4.4615,4.4615,4.4615,4.4615,4.4615,4.4615,4.4615,4.4615,4.4615,4.4615,4.4615,4.4615,4.4615,4.4615,4.4615,4.4418,4.3809,4.3673,4.3504,4.2929,4.2692,4.2388,4.1813,4.2049,4.2117,4.1542,4.1948,4.2083,4.1542,4.1474,4.117,4.0451,4.0383,4.0282,4.0113,4.0113,4.0113,4.0113,4.0113,4.0113,4.0113,4.0113,4.0113,4.0113,4.0113,4.0113,4.0113,4.0113,4.0113,4.0113,4.0113,4.0113,2.0748,2.2173,2.361,2.3729,2.5166,2.6746,2.7255,2.6866,0.0,2.7195,0.0,0.0,0.0,2.9953,3.2138,3.4921,3.5459,3.6178,3.8063,3.8362,3.8631,3.9313,3.9373,3.9373,3.9373,3.9373,3.9373,3.9373,3.9373,3.9373,3.9373,3.9373,3.9373,3.9373,3.9373,3.9373,3.9373,3.9373,3.9373,3.9373,3.9373,3.9373,3.9409,3.9798,4.0231,4.069,4.1459,4.2332,4.3259,4.3621,4.4126,4.4615,4.4615,4.4615,4.4615,4.4615,4.4615,4.4615,4.4615,4.4615,4.4615,4.4615,4.4615,4.4615,4.4615,4.4615,4.4615,4.4615,4.4615,4.4615,4.4615,4.4615,4.4615,4.4615,4.4615,4.4581,4.4547,4.4513,4.4513,4.4445,4.3842,4.3274,4.324,4.2726,4.2286,4.2219,4.2252,4.2286,4.2219,4.2219,4.1948,4.1204,4.1136,4.0832,4.018,4.0113,4.0113,4.0113,4.0113,4.0113,4.0113,4.0113,4.0113,4.0113,4.0113,4.0113,4.0113,4.0113,4.0113,4.0113,4.0113,4.0113,2.1814,2.2742,2.3789,2.4657,2.6033,0.0,0.0,2.8064,2.8637,2.9265,2.9744,0.0,0.0,0.0,3.3963,3.5818,3.6447,3.7225,3.8811,3.902,3.914,3.9379,3.9373,3.9373,3.9373,3.9373,3.9373,3.9373,3.9373,3.9373,3.9373,3.9373,3.9373,3.9373,3.9373,3.9373,3.9373,3.9373,3.9373,3.9373,3.9517,3.9661,3.9768,4.037,4.0922,4.1459,4.2237,4.2988,4.3621,4.3977,4.4327,4.4615,4.4615,4.4615,4.4615,4.4615,4.4615,4.4615,4.4615,4.4615,4.4615,4.4615,4.4615,4.4615,4.4615,4.4615,4.4615,4.4615,4.4615,4.4615,4.4615,4.4615,4.4615,4.4615,4.4615,4.4615,4.4615,4.4615,4.4615,4.4615,4.435,4.3978,4.3504,4.3572,4.3538,4.3064,4.3403,4.3538,4.3064,4.2997,4.2692,4.1948,4.1474,4.1102,4.0798,4.0383,4.0113,4.0113,4.0113,4.0113,4.0113,4.0113,4.0113,4.0113,4.0113,4.0113,4.0113,4.0113,4.0113,4.0113,4.0561,4.0764,2.2254,2.2853,2.358,2.4687,0.0,0.0,2.8094,2.9235,3.0432,3.127,3.1839,3.2318,3.3006,0.0,0.0,3.6537,3.7135,3.7883,3.9194,3.9373,3.9373,3.9373,3.9373,3.9373,3.9373,3.9373,3.9373,3.9373,3.9373,3.9373,3.9373,3.9373,3.9373,3.9373,3.9373,3.9373,3.9373,3.9445,3.9517,3.9589,3.995,4.0161,4.0231,4.0956,4.1624,4.2301,4.3019,4.3595,4.4064,4.4298,4.4468,4.4615,4.4615,4.4615,4.4615,4.4615,4.4615,4.4615,4.4615,4.4615,4.4615,4.4615,4.4615,4.4615,4.4615,4.4615,4.4615,4.4615,4.4615,4.4615,4.4615,4.4615,4.4615,4.4615,4.4615,4.4615,4.4615,4.4615,4.4615,4.4615,4.4615,4.4445,4.3876,4.4215,4.4384,4.3876,4.4248,4.4412,4.3842,4.3775,4.3504,4.2726,4.1982,4.1542,4.1542,4.1068,4.079,4.079,4.079,4.0587,4.0113,4.0113,4.0113,4.0113,4.0113,4.0113,4.0113,4.0113,4.0214,4.0485,4.0967,4.1339,2.1724,2.2224,2.2882,2.349,0.0,0.0,2.9172,3.0612,3.1899,3.3245,3.3514,3.3724,3.4384,3.4503,0.0,3.7075,3.7404,3.7883,3.9194,3.9373,3.9373,3.9373,3.9373,3.9373,3.9373,3.9373,3.9373,3.9373,3.9373,3.9373,3.9373,3.9373,3.9373,3.9373,3.9373,3.9373,3.9373,3.9589,3.9803,4.0011,4.0684,4.0925,4.0758,4.1492,4.2364,4.3323,4.3684,4.4126,4.4615,4.4615,4.4615,4.4615,4.4615,4.4615,4.4615,4.4615,4.4615,4.4615,4.4615,4.4615,4.4615,4.4615,4.4615,4.4615,4.4615,4.4615,4.4615,4.4615,4.4615,4.4615,4.4615,4.4615,4.4615,4.4615,4.4615,4.4615,4.4615,4.4615,4.4615,4.4615,4.4615,4.4615,4.4615,4.4615,4.4615,4.4615,4.4615,4.4615,4.4615,4.4615,4.4282,4.3477,4.276,4.2286,4.2286,4.2286,4.2286,4.2286,4.2286,4.1636,4.018,4.0113,4.0113,4.0113,4.0113,4.0113,4.0113,4.0113,4.0493,4.1204,4.1238,4.161,2.352,2.3887,0.0,2.6027,0.0,0.0,0.0,3.1958,0.0,0.0,3.4921,3.4831,3.4563,3.4891,3.5549,3.6596,3.7135,3.7883,3.9194,3.9373,3.9373,3.9373,3.9373,3.9373,3.9373,3.9373,3.9373,3.9373,3.9373,3.9373,3.9373,3.9373,3.9373,3.9373,3.9373,3.9373,3.9373,3.9732,4.0091,4.0481,4.1227,4.1525,4.1525,4.2332,4.305,4.3651,4.4006,4.4327,4.4615,4.4615,4.4615,4.4615,4.4615,4.4615,4.4615,4.4615,4.4615,4.4615,4.4615,4.4615,4.4615,4.4615,4.4615,4.4615,4.4615,4.4615,4.4615,4.4615,4.4615,4.4615,4.4615,4.4615,4.4615,4.4615,4.4615,4.4615,4.4615,4.4615,4.4615,4.4615,4.4615,4.4615,4.4615,4.4615,4.4615,4.4615,4.4615,4.4615,4.4615,4.4615,4.4513,4.4248,4.3538,4.3064,4.3064,4.2591,4.2286,4.2286,4.2286,4.2083,4.1644,4.1136,4.0865,4.0865,4.0383,4.0383,4.0865,4.0865,4.1238,4.1982,4.2523,4.2834,2.3767,2.4575,0.0,2.747,2.8992,3.0522,3.2766,0.0,0.0,0.0,3.5519,3.537,3.4951,3.522,3.5818,3.6716,3.7165,3.7883,3.9194,3.9373,3.9373,3.9373,3.9373,3.9373,3.9373,3.9373,3.9373,3.9373,3.9373,3.9373,3.9373,3.9481,3.9553,3.9625,3.9696,3.9768,3.9839,4.0296,4.0718,4.1129,4.1949,4.2396,4.2615,4.3141,4.3654,4.4155,4.4327,4.4468,4.4615,4.4615,4.4615,4.4615,4.4615,4.4615,4.4615,4.4615,4.4615,4.4615,4.4615,4.4615,4.4615,4.4615,4.4615,4.4615,4.4615,4.4615,4.4615,4.4615,4.4615,4.4615,4.4615,4.4615,4.4615,4.4615,4.4615,4.4615,4.4615,4.4615,4.4615,4.4615,4.4615,4.4615,4.4615,4.4615,4.4615,4.4615,4.4615,4.4615,4.4615,4.4615,4.4615,4.4615,4.4147,4.3876,4.3876,4.347,4.32,4.32,4.32,4.32,4.32,4.2185,4.1644,4.1644,4.1204,4.117,4.1644,4.1644,4.2016,4.276,4.3172,4.3544,2.3161,2.4687,0.0,2.8248,2.9834,0.0,3.4024,3.507,3.5519,3.5519,0.0,3.5519,3.5519,3.5519,3.5908,3.7135,3.7375,3.7853,3.914,3.9343,3.9409,3.932,3.9343,3.9409,3.932,3.9343,3.9373,3.9373,3.9373,3.9373,3.9373,3.9625,3.9839,4.0051,4.0231,4.0409,4.0646,4.1156,4.159,4.1949,4.2772,4.3416,4.386,4.386,4.4121,4.4615,4.4615,4.4615,4.4615,4.4615,4.4615,4.4615,4.4615,4.4615,4.4615,4.4615,4.4615,4.4615,4.4615,4.4615,4.4615,4.4615,4.4615,4.4615,4.4615,4.4615,4.4615,4.4615,4.4615,4.4615,4.4615,4.4615,4.4615,4.4615,4.4615,4.4615,4.4615,4.4615,4.4615,4.4615,4.4615,4.4615,4.4615,4.4615,4.4615,4.4615,4.4615,4.4615,4.4615,4.4615,4.4615,4.4615,4.4615,4.4615,4.4615,4.4615,4.4615,4.4615,4.4615,4.4615,4.4615,4.3166,4.2388,4.2388,4.232,4.232,4.2388,4.2388,4.2794,4.3538,4.3538,4.391,2.3857,2.5375,0.0,0.0,3.1869,3.3903,3.504,3.54,3.5519,3.5519,3.5519,3.5519,3.5519,3.5519,3.5759,3.6567,3.7105,3.7674,3.8512,3.908,3.92,3.8691,3.908,3.92,3.8661,3.911,3.9373,3.9373,3.9373,3.9373,3.9373,3.9732,4.0126,4.055,4.0826,4.1229,4.1657,4.2046,4.2489,4.2986,4.3413,4.3919,4.4412,4.4236,4.4355,4.4615,4.4615,4.4615,4.4615,4.4615,4.4615,4.4615,4.4615,4.4615,4.4615,4.4615,4.4615,4.4615,4.4615,4.4615,4.4615,4.4615,4.4615,4.4615,4.4615,4.4615,4.4615,4.4615,4.4615,4.4615,4.4615,4.4615,4.4615,4.4615,4.4615,4.4615,4.4615,4.4615,4.4615,4.4615,4.4615,4.4615,4.4615,4.4615,4.4615,4.4615,4.4615,4.4615,4.4615,4.4615,4.4615,4.4615,4.4615,4.4615,4.4615,4.4615,4.4615,4.4615,4.4615,4.4615,4.4615,4.3673,4.3139,4.3139,4.2591,4.2591,4.3139,4.3139,4.3572,4.4316,4.4316,4.4418,2.3588,0.0,0.0,3.112,0.0,3.507,3.5429,3.5519,3.5519,3.5519,3.5519,3.5519,3.5519,3.5519,3.5729,3.6387,3.7015,3.7644,3.8302,3.899,3.917,3.8482,3.899,3.914,3.8452,3.902,3.9373,3.9373,3.9373,3.9373,3.9373,3.9839,4.0339,4.0927,4.1362,4.1917,4.2522,4.2863,4.3199,4.3532,4.3889,4.4241,4.4615,4.4497,4.4497,4.4615,4.4615,4.4615,4.4615,4.4615,4.4615,4.4615,4.4615,4.4615,4.4615,4.4615,4.4615,4.4615,4.4615,4.4615,4.4615,4.4615,4.4615,4.4615,4.4615,4.4615,4.4615,4.4615,4.4615,4.4615,4.4615,4.4615,4.4615,4.4615,4.4615,4.4615,4.4615,4.4615,4.4615,4.4615,4.4615,4.4615,4.4615,4.4615,4.4615,4.4615,4.4615,4.4615,4.4615,4.4615,4.4615,4.4615,4.4615,4.4615,4.4615,4.4615,4.4615,4.4615,4.4615,4.4615,4.4615,4.4181,4.3978,4.3978,4.3606,4.3572,4.3978,4.3978,4.4181,4.4615,4.4615,4.4615,2.3071,0.0,2.9086,3.2617,3.4502,0.0,3.5519,3.5519,3.5519,3.5519,3.5519,3.5519,3.5519,3.5519,3.5699,3.6237,3.6836,3.7434,3.7973,3.8631,3.8811,3.8153,3.8661,3.8811,3.8123,3.8661,3.9044,3.9044,3.9044,3.9044,3.9044,3.9707,4.0399,4.114,4.1917,4.2649,4.3355,4.3654,4.3831,4.3948,4.4207,4.444,4.4615,4.4615,4.4615,4.4615,4.4615,4.4615,4.4615,4.4615,4.4615,4.4615,4.4615,4.4615,4.4615,4.4615,4.4615,4.4615,4.4615,4.4615,4.4615,4.4615,4.4615,4.4615,4.4615,4.4615,4.4615,4.4615,4.4615,4.4649,4.4784,4.4818,4.4818,4.4953,4.4987,4.4919,4.4649,4.4615,4.4615,4.4615,4.4615,4.4615,4.4615,4.4615,4.4615,4.4615,4.4615,4.4615,4.4615,4.4615,4.4615,4.4615,4.4615,4.4615,4.4615,4.4615,4.4615,4.4615,4.4615,4.4615,4.4615,4.4615,4.4615,4.4615,4.4615,4.4615,4.4615,4.4615,4.4615,4.4615,4.4615,4.4615,2.3071,0.0,3.1361,0.0,3.4502,3.5519,0.0,0.0,3.5519,0.0,3.5519,3.5519,3.5519,3.5519,3.5519,3.5639,3.6178,3.6626,3.6716,3.7285,3.7434,3.6806,3.7285,3.7434,3.6806,3.7315,3.7674,3.7674,3.7674,3.7674,3.7674,3.8872,4.0022,4.0991,4.2292,4.3446,4.4384,4.444,4.4502,4.4468,4.4559,4.4553,4.4615,4.4615,4.4615,4.4615,4.4615,4.4615,4.4615,4.4615,4.4615,4.4615,4.4615,4.4615,4.4615,4.4615,4.4615,4.4615,4.4615,4.4615,4.4615,4.4615,4.4615,4.4615,4.4615,4.4615,4.4615,4.4615,4.4615,4.475,4.5399,4.5568,4.5703,4.6346,4.6515,4.6143,4.4886,4.4615,4.4615,4.4615,4.4615,4.4615,4.4615,4.4615,4.4615,4.4615,4.4615,4.4615,4.4615,4.4615,4.4615,4.4615,4.4615,4.4615,4.4615,4.4615,4.4615,4.4615,4.4615,4.4615,4.4615,4.4615,4.4615,4.4615,4.4615,4.4615,4.4615,4.4615,4.4615,4.4615,4.4615,4.4615,2.4448,2.8068,3.136,0.0,3.4502,3.5519,3.5519,0.0,3.5519,3.5519,3.5519,3.5519,3.5519,3.5519,3.5519,3.5519,3.6058,3.6477,3.6477,3.7015,3.7195,3.6567,3.7015,3.7165,3.6537,3.7045,3.7404,3.7404,3.7404,3.7404,3.7404,3.8754,3.9963,4.0989,4.2382,4.3595,4.4587,4.4615,4.4615,4.4615,4.4615,4.4615,4.4615,4.4615,4.4615,4.4615,4.4615,4.4615,4.4615,4.4615,4.4615,4.4615,4.4615,4.4615,4.4615,4.4615,4.4615,4.4615,4.4615,4.4615,4.4615,4.4615,4.4615,4.4615,4.4615,4.4615,4.4615,4.4615,4.4919,4.5297,4.5635,4.6007,4.638,4.6718,4.6786,4.6616,4.594,4.5805,4.5805,4.5805,4.5805,4.5805,4.5805,4.5805,4.5805,4.5805,4.5466,4.5365,4.5771,4.5466,4.5365,4.5799,4.5805,4.5805,4.5805,4.5805,4.5805,4.5805,4.5805,4.5805,4.5805,4.5432,4.5196,4.5196,4.4818,4.4615,4.4615,4.4615,4.4615,4.4615,4.4615,4.4615,2.4717,2.7619,3.0253,3.2228,3.3754,3.4831,0.0,0.0,3.528,3.5459,3.5519,3.5519,3.5519,3.5519,3.5519,3.5519,3.5908,3.6237,3.6237,3.6626,3.6746,3.6297,3.6656,3.6746,3.6297,3.6656,3.6926,3.6926,3.6926,3.6926,3.6926,3.8235,3.9433,4.0444,4.1799,4.3032,4.4012,4.4039,4.4039,4.4039,4.4039,4.4107,4.4282,4.4282,4.4412,4.4615,4.4615,4.4615,4.4615,4.4615,4.4615,4.4615,4.4615,4.4615,4.4615,4.4615,4.4615,4.4615,4.4615,4.4615,4.4615,4.4615,4.4615,4.4615,4.4615,4.4615,4.4649,4.4852,4.5263,4.5805,4.6177,4.6684,4.7124,4.7293,4.7361,4.7259,4.6887,4.6786,4.6786,4.6786,4.6786,4.6786,4.6786,4.6786,4.6786,4.6786,4.6312,4.6177,4.6718,4.6312,4.6177,4.6718,4.6786,4.6786,4.6786,4.6786,4.6786,4.6786,4.6786,4.6786,4.6786,4.6278,4.5974,4.5974,4.5263,4.4818,4.4615,4.4615,4.4615,4.4615,4.4615,4.4615,2.2493,2.5279,2.8214,3.0163,3.1659,0.0,0.0,0.0,3.4711,3.537,3.5519,3.5519,3.5519,3.5519,3.5519,3.5519,3.5519,3.5549,3.5549,3.5579,3.5579,3.5549,3.5579,3.5579,3.5549,3.5579,3.5609,3.5609,3.5609,3.5609,3.5609,3.6863,3.8029,3.8971,4.0304,4.1446,4.2422,4.2422,4.2422,4.2422,4.2422,4.2794,4.3443,4.3443,4.3876,4.4615,4.4615,4.4615,4.4615,4.4615,4.4615,4.4615,4.4615,4.4615,4.4615,4.4615,4.4615,4.4615,4.4615,4.4615,4.4615,4.4615,4.4615,4.4615,4.4615,4.4615,4.475,4.5466,4.5669,4.6041,4.7398,4.7804,4.8007,4.8714,4.8883,4.8511,4.709,4.6786,4.6786,4.6786,4.6786,4.6786,4.6786,4.6786,4.6786,4.6786,4.6752,4.6752,4.6786,4.6752,4.6752,4.6786,4.6786,4.6786,4.6786,4.6786,4.6786,4.6786,4.6786,4.6786,4.6786,4.6752,4.6718,4.6718,4.6007,4.5297,4.4615,4.4615,4.4615,4.4615,4.4615,4.4615,2.1695,2.4118,0.0,2.8274,2.9924,3.145,3.2377,3.3245,3.4053,3.4711,3.519,3.5519,3.5519,3.5519,3.5519,3.5519,3.5519,3.5519,3.5519,3.5519,3.5519,3.5519,3.5519,3.5519,3.5519,3.5519,3.5519,3.5519,3.5557,3.5686,3.5782,3.7155,3.8337,3.9201,4.0496,4.1577,4.2286,4.2286,4.2286,4.2286,4.2286,4.2692,4.3375,4.3375,4.3842,4.4615,4.4615,4.4615,4.4615,4.4615,4.4615,4.4615,4.4615,4.4615,4.4615,4.4615,4.4615,4.4615,4.4615,4.4615,4.4615,4.4615,4.4615,4.4615,4.4615,4.4925,4.5365,4.5635,4.638,4.7229,4.7736,4.8274,4.868,4.8951,4.9018,4.8849,4.8342,4.8206,4.8206,4.8206,4.8206,4.8206,4.8206,4.8206,4.8206,4.8206,4.78,4.7699,4.8139,4.78,4.7699,4.8173,4.8206,4.8206,4.8206,4.8206,4.8206,4.8206,4.8206,4.8206,4.8206,4.7767,4.753,4.753,4.6786,4.6041,4.5297,4.4852,4.4615,4.4615,4.4615,4.4615,2.0378,2.2443,0.0,0.0,0.0,2.9475,3.0612,3.1898,3.3095,3.3994,3.4681,3.522,3.5459,3.5519,3.5519,3.5519,3.5519,3.5519,3.5519,3.5519,3.5519,3.5519,3.5519,3.5519,3.5519,3.5519,3.5519,3.5519,3.5686,3.5911,3.6196,3.7342,3.8439,3.9392,4.0415,4.1144,4.1542,4.1568,4.1568,4.1568,4.1568,4.1948,4.2658,4.2658,4.3234,4.4181,4.4181,4.435,4.4615,4.4615,4.4615,4.4615,4.4615,4.4615,4.4615,4.4615,4.4615,4.4615,4.4615,4.4615,4.4615,4.4615,4.4615,4.4649,4.4891,4.5297,4.5805,4.6312,4.7158,4.7939,4.8176,4.8646,4.9018,4.9018,4.9018,4.9018,4.9018,4.9018,4.9018,4.9018,4.9018,4.9018,4.9018,4.9018,4.9018,4.9018,4.8578,4.8477,4.8951,4.8578,4.8477,4.8951,4.9018,4.9018,4.9018,4.9018,4.9018,4.9018,4.9018,4.9018,4.9018,4.8545,4.8274,4.8274,4.753,4.6921,4.6447,4.5703,4.5359,4.5359,4.5359,4.5359,0.0,0.0,0.0,0.0,0.0,0.0,2.9022,0.0,3.178,3.3155,3.3994,3.4683,3.534,3.5489,3.5519,3.5519,3.5519,3.5519,3.5519,3.5519,3.5519,3.5519,3.5519,3.5519,3.5519,3.5519,3.5519,3.5519,3.5782,3.6196,3.6569,3.7263,3.8193,3.9382,3.985,4.0113,4.0113,4.0113,4.0113,4.0113,4.0113,4.0519,4.1238,4.1238,4.2049,4.3443,4.3443,4.3876,4.4615,4.4615,4.4615,4.4615,4.4615,4.4615,4.4615,4.4615,4.4615,4.4615,4.4615,4.4615,4.4615,4.4615,4.4615,4.4784,4.5466,4.5737,4.6075,4.75,4.7906,4.8075,4.8815,4.9018,4.9018,4.9018,4.9018,4.9018,4.9018,4.9018,4.9018,4.9018,4.9018,4.9018,4.9018,4.9018,4.9018,4.9018,4.9018,4.9018,4.9018,4.9018,4.9018,4.9018,4.9018,4.9018,4.9018,4.9018,4.9018,4.9018,4.9018,4.9018,4.9018,4.9018,4.9018,4.9018,4.8308,4.7906,4.7906,4.7158,4.6786,4.6786,4.6786,4.6786,1.8642,0.0,0.0,0.0,0.0,0.0,0.0,0.0,2.9774,3.1061,3.2617,3.3963,3.4651,3.516,3.5519,3.5519,3.5519,3.5519,3.5519,3.5519,3.5519,3.5519,3.5519,3.5519,3.5519,3.5519,3.5519,3.5519,3.591,3.6383,3.6935,3.8193,3.9162,3.9755,3.9986,4.0113,4.0113,4.0113,4.0113,4.0113,4.0113,4.079,4.1982,4.1982,4.2828,4.4248,4.4248,4.4384,4.4615,4.4615,4.4615,4.4615,4.4615,4.4615,4.4615,4.4615,4.4615,4.4615,4.4615,4.4615,4.4615,4.4615,4.4959,4.5432,4.5635,4.6447,4.7365,4.777,4.8277,4.8748,4.8951,4.9018,4.9018,4.9018,4.9018,4.9018,4.9018,4.9018,4.9018,4.9018,4.9018,4.9018,4.9018,4.9018,4.9018,4.9018,4.9018,4.9018,4.9018,4.9018,4.9018,4.9018,4.9018,4.9018,4.9018,4.9018,4.9018,4.9018,4.9018,4.9018,4.9018,4.9018,4.9018,4.9018,4.8815,4.8714,4.8714,4.7428,4.6786,4.6786,4.6786,4.6786,1.9522,0.0,0.0,0.0,0.0,0.0,2.4455,2.6482,2.8457,2.9505,3.1061,3.2437,3.3125,3.3814,3.4262,3.4262,3.4472,3.4861,3.5429,3.5519,3.5519,3.5519,3.5519,3.5519,3.5519,3.5519,3.5519,3.5519,3.6005,3.6754,3.7767,3.9028,3.9773,3.9986,4.0062,4.0113,4.0113,4.0113,4.0113,4.0113,4.0113,4.0722,4.1847,4.1847,4.2658,4.4079,4.4079,4.4282,4.4615,4.4615,4.4615,4.4615,4.4615,4.4615,4.4615,4.4615,4.4615,4.4615,4.4615,4.4615,4.4649,4.4959,4.5365,4.5805,4.6447,4.7196,4.7939,4.8274,4.868,4.9018,4.9018,4.9018,4.9018,4.9018,4.9018,4.9018,4.9018,4.9018,4.9018,4.9018,4.9018,4.9018,4.9018,4.9018,4.9018,4.9018,4.9018,4.9018,4.9018,4.9018,4.9018,4.9018,4.9018,4.9018,4.9018,4.9018,4.9018,4.9018,4.9018,4.9018,4.9018,4.9018,4.9018,4.9018,4.9018,4.9018,4.9018,4.8139,4.7699,4.7699,4.7699,4.7699,2.1017,2.1455,0.0,0.0,2.3152,0.0,2.4186,2.5824,2.7435,2.8038,2.9235,3.0402,3.1062,3.172,3.2198,3.2198,3.2796,3.3784,3.519,3.54,3.5429,3.5489,3.5519,3.5519,3.5519,3.5519,3.5519,3.5519,3.6195,3.7268,3.8706,3.9618,4.0113,4.0113,4.0113,4.0113,4.0113,4.0113,4.0113,4.0113,4.0113,4.0553,4.1339,4.1339,4.2151,4.3511,4.3511,4.3944,4.4615,4.4615,4.4615,4.4615,4.4615,4.4615,4.4615,4.4615,4.4615,4.4615,4.4615,4.4649,4.4852,4.55,4.5805,4.621,4.75,4.7939,4.8173,4.8815,4.9018,4.9018,4.9018,4.9018,4.9018,4.9018,4.9018,4.9018,4.9018,4.9018,4.9018,4.9018,4.9018,4.9018,4.9018,4.9018,4.9018,4.9018,4.9018,4.9018,4.9018,4.9018,4.9018,4.9018,4.9018,4.9018,4.9018,4.9018,4.9018,4.9018,4.9018,4.9018,4.9018,4.9018,4.9018,4.9018,4.9018,4.9018,4.9018,4.9018,4.9018,4.9018,4.9018,4.9018,2.3041,2.3131,2.3131,2.2793,0.0,0.0,2.2473,2.3789,2.5202,2.5352,2.6871,2.8393,2.9056,2.9714,3.0163,3.0163,3.115,3.2557,3.4412,3.4713,3.4891,3.5429,3.5519,3.5519,3.5519,3.5519,3.5519,3.5519,3.6784,3.7911,3.8761,3.9618,4.0113,4.0113,4.0113,4.0113,4.0113,4.0113,4.0113,4.0113,4.0113,4.0823,4.2083,4.2083,4.2895,4.4378,4.4378,4.4479,4.4615,4.4615,4.4615,4.4615,4.4615,4.4615,4.4615,4.4615,4.4615,4.4615,4.4615,4.4993,4.55,4.5669,4.6515,4.75,4.7804,4.8311,4.8815,4.8951,4.9018,4.9018,4.9018,4.9018,4.9018,4.9018,4.9018,4.9018,4.9018,4.9018,4.9018,4.9018,4.9018,4.9018,4.9018,4.9018,4.9018,4.9018,4.9018,4.9018,4.9018,4.9018,4.9018,4.9018,4.9018,4.9018,4.9018,4.9018,4.9018,4.9018,4.9018,4.9018,4.9018,4.9018,4.9018,4.9018,4.9018,4.9018,4.9018,4.9018,4.9018,4.9018,4.9018,4.9018,2.5585,2.5345,2.4926,2.4298,0.0,0.0,0.0,2.3648,2.4605,2.4605,2.5674,2.6692,2.7051,2.7649,2.8124,2.8124,2.9205,3.0642,3.2258,3.3665,3.4773,3.5429,3.5519,3.5519,3.5519,3.5519,3.5619,3.5972,3.7117,3.808,3.8761,3.9618,4.0113,4.0113,4.0113,4.0113,4.0113,4.0113,4.0113,4.0113,4.0113,4.0891,4.2286,4.2286,4.3132,4.4615,4.4615,4.4615,4.4615,4.4615,4.4615,4.4615,4.4615,4.4615,4.4615,4.4615,4.4615,4.4615,4.4615,4.506,4.5771,4.6143,4.7022,4.7973,4.8342,4.8714,4.9018,4.9018,4.9018,4.9018,4.9018,4.9018,4.9018,4.9018,4.9018,4.9018,4.9018,4.9018,4.9018,4.9018,4.9018,4.9018,4.9018,4.9018,4.9018,4.9018,4.9018,4.9018,4.9018,4.9018,4.9018,4.9018,4.9018,4.9018,4.9018,4.9018,4.9018,4.9018,4.9018,4.9018,4.9018,4.9018,4.9018,4.9018,4.9018,4.9018,4.9018,4.9018,4.9018,4.9018,4.9018,4.9018,0.0,0.0,0.0,0.0,0.0,2.4545,0.0,0.0,0.0,2.4246,2.4754,0.0,0.0,0.0,2.6004,2.6004,2.7141,2.8427,2.9594,3.1839,3.3815,3.4981,3.5162,3.5224,3.5377,3.5471,3.5699,3.623,3.716,3.7971,3.8646,3.9577,4.0113,4.0113,4.0113,4.0113,4.0113,4.0113,4.018,4.0316,4.0316,4.1068,4.2489,4.2489,4.3267,4.4615,4.4615,4.4615,4.4615,4.4615,4.4615,4.4615,4.4615,4.4615,4.4615,4.4615,4.4615,4.4615,4.4615,4.5162,4.6007,4.6616,4.7394,4.821,4.8815,4.9018,4.9018,4.9018,4.9018,4.9018,4.9018,4.9018,4.9018,4.9018,4.9018,4.9018,4.9018,4.9018,4.9018,4.9018,4.9018,4.9018,4.9018,4.9018,4.9018,4.9018,4.9018,4.9018,4.9018,4.9018,4.9018,4.9018,4.9018,4.9018,4.9018,4.9018,4.9018,4.9018,4.9018,4.9018,4.9018,4.9018,4.9018,4.9018,4.9018,4.9018,4.9018,4.9018,4.9018,4.9018,4.9018,4.9018,0.0,0.0,0.0,0.0,2.6422,0.0,0.0,0.0,2.355,2.3032,0.0,0.0,0.0,0.0,0.0,2.3939,2.5076,2.6213,2.6931,2.8338,3.0372,3.3365,3.3817,3.4211,3.497,3.5248,3.5396,3.5446,3.657,3.753,3.815,3.9404,4.0113,4.0113,4.0113,4.0113,4.0113,4.0113,4.0451,4.1068,4.1068,4.1847,4.3274,4.3274,4.3775,4.4615,4.4615,4.4615,4.4615,4.4615,4.4615,4.4615,4.4615,4.4615,4.4615,4.4615,4.4615,4.4615,4.4615,4.5529,4.6684,4.6752,4.7733,4.8883,4.8984,4.9018,4.9018,4.9018,4.9018,4.9018,4.9018,4.9018,4.9018,4.9018,4.9018,4.9018,4.9018,4.9018,4.9018,4.9018,4.9018,4.9018,4.9018,4.9018,4.9018,4.9018,4.9018,4.9018,4.9018,4.9018,4.9018,4.9018,4.9018,4.9018,4.9018,4.9018,4.9018,4.9018,4.9018,4.9018,4.9018,4.9018,4.9018,4.9018,4.9018,4.9018,4.9018,4.9018,4.9018,4.9018,4.9018,4.9018,0.0,0.0,0.0,0.0,0.0,0.0,2.358,2.3729,2.4096,2.3849,0.0,0.0,0.0,0.0,0.0,0.0,2.4732,2.5401,2.6079,2.7085,2.86,3.0939,3.1741,3.2509,3.3611,3.3983,3.4246,3.442,3.5558,3.6645,3.7543,3.9186,4.0113,4.0113,4.0113,4.0113,4.0113,4.0113,4.046,4.1204,4.1204,4.1982,4.3375,4.3375,4.3842,4.4615,4.4615,4.4615,4.4615,4.4615,4.4615,4.4615,4.4615,4.4615,4.4615,4.4615,4.4615,4.4615,4.4615,4.5596,4.6921,4.78,4.8511,4.9018,4.9018,4.9018,4.9018,4.9018,4.9018,4.9018,4.9018,4.9018,4.9018,4.9018,4.9018,4.9018,4.9018,4.9018,4.9018,4.9018,4.9018,4.9018,4.9018,4.9018,4.9018,4.9018,4.9018,4.9018,4.9018,4.9018,4.9018,4.9018,4.9018,4.9018,4.9018,4.9018,4.9018,4.9018,4.9018,4.9018,4.9018,4.9018,4.9018,4.9018,4.9018,4.9018,4.9018,4.9018,4.9018,4.9018,4.9018,4.9018,3.4053,3.2467,3.0462,2.9175,2.723,2.5255,2.3909,2.4126,2.4664,2.4844,2.5412,0.0,0.0,0.0,0.0,0.0,0.0,2.4986,2.5415,2.603,2.7147,2.8992,3.046,3.1619,3.2458,3.3169,3.3662,3.3794,3.5038,3.6216,3.7286,3.9101,4.0113,4.0113,4.0113,4.0113,4.0113,4.0316,4.0764,4.1508,4.1711,4.2489,4.3741,4.3741,4.4045,4.4615,4.4615,4.4615,4.4615,4.4615,4.4615,4.4615,4.4615,4.4615,4.4615,4.4615,4.4615,4.4615,4.4615,4.5596,4.7022,4.8511,4.9018,4.9018,4.9018,4.9018,4.9018,4.9018,4.9018,4.9018,4.9018,4.9018,4.9018,4.9018,4.9018,4.9018,4.9018,4.9018,4.9018,4.9018,4.9018,4.9018,4.9018,4.9018,4.9018,4.9018,4.9018,4.9018,4.9018,4.9018,4.9018,4.9018,4.9018,4.9018,4.9018,4.9018,4.9018,4.9018,4.9018,4.9018,4.9018,4.9018,4.9018,4.9018,4.9018,4.9018,4.9018,4.9018,4.9018,4.9018,4.9018,4.9018,3.5459,3.3484,3.1152,2.9894,2.756,2.5255,2.3909,2.4126,2.4784,2.5412,2.6093,2.6776,2.7405,0.0,0.0,0.0,0.0,0.0,0.0,2.4645,0.0,2.7977,3.0667,3.2251,3.1959,3.3413,3.4193,3.3842,3.5267,3.6625,3.7638,3.9226,4.0113,4.0113,4.0113,4.0113,4.0113,4.0798,4.1542,4.2252,4.2997,4.3775,4.4581,4.4581,4.4581,4.4615,4.4615,4.4615,4.4615,4.4615,4.4615,4.4615,4.4615,4.4615,4.4615,4.4615,4.4615,4.4615,4.4615,4.5596,4.7022,4.8511,4.9018,4.9018,4.9018,4.9018,4.9018,4.9018,4.9018,4.9018,4.9018,4.9018,4.9018,4.9018,4.9018,4.9018,4.9018,4.9018,4.9018,4.9018,4.9018,4.9018,4.9018,4.9018,4.9018,4.9018,4.9018,4.9018,4.9018,4.9018,4.9018,4.9018,4.9018,4.9018,4.9018,4.9018,4.9018,4.9018,4.9018,4.9018,4.9018,4.9018,4.9018,4.9018,4.9018,4.9018,4.9018,4.9018,4.9018,4.9018,4.9018,4.9018,3.6267,3.4831,3.3066,3.13,2.9535,2.7769,2.5974,2.6452,2.732,2.756,2.8427,2.9385,3.0073,0.0,0.0,0.0,0.0,0.0,0.0,2.5118,2.6012,0.0,0.0,0.0,3.0366,3.1544,3.2445,3.2786,3.377,3.515,3.703,3.8565,3.9605,4.0079,4.0113,4.0113,4.0113,4.0832,4.1576,4.2286,4.3064,4.3809,4.4615,4.4615,4.4615,4.4615,4.4615,4.4615,4.4615,4.4615,4.4615,4.4615,4.4615,4.4615,4.4682,4.5128,4.5331,4.5466,4.6447,4.7124,4.7699,4.868,4.9018,4.9018,4.9018,4.9018,4.9018,4.9018,4.9018,4.9018,4.9018,4.9018,4.9018,4.9018,4.9357,4.9729,4.9729,5.0101,5.0473,5.0473,5.0473,5.0473,5.0473,5.0473,5.0135,4.9154,4.9018,4.9018,4.9018,4.9018,4.9187,4.9661,4.9729,4.9932,5.0405,4.9999,4.9526,4.9052,4.9018,4.9018,4.9018,4.9018,4.9018,4.9018,4.9018,4.9018,4.9018,4.9018,4.9018,4.9018,4.9018,4.9018,3.6985,3.5848,3.4472,3.2946,3.142,2.9834,2.8068,2.8487,2.9355,2.9594,3.0672,3.1779,3.2467,3.115,2.9624,0.0,0.0,0.0,0.0,2.5952,0.0,0.0,0.0,0.0,0.0,3.0614,3.1495,3.2226,3.2983,3.4269,3.6265,3.7787,3.8937,3.9706,3.9977,4.0248,4.0493,4.1204,4.1948,4.2692,4.347,4.4079,4.4615,4.4615,4.4615,4.4615,4.4615,4.4615,4.4615,4.4615,4.4615,4.4615,4.4615,4.4784,4.5026,4.5534,4.5872,4.6278,4.7466,4.7906,4.8007,4.8781,4.9018,4.9018,4.9018,4.9018,4.9018,4.9018,4.9018,4.9018,4.9018,4.9018,4.9086,4.9323,4.9729,5.0168,5.0439,5.0879,5.1185,5.1185,5.1185,5.1185,5.1185,5.1185,5.0879,4.9932,4.9796,4.9796,4.9796,4.9796,4.9965,5.0439,5.0473,5.0676,5.1183,5.0777,5.0304,4.983,4.9796,4.9661,4.939,4.9661,4.9661,4.939,4.9661,4.9661,4.939,4.939,4.9255,4.9018,4.9018,4.9018]}]]